GFSSW_850_dewp_000.txt.gz
Dewpoint
-5 -5 -5 -5 -6 -6 -6 -6 -7 -6 -6 -6 -5 -5 -4 -2 -4 -8 -12 -15 -13 -14 -5 -12 -11 -3 6 8 10 9 8 9 9 10 10 12 15 14 15 15 14 14 15 15 15
-8 -7 -6 -6 -7 -7 -7 -7 -7 -7 -6 -6 -6 -5 -5 -3 -3 -8 -17 -16 -15 -12 -14 -14 -14 -8 -2 -0 5 7 9 8 7 7 11 12 14 15 15 14 15 15 14 15 15
-15 -13 -11 -8 -8 -8 -8 -8 -8 -8 -8 -7 -7 -6 -5 -4 -3 -15 -10 -14 -17 -15 -12 -12 -8 -6 -4 -1 4 7 7 7 7 7 10 11 13 14 13 15 15 15 14 15 16
-17 -17 -17 -15 -11 -10 -9 -8 -8 -8 -8 -8 -7 -7 -6 -5 -5 -11 -6 -7 -8 -9 -11 -10 -6 -10 -2 -1 -3 5 6 6 6 8 10 11 12 14 12 12 12 13 12 15 15
-18 -18 -18 -18 -17 -15 -12 -11 -9 -8 -8 -8 -8 -7 -7 -4 -5 -8 -12 -12 -11 -10 -14 -11 -7 -7 -0 -1 -2 -1 -2 5 6 7 9 10 12 13 12 13 13 13 13 15 15
-17 -17 -17 -18 -18 -17 -16 -13 -11 -9 -8 -7 -7 -8 -7 -3 -6 -10 -9 -10 -11 -12 -13 -9 -10 -10 -2 -2 -4 -5 4 7 8 8 9 11 13 13 13 13 15 13 14 14 14
-16 -17 -16 -16 -17 -17 -17 -16 -14 -10 -8 -7 -7 -6 -3 -5 -3 -5 -8 -5 -6 -12 -12 -8 -7 -4 -3 -3 -5 5 7 7 7 8 12 11 12 13 14 14 15 16 16 15 15
-18 -18 -18 -17 -17 -16 -16 -17 -16 -13 -10 -8 -6 -1 1 -2 -0 -6 -9 -5 -6 -6 -10 -10 -8 -10 -7 -5 3 5 6 9 7 9 11 10 13 14 14 15 16 17 17 16 16
-19 -19 -19 -18 -18 -17 -15 -16 -16 -14 -11 -4 1 2 1 -1 -3 -2 -8 -5 -6 -8 -8 -10 -10 -8 -6 -3 6 4 9 9 9 8 10 11 13 14 14 14 16 17 17 17 16
-18 -19 -19 -20 -19 -18 -16 -16 -16 -10 -1 4 5 4 -2 -2 -2 -2 -1 -2 -5 -10 -7 -8 -10 -4 -4 -1 9 8 9 7 10 8 10 11 12 14 13 14 15 15 15 16 16
-18 -18 -19 -20 -21 -20 -17 -16 -6 -4 -4 -3 -2 -0 -1 -5 -4 -3 -1 -1 -4 -12 -11 -11 -7 -5 -2 -4 0 4 8 8 8 7 9 11 12 15 13 13 13 14 14 15 15
-19 -19 -20 -21 -22 -22 -17 -10 -4 -6 -8 -7 -7 -7 -7 -6 -2 -4 -3 -2 -5 -7 -12 -7 -7 -7 -5 -3 -1 4 5 7 4 6 8 11 12 14 13 13 13 13 13 14 14
-21 -21 -21 -21 -22 -19 -19 -17 -9 -12 -6 -7 -6 -4 -5 -4 -2 -4 -3 -2 -7 -6 -11 -9 -9 -7 -2 -1 -2 -1 -1 0 6 8 10 12 13 13 13 13 13 13 13 13 13
-21 -22 -23 -23 -20 -22 -19 -18 -16 -17 -1 -2 -3 -4 -3 -2 0 -8 -3 -2 -10 -6 -10 -10 -11 -6 -3 -0 -1 0 -2 -2 5 8 10 9 12 13 12 13 12 12 13 13 13
-20 -21 -22 -24 -23 -23 -22 -22 -18 -5 1 -4 -3 -2 -3 -3 -6 -4 -5 -3 -3 -9 -9 -8 -9 -6 -1 -2 -2 -2 -2 -0 5 7 9 12 9 9 12 13 12 11 11 12 12
-21 -22 -22 -22 -24 -24 -20 -14 -8 -2 2 -3 -1 -4 -2 -3 -5 -5 -3 -3 -3 -8 -11 -8 -11 -8 -8 -4 -2 -4 -5 -1 2 5 8 8 10 8 14 12 11 11 11 12 12
-22 -23 -24 -24 -24 -26 -26 -22 -3 -0 -4 -5 -4 -5 -6 -4 -3 -6 -5 -6 -3 -3 -4 -8 -10 -9 -7 -5 -4 -5 -2 1 2 8 8 7 11 8 8 10 9 10 11 12 12
-22 -25 -26 -25 -25 -25 -24 -10 0 -3 -3 -4 -4 -5 -6 -5 -5 -4 -6 -2 -6 -6 -4 -5 -7 -8 -8 -5 -3 -3 -2 1 1 5 8 8 12 9 5 5 9 9 10 11 12
-23 -26 -26 -21 -10 -13 -14 -8 -4 -1 -2 -2 -5 -4 -3 -5 -6 -4 -5 -5 -4 -8 -5 -5 -5 -8 -8 -7 -6 -4 -3 -4 -1 1 2 5 3 1 1 4 8 8 10 10 11
-21 -24 -18 -6 -2 -9 -7 -10 -9 -5 -6 -10 -4 -4 -4 -4 -5 -5 -5 -5 -8 -8 -9 -7 -5 -8 -9 -7 -7 -5 -5 -1 -1 2 4 3 2 4 2 5 5 8 9 10 10
-21 -18 -14 -1 -3 -6 -8 -10 -11 -11 -10 -13 -5 -4 -4 -5 -5 -4 -5 -6 -7 -8 -9 -8 -8 -8 -7 -6 -7 -3 -3 -2 -2 -0 1 2 3 1 1 4 4 7 8 8 9
-14 -12 -5 -2 -1 -3 -5 -9 -11 -11 -12 -10 -8 -7 -7 -6 -6 -5 -4 -6 -7 -8 -7 -9 -7 -6 -7 -8 -7 -6 -4 -3 -2 -1 1 0 0 -2 1 2 6 5 7 7 7
-5 -4 -9 -2 1 -0 -2 -2 -3 -2 -3 -2 -5 -8 -8 -5 -2 -5 -5 -7 -8 -5 -5 -7 -7 -6 -6 -8 -6 -5 -3 -3 -3 -1 2 1 1 -0 2 5 7 7 6 6 6
0 -0 0 -1 -2 -4 -5 -5 -3 -3 -2 -2 -2 -3 -4 -1 -3 -3 -1 -1 0 1 3 1 -7 -7 -5 -7 -6 -3 -2 -2 -4 0 0 2 -2 -1 4 6 8 8 6 5 5
2 1 3 3 0 1 -4 -4 -2 -1 -3 -3 -1 0 0 1 1 -1 -3 -2 2 3 2 -8 -6 -7 -7 -8 -4 -4 -2 -0 -2 -2 -1 -2 -0 -0 3 5 6 5 7 6 6
2 3 3 3 3 -2 -1 -3 -1 -1 -2 -2 0 1 1 1 2 2 2 2 3 6 4 -4 -6 -6 -6 -8 -6 -6 -5 -0 -1 -2 -1 -2 -0 -2 0 3 4 4 7 7 6
1 1 2 2 3 0 -2 -0 -0 -1 -2 -3 -3 1 4 4 1 2 2 2 6 5 8 4 -5 -4 -4 -5 -5 -4 -6 -4 -3 -2 -2 0 -1 -1 3 4 4 4 5 5 4

GFSSW_850_dewp_003.txt.gz
Dewpoint
-9 -8 -7 -7 -7 -6 -6 -6 -7 -7 -7 -7 -6 -6 -4 -4 -5 -5 -6 -10 -13 -13 -3 -4 -2 1 5 10 11 9 8 8 8 11 10 12 12 14 14 15 15 15 15 14 15
-16 -14 -13 -11 -10 -10 -8 -7 -7 -7 -7 -7 -7 -7 -6 -5 -5 -7 -11 -13 -12 -12 -11 -7 -7 -2 1 1 6 7 9 7 6 8 10 12 12 14 15 14 14 15 16 15 16
-18 -18 -18 -17 -16 -14 -12 -11 -9 -8 -7 -7 -7 -7 -7 -6 -6 -9 -6 -14 -12 -13 -10 -11 -10 -10 -3 -1 3 7 8 6 6 7 10 12 13 13 14 14 13 15 16 16 16
-17 -17 -18 -18 -18 -18 -17 -15 -12 -10 -8 -7 -7 -7 -7 -8 -4 -9 -8 -8 -9 -9 -7 -9 -6 -4 -6 -6 -1 4 5 5 5 8 10 11 12 12 13 11 12 15 16 16 16
-16 -16 -16 -17 -17 -17 -17 -17 -16 -13 -10 -8 -7 -7 -7 -7 -8 -8 -7 -10 -12 -10 -8 -7 -7 -8 -8 -3 -3 0 -1 3 5 8 9 11 12 12 13 12 13 14 16 16 16
-16 -16 -17 -16 -16 -16 -16 -17 -17 -15 -13 -10 -8 -8 -7 -4 -9 -5 -6 -9 -7 -11 -8 -7 -7 -9 -7 -1 -1 -3 -0 2 6 8 10 10 12 11 12 14 15 16 16 16 16
-17 -18 -18 -17 -17 -16 -15 -16 -17 -17 -15 -13 -11 -8 -3 -8 -8 -4 -1 -3 -6 -8 -8 -8 -9 -6 -3 -2 -4 6 7 8 8 8 10 11 13 12 12 15 15 15 16 16 16
-17 -17 -18 -18 -17 -18 -17 -15 -16 -18 -17 -14 -11 -4 -1 -9 -3 1 -3 -6 -4 -5 -6 -9 -6 -7 -6 -3 4 5 7 8 8 9 11 9 9 11 14 14 15 15 15 16 16
-17 -18 -18 -18 -18 -18 -18 -16 -16 -18 -17 -11 -2 2 2 -3 -1 -1 -1 -6 -6 -4 -6 -8 -6 -6 -5 -2 5 6 7 8 10 9 11 10 9 11 14 14 14 15 15 15 16
-19 -19 -19 -19 -19 -19 -20 -17 -16 -16 -5 1 5 6 -1 -3 -0 -2 -1 -2 -7 -5 -5 -6 -6 -9 -4 -0 2 6 8 8 9 9 11 11 10 13 14 14 14 15 15 15 16
-21 -21 -20 -20 -21 -21 -21 -14 -10 -7 -7 -5 -2 -1 -3 -4 -4 -3 -1 -1 -7 -8 -6 -7 -9 -8 -6 -3 -0 3 6 7 8 8 9 10 10 13 13 13 13 15 15 15 15
-20 -22 -22 -21 -22 -22 -16 -22 -13 -10 -9 -13 -11 -8 -6 -6 -4 -6 -3 -2 -4 -5 -11 -9 -9 -8 -6 -5 -3 5 6 7 7 7 8 10 10 11 13 13 13 13 14 15 15
-19 -20 -22 -23 -22 -16 -23 -14 -7 -14 -10 -10 -8 -7 -6 -4 -4 -5 -5 -3 -3 -2 -7 -10 -11 -9 -4 -3 -3 0 5 7 7 7 9 10 10 12 13 13 13 13 13 13 14
-19 -20 -22 -23 -21 -23 -14 -15 -20 -16 -4 -4 -4 -4 -3 -2 -1 -4 -5 -3 -6 -2 -5 -7 -12 -9 -6 -3 -3 -1 2 4 7 8 9 8 9 10 11 14 13 13 13 13 13
-16 -19 -20 -22 -23 -22 -23 -18 -18 -6 -2 -5 -4 -3 -2 -0 -5 -2 -4 -4 -2 -4 -6 -6 -10 -8 -6 -5 -2 -0 -1 2 5 6 7 10 9 6 12 13 13 12 12 12 12
-18 -19 -20 -23 -23 -22 -21 -24 -6 -2 -1 -4 -2 -4 -2 -2 -3 -2 -3 -4 -3 -3 -8 -7 -10 -12 -8 -6 -3 -3 -0 1 4 4 6 4 8 4 11 11 10 10 11 12 12
-18 -20 -22 -23 -24 -23 -24 -22 -4 -1 -5 -5 -4 -5 -6 -5 -2 -5 -3 -3 -1 1 1 -3 -6 -10 -11 -8 -3 -2 -1 2 4 6 4 4 9 5 5 7 8 8 10 11 11
-18 -21 -23 -26 -23 -20 -20 -11 -3 -5 -7 -6 -4 -5 -6 -6 -4 -5 -3 -3 -2 -1 -1 1 -1 -5 -9 -10 -4 -1 -3 2 5 4 3 7 7 4 5 3 6 8 9 10 11
-17 -20 -23 -18 -11 -6 -10 -15 -11 -6 -3 -2 -5 -5 -7 -5 -5 -4 -4 -4 -4 -3 -0 -0 -1 -8 -9 -7 -6 -1 0 -3 0 1 2 3 6 3 3 4 5 7 8 10 11
-16 -19 -18 -4 -2 -2 -10 -16 -14 -6 -5 -10 -6 -4 -4 -4 -6 -5 -3 -4 -3 -4 -3 -3 -2 -8 -10 -10 -7 -5 -4 -1 0 6 5 2 4 -0 4 4 5 7 8 9 10
-14 -16 -14 -0 1 -5 -8 -13 -16 -14 -7 -11 -9 -6 -4 -6 -6 -6 -5 -5 -6 -5 -3 -3 -5 -9 -8 -8 -8 -5 -3 -1 -2 -0 3 3 1 3 6 7 5 6 7 8 10
-11 -13 -8 -2 -1 -4 -6 -9 -13 -12 -15 -14 -10 -7 -8 -8 -8 -7 -6 -5 -6 -7 -5 -4 -3 -2 -6 -8 -10 -9 -5 -3 -0 4 1 1 -1 -1 2 2 3 3 5 7 10
-1 -4 -11 -2 -3 -2 -2 -4 -5 -6 -6 -6 -9 -8 -7 -7 -5 -5 -6 -7 -6 -6 -2 -5 -3 -0 -1 -5 -7 -6 -7 -5 -4 -2 5 1 -1 1 2 3 3 5 6 8 10
0 -1 -2 -0 -2 -2 0 -2 -4 -4 -3 -3 -4 -3 -1 -1 -1 -1 -3 -3 -1 -4 -3 -2 1 1 -1 -2 -6 -6 -5 -4 -3 -1 -1 1 -2 -0 2 5 4 5 6 8 9
1 0 3 3 1 3 -1 -4 -4 -4 -4 -4 -1 -1 -1 0 -1 -1 -2 -3 -5 -3 3 2 3 2 -0 -2 -5 -7 -9 -5 -1 -1 0 -3 1 -0 4 6 6 4 9 9 9
1 2 2 2 2 2 -0 -2 -1 -1 -1 -4 -2 -4 -2 2 1 1 -0 -1 2 4 5 -1 5 -1 -1 -2 -5 -5 -7 -6 -4 -5 -2 -2 1 -1 1 3 5 6 9 9 8
-0 -0 1 -1 0 1 -0 -1 -1 -2 -2 -2 -2 -2 -2 -2 -1 -0 0 1 3 6 8 8 6 7 3 -4 -5 -2 -4 -5 -2 -2 -2 0 -1 1 1 4 5 5 8 9 5

GFSSW_850_dewp_006.txt.gz
Dewpoint
-17 -16 -14 -11 -10 -9 -7 -7 -7 -8 -7 -6 -6 -6 -7 -7 -5 -5 -6 -4 -10 -13 -13 -1 8 10 9 7 7 8 6 5 6 7 7 8 8 11 11 12 13 13 12 13 14
-18 -18 -18 -18 -16 -14 -12 -10 -8 -8 -8 -7 -6 -6 -6 -7 -8 -7 -4 -12 -13 -13 -4 6 5 8 4 -1 2 5 6 5 3 4 7 8 8 11 12 12 12 13 12 13 14
-17 -17 -17 -18 -18 -18 -17 -15 -12 -10 -9 -8 -8 -6 -6 -7 -6 -8 -6 -11 -12 -12 0 2 -1 3 -5 -7 -3 1 5 4 4 3 6 8 9 10 9 11 10 12 13 13 14
-15 -15 -16 -16 -17 -17 -17 -17 -17 -14 -11 -9 -9 -8 -8 -8 -7 -10 -7 -7 -7 -10 1 -0 -4 -4 -9 -7 -6 -0 -1 -0 2 5 6 8 8 9 9 8 9 11 13 14 14
-16 -16 -16 -16 -16 -16 -16 -16 -17 -17 -15 -11 -9 -9 -10 -1 -6 -8 -8 -8 -9 -8 -3 -4 -8 -8 -9 -7 -7 -3 -4 -3 -1 3 4 7 8 8 9 10 10 12 14 14 14
-17 -17 -17 -16 -16 -16 -16 -16 -16 -17 -17 -15 -12 -11 -11 -5 -8 -9 -5 -6 1 -2 -5 -7 -9 -10 -10 -8 -5 -5 -4 -3 -3 2 5 8 9 9 9 9 12 13 14 13 14
-17 -18 -18 -18 -17 -16 -17 -16 -16 -16 -17 -18 -16 -14 -6 -6 -6 -8 -8 -0 2 -1 -5 -7 -9 -11 -9 -7 -6 -4 -0 4 3 4 7 7 11 10 10 11 13 13 13 13 13
-19 -19 -18 -19 -19 -18 -17 -17 -16 -16 -16 -19 -17 -9 -1 -3 -7 -3 1 0 -3 1 -2 -5 -8 -9 -10 -5 -4 -2 -0 3 5 6 8 8 7 9 10 11 13 13 13 13 14
-21 -21 -20 -19 -20 -20 -18 -17 -17 -16 -16 -16 -5 -0 -2 -1 -1 0 0 -3 -3 -1 -3 -6 -8 -7 -8 -4 -1 -0 2 2 8 7 9 9 7 8 11 11 12 12 12 13 14
-21 -21 -22 -21 -20 -20 -19 -18 -16 -14 -8 -2 3 6 1 -4 1 -1 2 -4 -4 -2 -3 -6 -7 -7 -6 -5 1 2 2 2 4 8 9 9 7 10 11 10 10 12 12 13 13
-21 -21 -24 -23 -22 -22 -20 -19 -1 2 1 -2 -5 -2 -5 -4 -2 -2 -0 -5 -7 -5 -8 -9 -8 -7 -6 -4 -3 -2 1 2 2 6 8 7 7 8 11 11 10 11 12 12 12
-19 -20 -23 -24 -23 -21 -19 -11 -8 -11 -10 -12 -12 -10 -9 -7 -6 -7 -3 -3 -6 -5 -9 -10 -9 -10 -9 -6 -4 -2 0 1 2 6 7 6 7 7 8 11 10 10 12 13 12
-20 -19 -22 -25 -23 -17 -19 -6 -13 -14 -9 -12 -11 -10 -8 -8 -6 -6 -5 -4 -5 -6 -9 -8 -12 -12 -10 -8 -3 -1 -0 1 4 7 6 6 8 7 6 9 10 10 10 12 12
-18 -19 -20 -25 -15 -23 -6 -13 -18 -14 -7 -9 -7 -5 -3 -4 -4 -5 -7 -5 -6 -6 -8 -11 -13 -12 -10 -7 -4 -0 -3 -1 2 6 8 7 8 5 5 9 10 11 10 10 12
-17 -19 -19 -20 -24 -14 -9 -20 -18 -5 -3 -7 -5 -3 -2 -2 -4 -3 -7 -8 -6 -6 -7 -7 -12 -11 -10 -9 -7 -2 -4 -2 -0 4 5 7 8 5 6 7 9 10 10 9 9
-15 -17 -18 -17 -20 -23 -21 -24 -5 -2 -3 -8 -5 -4 -3 -4 -5 -3 -5 -7 -8 -6 -6 -7 -11 -12 -11 -12 -9 -6 -3 -1 0 1 6 5 6 4 3 5 3 6 8 10 8
-14 -15 -18 -19 -11 -23 -22 -11 -6 -5 -7 -8 -7 -6 -7 -8 -6 -4 -4 -5 -4 -1 -2 -6 -9 -13 -14 -10 -10 -5 -1 4 5 4 5 4 5 4 -1 -1 1 -2 3 9 9
-12 -13 -15 -20 -23 -24 -12 -14 -6 -9 -9 -8 -6 -6 -5 -8 -7 -6 -5 -6 -7 -5 -4 -3 -5 -9 -12 -12 -6 -5 -2 2 6 4 3 2 5 2 -0 -2 -3 -3 2 7 9
-12 -12 -10 -17 -13 -10 -7 -13 -11 -11 -10 -12 -11 -7 -6 -7 -8 -6 -5 -5 -8 -6 -2 -3 -3 -10 -12 -11 -11 -4 -1 -3 -0 -0 1 -1 2 -1 -2 0 -1 0 3 5 8
-9 -3 -6 -4 -6 1 -7 -11 -15 -17 -13 -9 -7 -9 -8 -9 -7 -7 -7 -7 -7 -7 -5 -3 -1 -6 -9 -10 -11 -8 -5 -0 -0 7 5 1 1 2 1 -1 -3 -1 3 5 7
-2 -6 -5 -4 3 0 -6 -12 -15 -18 -16 -10 -10 -9 -8 -8 -7 -7 -7 -7 -7 -7 -4 -4 -2 -5 -7 -8 -8 -8 -5 -2 -2 -0 3 4 2 -2 -1 -1 -2 -4 2 2 6
-2 -7 -4 3 -0 -5 -5 -9 -12 -15 -19 -17 -14 -13 -10 -8 -6 -6 -6 -7 -8 -6 -2 -2 -2 -1 -7 -10 -12 -10 -6 -3 1 5 1 1 -1 -5 -4 -3 -4 -5 -6 -5 3
-1 -6 -7 -3 -5 -8 -7 -8 -9 -10 -14 -16 -17 -14 -13 -10 -6 -8 -8 -11 -11 -6 -3 -3 -0 2 -0 -9 -10 -10 -9 -6 -3 -1 5 3 1 -5 -5 -4 -4 1 1 1 6
-2 -7 -9 -1 -6 -3 -3 -2 -4 -8 -10 -13 -13 -13 -14 -10 -9 -7 -7 -10 -8 -8 0 -1 -3 -0 -0 -1 -7 -6 -9 -9 -7 -1 0 -0 -0 -3 -5 -3 -4 -4 1 3 8
-2 -6 -0 -6 -2 2 2 0 -2 -5 -6 -8 -7 -6 -9 -7 -7 -6 -6 -5 -3 -3 1 3 4 0 -2 -5 -5 -6 -8 -8 -8 -6 -1 -2 -2 -2 -2 -3 -5 -6 -5 3 9
0 -1 0 -1 -3 -3 -4 -2 -1 -4 -3 -3 -3 -7 -7 -5 -5 -5 -6 -5 -6 -4 -3 0 5 3 2 -2 -4 -4 -5 -8 -9 -9 -7 -6 -4 -6 -6 -6 -6 -6 -6 2 8
0 -0 -1 -4 -6 -4 -5 -5 -3 -1 -3 -4 -3 -2 -1 -3 -2 -2 -2 -1 -1 -1 1 3 4 7 5 0 -0 1 -2 -5 -7 -9 -8 -5 -6 -8 -7 -5 -4 -4 0 2 7

GFSSW_850_dewp_009.txt.gz
Dewpoint
-17 -18 -18 -18 -16 -13 -11 -9 -8 -7 -8 -9 -7 -6 -6 -6 -7 -8 -2 -3 -4 -12 -15 6 8 4 6 5 4 3 8 6 5 9 4 3 3 5 7 9 9 10 12 13 14
-16 -16 -17 -17 -18 -18 -18 -16 -13 -10 -9 -8 -9 -8 -6 -6 -7 -3 -7 -6 -8 -12 -10 3 3 3 3 3 2 3 13 6 1 7 4 4 3 5 7 8 9 10 11 13 14
-15 -15 -16 -16 -16 -17 -17 -17 -17 -16 -12 -9 -8 -9 -9 -7 -2 -6 -5 -9 -13 -14 -3 -0 -0 2 2 -1 -2 -0 9 5 2 2 4 3 4 4 5 7 8 10 12 13 14
-17 -16 -15 -15 -16 -16 -16 -16 -17 -17 -17 -14 -11 -9 -9 -10 -4 -3 -8 -10 -9 -11 2 -2 -1 -2 -0 -3 -4 -1 0 -0 1 2 3 3 4 4 3 5 7 9 11 12 14
-17 -18 -18 -16 -16 -15 -15 -15 -16 -16 -17 -17 -16 -13 -12 -1 -5 -6 -8 -9 -9 -4 2 -3 -3 -4 -2 -6 -5 -3 -2 -3 -2 0 1 4 5 4 3 4 7 9 10 12 13
-19 -18 -18 -19 -19 -18 -16 -15 -15 -15 -16 -17 -17 -17 -13 -3 -8 -5 -4 -3 -0 0 -3 -4 -4 -6 -6 -5 -5 -4 -4 -4 -3 -3 1 4 4 5 4 5 8 10 10 11 12
-21 -21 -20 -19 -19 -20 -18 -16 -15 -15 -15 -16 -17 -18 -2 -4 -8 -7 -1 -2 -1 -2 -3 -7 -7 -9 -9 -7 -6 -5 -3 -2 -1 -2 1 2 5 5 5 7 8 10 10 10 11
-22 -22 -22 -21 -20 -19 -20 -19 -16 -15 -15 -16 -17 -15 -1 -5 -3 -5 -6 -5 -4 -3 -4 -8 -10 -9 -9 -7 -6 -4 -3 0 -0 -1 1 3 6 5 6 7 7 9 10 10 11
-21 -22 -23 -23 -22 -19 -20 -20 -17 -15 -15 -15 -8 2 -2 -2 -2 -3 -4 -3 -4 -5 -3 -6 -7 -9 -9 -7 -4 -2 -0 0 2 0 4 4 8 6 7 6 7 8 9 10 11
-18 -20 -21 -23 -24 -21 -20 -20 -17 -15 -7 -7 4 5 0 -3 -3 -2 -3 -4 -6 -4 -5 -5 -8 -8 -8 -5 -1 1 1 0 5 1 4 5 8 6 7 7 5 7 8 9 10
-16 -18 -20 -22 -24 -23 -21 -8 -1 5 6 -0 -1 -4 -4 -5 -2 -3 -2 -5 -7 -4 -6 -9 -9 -8 -7 -5 -4 -2 -1 -0 -1 -0 4 5 5 6 7 7 6 6 7 8 9
-16 -17 -18 -20 -24 -22 -15 -8 -8 -8 -10 -11 -9 -8 -8 -9 -8 -5 -3 -6 -9 -6 -7 -9 -9 -11 -8 -6 -4 -3 -1 0 -0 1 2 4 5 5 8 7 7 7 7 7 8
-14 -16 -18 -19 -22 -7 -9 -7 -8 -8 -10 -12 -12 -12 -12 -12 -11 -9 -8 -5 -8 -7 -7 -10 -11 -12 -9 -5 -3 -3 -2 -1 0 5 4 4 6 5 5 8 8 7 7 7 7
-11 -14 -16 -17 -8 -10 -7 -6 -8 -8 -7 -11 -11 -12 -10 -10 -11 -11 -9 -9 -5 -7 -9 -9 -13 -13 -11 -7 -5 -2 -4 -3 -2 5 7 2 7 6 4 5 8 8 7 7 7
-9 -11 -14 -16 -17 -8 -9 -9 -9 -7 -3 -9 -8 -7 -7 -6 -5 -6 -7 -9 -5 -6 -8 -9 -11 -11 -10 -9 -7 -4 -5 -3 -2 2 8 2 4 5 3 4 5 7 8 7 7
-8 -10 -12 -9 -4 -6 -6 -7 -7 -4 -2 -8 -7 -5 -4 -5 -8 -5 -7 -9 -8 -7 -8 -9 -12 -13 -12 -12 -9 -7 -5 -3 -3 -1 4 4 5 5 6 4 3 4 6 8 7
-10 -10 -11 -12 -7 -6 -8 -9 -7 -4 -8 -8 -8 -8 -7 -7 -7 -6 -6 -7 -6 -4 -4 -6 -8 -11 -14 -11 -10 -7 -3 1 3 2 2 0 4 9 2 1 1 1 2 5 8
-10 -12 -9 -3 -4 -11 -7 -10 -5 -7 -8 -11 -10 -8 -7 -9 -8 -7 -5 -6 -8 -7 -6 -3 -4 -8 -11 -12 -10 -7 -5 -1 5 4 2 -0 3 2 1 -2 -2 -1 -3 -0 6
-10 -4 -5 -5 -4 -4 -7 -8 -8 -8 -10 -10 -10 -8 -7 -9 -9 -9 -5 -6 -8 -8 -4 -4 -3 -9 -10 -12 -13 -9 -4 -5 -2 -0 1 0 -0 -1 -0 -0 -2 -2 -4 -3 3
-2 -0 -6 -5 -1 -3 -5 -6 -10 -13 -13 -12 -8 -9 -6 -7 -7 -7 -7 -7 -7 -9 -9 -6 -2 -7 -10 -12 -13 -12 -10 -3 -1 6 5 1 1 1 1 1 -2 -1 -3 -3 -1
1 -6 -6 -3 0 -0 -4 -7 -9 -12 -14 -13 -10 -8 -9 -9 -9 -7 -7 -9 -10 -8 -9 -8 -4 -4 -6 -7 -8 -11 -10 -6 -4 -1 2 3 1 -3 1 0 -1 -2 -4 -4 -1
-1 -3 -5 -1 0 -2 -1 -4 -8 -10 -12 -14 -15 -11 -7 -9 -8 -8 -7 -8 -11 -9 -6 -7 -5 -1 -3 -7 -10 -11 -10 -9 -1 4 -1 1 -0 -4 -4 -3 -3 -3 -4 -4 -3
-1 -3 -6 -8 -5 -6 -5 -5 -7 -6 -8 -10 -13 -14 -12 -9 -6 -7 -8 -10 -10 -8 -6 -6 -3 -0 0 -4 -8 -7 -9 -10 -10 -4 5 3 1 -4 -4 -4 -4 -3 -4 -5 -2
0 -3 -8 -7 -7 -8 -8 -7 -6 -8 -8 -9 -10 -12 -14 -11 -11 -8 -8 -9 -10 -10 -2 -3 -3 -0 0 0 -5 -6 -8 -10 -10 -6 -3 -2 -0 -1 -3 -3 -3 -4 -5 -2 -2
0 -3 -6 -2 -5 -3 -0 2 -0 2 -2 -6 -6 -8 -10 -10 -10 -9 -9 -9 -10 -10 -5 -4 1 -1 -2 -3 -4 -6 -10 -10 -9 -8 -4 -4 -2 -2 -0 -2 -4 -5 -5 -5 -4
2 -1 -1 -2 -3 -3 -2 -3 -4 -3 -1 0 -1 -6 -9 -8 -9 -9 -10 -7 -5 -9 -5 -5 1 1 -0 -4 -5 -4 -5 -8 -9 -10 -9 -7 -5 -6 -5 -4 -4 -5 -5 -5 -5
2 1 0 -3 -4 -5 -6 -3 -3 -8 -3 0 1 3 1 -4 -3 -3 -5 -10 -8 -3 -2 -1 1 5 5 1 -0 0 -4 -5 -5 -7 -9 -7 -7 -8 -5 -3 -2 -5 -5 -4 -5

GFSSW_850_dewp_012.txt.gz
Dewpoint
-15 -16 -16 -16 -17 -17 -18 -17 -16 -13 -10 -9 -8 -9 -9 -7 -6 -6 -7 -3 -2 -8 -11 2 8 7 5 3 5 5 7 10 6 4 2 2 2 6 8 9 11 12 12 13 13
-14 -14 -15 -16 -16 -16 -16 -17 -17 -18 -16 -12 -10 -9 -9 -10 -9 -7 -13 -6 -5 -5 -12 -3 1 4 2 2 3 6 11 8 9 5 3 2 3 3 6 7 9 11 12 12 13
-17 -17 -16 -15 -15 -15 -16 -16 -16 -17 -17 -17 -13 -10 -10 -10 -7 -3 -4 -6 -7 -8 -9 -6 -3 0 1 2 1 7 10 6 5 5 4 2 2 3 5 7 8 12 12 12 13
-18 -18 -18 -18 -17 -15 -15 -15 -15 -16 -16 -17 -18 -15 -13 -11 -4 -2 -8 -8 -11 -13 -4 -5 -5 -1 -1 2 -0 -1 3 4 3 4 5 2 3 3 4 5 7 11 13 13 12
-20 -20 -19 -19 -19 -19 -18 -16 -15 -15 -15 -16 -17 -18 -17 -2 -2 -5 -6 -7 -10 -12 -2 -2 -4 -2 -1 -1 -2 -3 1 -1 -2 -1 1 3 3 3 2 5 7 9 12 13 12
-20 -21 -21 -21 -20 -19 -19 -19 -17 -15 -14 -15 -16 -17 -17 -5 -7 -4 -7 -3 -6 -3 -4 -2 -4 -3 -3 -2 -3 -5 -4 -3 -4 -4 -1 4 4 3 2 4 6 9 11 12 12
-19 -20 -21 -21 -21 -21 -19 -19 -20 -17 -15 -14 -15 -16 -4 -9 -5 -7 -5 -2 -3 -1 -5 -4 -4 -5 -4 -4 -4 -5 -4 -4 -4 -3 -1 0 5 4 3 3 7 8 10 11 12
-16 -17 -18 -20 -21 -22 -21 -19 -19 -20 -16 -15 -15 -14 -2 -12 -7 -6 -5 -4 -3 -3 -4 -5 -6 -7 -5 -6 -6 -5 -5 -1 -3 -2 -2 0 7 2 5 4 5 8 9 10 10
-14 -16 -16 -17 -18 -21 -21 -19 -19 -20 -17 -15 -11 -0 0 -5 -3 -4 -5 -7 -8 -6 -4 -5 -7 -10 -8 -6 -5 -4 -1 -2 -2 -2 -0 1 7 7 5 5 5 7 8 9 10
-10 -13 -14 -15 -17 -19 -20 -19 -18 -12 -6 -3 -4 5 2 -2 -3 -5 -5 -7 -7 -5 -7 -5 -7 -8 -9 -6 -2 -2 -2 -1 -1 1 -0 9 12 9 7 6 5 6 7 8 9
-6 -9 -11 -14 -15 -20 -21 -15 -2 1 6 3 1 -3 -7 -2 -6 -4 -4 -4 -5 -7 -5 -5 -5 -4 -6 -7 -5 -4 -2 -1 -2 2 1 10 13 12 8 8 4 6 6 7 9
-3 -6 -8 -10 -14 -20 -10 -3 -8 -8 -10 -11 -8 -2 -1 -5 -5 -3 -5 -4 -7 -6 -6 -6 -5 -8 -10 -6 -5 -4 -2 -0 -1 2 3 6 12 10 10 8 4 5 5 6 7
-3 -4 -7 -8 -14 -2 -5 -8 -7 -9 -9 -11 -12 -13 -10 -3 -4 -8 -6 -4 -7 -7 -5 -5 -8 -11 -12 -8 -5 -3 -2 -1 -1 1 1 1 4 9 7 5 5 5 5 5 6
-4 -5 -7 -8 -7 -6 -8 -6 -11 -11 -7 -9 -12 -13 -13 -13 -12 -12 -11 -6 -5 -7 -9 -7 -9 -11 -12 -9 -6 -2 -4 -4 -3 3 6 3 8 9 8 7 6 6 5 6 6
-6 -7 -9 -10 -9 -11 -6 -8 -9 -9 -2 -10 -12 -12 -14 -13 -12 -13 -13 -11 -8 -5 -7 -8 -8 -10 -11 -11 -9 -4 -5 -4 -3 2 5 7 7 8 8 8 8 6 6 6 6
-8 -8 -9 -9 -3 -7 -9 -7 -9 -5 -2 -8 -8 -8 -11 -13 -12 -8 -12 -13 -11 -9 -6 -7 -11 -10 -12 -13 -12 -8 -5 -4 -4 -1 4 5 6 6 7 7 5 6 6 6 7
-7 -9 -11 -10 -7 -6 -6 -9 -7 -4 -7 -7 -7 -7 -7 -8 -10 -6 -8 -8 -5 -4 -3 -5 -7 -11 -12 -11 -12 -11 -6 1 2 2 3 1 7 8 6 5 4 9 9 6 7
-6 -7 -9 -6 -2 -7 -6 -7 -3 -5 -6 -9 -10 -9 -6 -6 -7 -7 -5 -5 -7 -7 -5 -3 -3 -8 -11 -11 -10 -10 -8 -0 5 4 2 0 3 4 5 4 3 7 8 5 7
-6 -5 -5 -4 -5 -3 -4 -6 -4 -5 -7 -8 -9 -8 -7 -8 -8 -8 -7 -5 -9 -8 -3 -5 -4 -8 -10 -11 -13 -10 -7 -8 -3 -2 1 -0 -1 -3 -0 5 4 1 -1 2 6
-2 0 -2 -4 -5 -5 -4 -2 -7 -9 -9 -9 -7 -8 -7 -7 -8 -8 -7 -7 -6 -10 -9 -7 -4 -8 -8 -10 -10 -12 -11 -7 -5 4 5 1 4 3 2 6 4 4 1 -2 -3
1 -2 -6 -6 -5 -2 -0 -3 -5 -6 -7 -7 -7 -8 -9 -7 -7 -7 -8 -9 -9 -8 -9 -9 -5 -6 -6 -6 -7 -10 -9 -9 -8 -3 2 5 3 1 5 7 6 5 0 -2 -3
-0 -3 -6 -4 -2 -1 -0 -1 -3 -4 -6 -7 -8 -9 -9 -10 -7 -7 -6 -8 -10 -9 -7 -8 -7 -2 -5 -7 -9 -10 -9 -9 -5 2 -2 0 1 -4 3 1 2 1 -2 -2 -3
-0 -3 -5 -6 -3 -5 -6 -6 -4 -3 -3 -3 -4 -8 -9 -10 -5 -7 -7 -10 -10 -10 -8 -7 -4 -0 -3 -5 -6 -7 -9 -10 -10 -7 0 2 0 -3 -0 2 2 1 -1 -1 -2
1 -3 -6 -8 -7 -7 -6 -6 -7 -9 -6 -5 -4 -3 -4 -6 -9 -6 -7 -9 -11 -10 -5 -5 -5 0 -1 -1 -4 -2 -6 -7 -8 -6 -4 -4 0 -0 3 4 2 2 -2 -2 -3
1 -1 -4 -3 -5 -4 1 2 1 1 -3 -3 0 0 0 0 -6 -8 -10 -10 -10 -7 -4 -6 1 -2 -5 -5 -5 -4 -5 -6 -5 -4 -2 -5 -4 -1 1 3 2 -1 -2 -3 -1
2 0 0 -1 -4 -5 -5 -1 -3 -2 -2 -1 -0 2 2 3 3 3 -2 -6 -6 -7 -7 -7 1 -1 -0 -3 -4 -3 -4 -6 -8 -7 -5 -5 -5 -7 -5 -4 -1 -1 -2 -1 -3
1 1 2 1 -3 -4 -7 -7 -4 -2 -2 -0 -1 4 4 2 2 -0 -2 -3 -3 -4 -2 -1 -3 3 3 -2 -2 -0 -2 -3 -5 -9 -8 -5 -4 -5 -4 -1 1 2 -1 1 -1

GFSSW_850_dewp_015.txt.gz
Dewpoint
-17 -16 -15 -15 -15 -16 -16 -16 -16 -17 -17 -16 -13 -10 -10 -9 -12 -13 -10 -16 -8 -7 -6 -6 7 4 8 9 14 11 12 15 12 9 4 5 10 11 12 13 13 13 13 15 14
-17 -17 -18 -17 -15 -15 -15 -16 -16 -16 -16 -17 -17 -16 -13 -10 -10 -14 -18 -16 -5 -2 -2 -6 -5 6 7 6 5 7 10 11 9 6 3 4 10 11 12 13 13 13 14 14 15
-19 -19 -18 -18 -18 -18 -17 -15 -15 -15 -16 -16 -17 -17 -17 -14 -13 -7 -7 -9 -5 -5 -5 -4 -6 -5 -1 3 1 6 7 7 6 6 6 3 3 6 11 13 12 13 15 15 14
-18 -19 -20 -20 -19 -18 -19 -19 -17 -15 -15 -15 -16 -16 -17 -17 -5 -2 -6 -8 -8 -9 -8 -7 -6 -6 -4 0 -0 7 4 4 6 5 4 3 3 6 6 10 12 13 14 14 13
-15 -16 -18 -19 -20 -20 -19 -18 -19 -19 -16 -15 -15 -15 -17 -11 -9 -13 -7 -6 -8 -10 -12 -9 -5 -5 -3 -1 -1 1 3 4 5 5 5 3 3 5 6 11 12 12 13 15 14
-12 -13 -15 -17 -17 -19 -20 -20 -19 -18 -19 -18 -16 -15 -17 -2 -13 -6 -7 -5 -5 -6 -12 -5 -4 -4 -4 -1 -1 -1 -2 1 1 6 4 4 5 5 8 12 12 12 12 14 14
-6 -9 -12 -14 -15 -16 -17 -19 -20 -18 -18 -20 -17 -16 -15 -13 -11 -8 -4 -5 -3 -3 -3 -4 -3 -3 -4 -2 -2 -3 -2 -4 -4 -4 5 6 8 9 7 10 12 13 13 12 13
-4 -5 -7 -10 -13 -14 -15 -16 -19 -18 -18 -20 -18 -14 -9 -10 -10 -9 -3 -5 -4 -3 -2 -4 -5 -3 -4 -5 -4 -3 -4 -2 -4 -3 -2 6 11 7 5 9 11 12 13 13 12
-1 -3 -5 -6 -9 -13 -13 -15 -19 -18 -19 -18 -14 -8 3 -3 -5 -11 -7 -6 -5 -3 -3 -4 -5 -5 -6 -5 -3 -4 -2 -2 -3 -4 1 6 10 5 4 8 9 11 12 12 12
-2 -2 -3 -5 -7 -11 -13 -17 -12 -4 -1 -1 -2 6 -3 -6 -3 -5 -6 -4 -5 -7 -6 -5 -4 -5 -6 -6 -1 -2 -2 -3 -2 -1 1 6 8 7 5 6 8 9 10 11 12
-2 -2 -3 -3 -5 -10 -15 -10 -6 -2 4 6 4 -4 -9 -7 -4 -4 -5 -6 -7 -8 -5 -5 -3 -2 -5 -8 -6 -4 -3 -3 -3 0 9 10 9 9 4 7 7 9 9 10 10
-4 -4 -4 -3 -4 -11 -6 -4 -7 -8 -7 -9 -10 -7 -1 -1 1 -5 -4 -6 -6 -3 -4 -5 -3 -4 -6 -7 -8 -6 -3 -2 -3 1 8 10 9 7 4 3 7 8 9 9 10
-8 -7 -6 -4 -5 -4 -5 -6 -8 -10 -9 -11 -11 -11 -11 -8 -2 -1 -4 -4 -4 -3 -4 -4 -3 -5 -6 -6 -5 -6 -4 -3 -1 2 6 9 11 9 6 6 6 7 8 9 9
-9 -9 -9 -7 -5 -6 -8 -5 -8 -9 -6 -8 -10 -12 -11 -12 -9 -3 -3 -4 -3 -4 -5 -6 -6 -5 -6 -7 -8 -3 -5 -4 -3 -1 8 8 12 12 11 12 10 9 6 8 9
-5 -6 -9 -9 -7 -5 -7 -7 -9 -8 -0 -7 -10 -13 -13 -12 -12 -6 -3 -6 -3 -2 -6 -6 -5 -5 -6 -9 -11 -7 -5 -4 -3 -2 5 5 6 11 11 12 10 9 6 6 7
-5 -7 -7 -9 -10 -6 -6 -8 -7 -4 -0 -6 -11 -11 -12 -13 -13 -13 -5 -6 -10 -4 -5 -5 -8 -9 -7 -8 -12 -12 -7 -4 -3 -2 2 5 6 8 12 12 11 8 6 6 6
-6 -8 -8 -6 -9 -8 -7 -6 -4 -2 -6 -5 -7 -9 -11 -12 -12 -13 -11 -10 -9 -7 -5 -7 -5 -6 -9 -8 -11 -12 -9 -3 1 2 3 3 6 7 5 6 7 7 7 7 7
-3 -9 -11 -9 -8 -5 -3 -4 -1 -3 -5 -7 -7 -7 -6 -9 -11 -12 -9 -9 -11 -9 -6 -5 -4 -5 -7 -9 -8 -11 -11 -5 3 3 2 0 3 6 3 5 5 7 8 7 7
-3 -9 -13 -17 -5 -3 -1 1 -2 -4 -5 -6 -7 -5 -5 -6 -6 -9 -8 -9 -10 -11 -5 -5 -4 -5 -7 -8 -10 -8 -9 -11 -6 -1 1 0 -1 -2 4 4 5 5 8 8 6
-2 -1 -14 -4 -3 -3 -1 0 -3 -6 -5 -4 -2 -5 -3 -5 -5 -4 -7 -7 -7 -9 -8 -5 -1 -5 -6 -9 -9 -11 -9 -8 -9 -3 1 -0 2 4 6 6 7 7 6 5 4
1 -0 -14 -6 -5 -2 -0 -1 -3 -4 -4 -4 -3 -3 -3 -4 -5 -6 -6 -6 -8 -6 -7 -7 -5 -5 -5 -6 -7 -7 -10 -10 -9 -6 -2 2 1 -1 3 7 7 5 5 6 4
1 -0 -16 -7 -4 -3 -2 -3 -3 -3 -3 -2 -2 -2 -2 -3 -3 -4 -6 -8 -9 -8 -5 -8 -7 -4 -5 -7 -8 -9 -7 -9 -5 -2 -1 -4 -3 -3 -4 5 5 4 4 4 4
1 -0 -9 -4 -3 -3 -4 -4 -5 -5 -6 -6 -4 -3 -3 -1 0 -2 -4 -6 -10 -9 -6 -6 -6 -3 -2 -5 -7 -7 -8 -7 -10 -6 -3 2 -1 -8 -7 -1 0 3 3 1 -0
2 -1 -4 -3 -5 -5 -4 -1 1 -1 -1 -3 -2 -2 0 1 1 1 0 -3 -7 -11 -3 1 -4 -5 -2 -2 -4 -1 -6 -7 -8 -7 -7 -7 -8 -8 -2 2 0 1 1 -0 1
1 0 -2 -0 0 -1 -2 2 0 -1 -2 -2 -2 1 3 4 5 4 3 2 0 -3 -4 -3 -3 -4 -4 -4 -5 -6 -4 -7 -7 -8 -5 -7 -7 -7 -5 5 4 2 1 -1 -2
1 0 -0 -0 -1 -2 -2 -4 -3 -5 -3 -0 1 3 3 4 6 6 4 4 3 0 -0 -1 2 2 0 -2 -6 -5 -5 -4 -7 -7 -6 -6 -6 -5 -4 -3 5 4 1 -2 -3
1 1 2 2 -1 -1 -1 -3 -1 -1 -0 0 -0 1 2 2 4 3 2 1 1 2 2 0 1 4 1 0 -0 1 -5 -4 -2 -5 -4 -4 -6 -6 -5 -4 0 2 2 -1 -2

GFSSW_850_dewp_021.txt.gz
Dewpoint
-14 -15 -16 -18 -19 -19 -19 -18 -18 -17 -16 -16 -15 -15 -16 -16 -16 -14 -12 -21 -18 -5 1 5 12 15 17 18 18 14 12 13 11 12 14 13 14 14 14 14 13 14 13 13 13
-7 -9 -12 -14 -16 -18 -19 -19 -19 -18 -18 -17 -16 -16 -15 -16 -16 -15 -14 -12 -14 -15 -7 5 13 17 17 16 17 14 12 11 8 9 13 13 13 13 14 14 14 14 13 14 15
-5 -6 -7 -7 -10 -13 -15 -16 -18 -19 -19 -19 -18 -17 -15 -15 -15 -13 -7 -4 -10 -17 -11 -7 9 15 15 12 16 13 13 8 7 8 12 12 13 13 14 14 14 14 14 15 15
0 -1 -3 -5 -6 -7 -10 -13 -14 -16 -19 -20 -19 -19 -18 -16 -13 -4 -7 -8 -13 -16 -4 3 5 10 6 10 10 7 10 10 7 8 12 12 13 13 13 12 13 11 13 14 15
0 -0 -0 -0 -2 -5 -6 -8 -11 -13 -15 -18 -19 -19 -19 -16 -13 -11 -7 -6 -16 -14 -3 -1 1 -0 -5 -5 -1 7 5 3 3 5 10 12 13 13 13 13 13 13 14 15 15
-1 -1 -1 -1 -0 -1 -4 -6 -7 -10 -13 -15 -18 -20 -19 -14 -11 -12 -13 -11 -7 -7 -3 -3 -5 -3 -5 -5 -4 -2 -1 -0 0 4 7 12 13 13 13 13 14 14 14 14 14
-2 -2 -3 -3 -2 -1 -1 -4 -5 -7 -12 -14 -17 -20 -19 -15 -11 -11 -11 -12 -13 -8 -7 -8 -9 -6 -7 -5 -6 -3 -1 -2 -2 -1 7 11 12 14 13 14 15 15 15 14 14
-6 -6 -6 -4 -4 -3 -1 -1 -5 -8 -14 -16 -18 -18 -15 -17 -14 -12 -9 -6 -6 -6 -6 -7 -5 -7 -3 -3 -3 -4 -4 -1 -3 -3 5 8 11 12 12 14 14 15 15 15 14
-7 -7 -8 -8 -7 -5 -1 -2 -8 -9 -7 -5 -12 -13 -11 -14 -15 -14 -11 -10 -9 -5 -5 -4 -1 -3 -4 -2 -3 -4 -0 -2 -2 -5 6 6 8 12 13 14 14 14 15 15 14
-5 -7 -7 -8 -8 -6 -3 -7 -5 -0 2 3 3 2 -6 -10 -1 -1 -4 -10 -10 -4 -3 -3 -2 -3 -4 -3 1 -1 -2 -3 -3 1 6 7 8 12 13 14 14 15 15 15 15
-6 -6 -7 -8 -8 -6 -6 -5 -4 -2 -4 -3 1 -1 -6 -6 -6 -3 -2 -9 -9 -6 -2 -3 -1 -0 -2 -4 -4 -4 -4 -3 -3 -2 6 7 8 13 13 13 14 15 15 15 14
-11 -12 -11 -10 -8 -5 -6 -5 -3 -3 -2 -6 -7 -7 -8 -7 -4 -6 -1 -8 -6 -4 -5 -4 -1 -3 -3 -4 -4 -5 -4 -4 -5 -4 1 4 7 10 13 13 13 14 15 15 15
-13 -13 -13 -16 -9 -7 -6 -5 -6 -4 -5 -8 -8 -8 -8 -7 -3 -6 -3 -8 -5 -4 -5 -3 -5 -5 -3 -3 -4 -5 -4 -4 -5 -4 2 8 9 9 13 12 12 13 13 14 14
-13 -15 -14 -16 -12 -13 -4 -6 -6 -5 -6 -6 -9 -10 -9 -8 -3 -8 -4 -7 -5 -4 -4 -4 -7 -5 -4 -3 -3 -2 -6 -6 -6 -4 -2 6 11 10 9 13 13 13 13 13 13
-10 -14 -14 -14 -12 -15 -8 -8 -7 -6 2 -4 -9 -11 -10 -10 -11 -7 -9 -3 -3 -4 -4 -3 -4 -5 -3 -4 -4 -3 -6 -5 -4 -4 -2 1 7 7 8 10 11 11 12 13 13
-6 -11 -13 -11 -14 -12 -15 -8 -6 -6 -1 -5 -9 -11 -10 -11 -12 -9 -7 -3 -4 -4 -4 -4 -5 -5 -4 -5 -5 -5 -5 -7 -5 -3 0 -3 2 2 11 8 8 8 10 11 12
-5 -8 -13 -11 -9 -13 -16 -7 -6 -3 -6 -4 -4 -5 -6 -10 -11 -10 -7 -4 -1 0 -0 -2 -3 -7 -6 -4 -4 -5 -6 -2 -3 -2 -1 -5 2 -1 5 7 7 7 8 9 10
-4 -9 -13 -3 -1 -8 -13 -5 -3 -4 -5 -4 -3 -4 -5 -4 -9 -6 -4 -2 -3 -5 -1 0 1 -2 -6 -5 -4 -5 -5 -2 -2 -1 -2 -3 2 0 0 5 6 6 6 7 9
-5 -10 -10 -3 -4 -2 -1 -1 -3 -4 -3 -2 -3 -2 -1 -1 -3 -2 -4 -3 -3 -6 -3 -2 -1 -6 -4 -6 -6 -6 -4 -7 -7 -3 -2 -1 -1 -2 -1 2 5 6 6 7 8
-2 -8 -5 -5 -4 -3 0 1 -1 -3 -4 -3 -0 -1 1 0 -1 -0 -1 -5 -4 -3 -7 -6 -5 -7 -6 -6 -6 -5 -8 -6 -8 -3 -2 -5 -2 -2 -0 -1 4 7 6 7 8
-2 -2 -7 -4 -3 -0 2 1 -1 -3 -4 -3 -2 -1 -0 0 -1 -0 -0 -0 1 1 -2 -5 -7 -6 -8 -6 -4 -6 -5 -7 -8 -7 -4 -4 -5 -7 -2 0 3 6 7 7 7
-1 -1 -6 -5 -3 -3 -1 -1 -2 -2 -2 -2 -2 -2 -0 0 1 -1 -0 0 1 1 3 0 -6 -5 -5 -6 -9 -7 -6 -7 -4 -5 -6 -7 -6 -7 -6 -5 -1 2 3 3 6
-0 0 -4 -2 0 -1 -2 -2 -2 -2 -2 -1 -1 -1 1 1 1 3 3 1 2 2 5 4 2 -3 -6 -8 -7 -6 -5 -7 -7 -7 -4 -4 -5 -8 -6 -5 -1 0 -3 0 5
-0 0 -1 -2 -1 -1 -0 -1 1 -1 -2 -1 -2 1 2 3 1 3 2 2 0 -0 3 1 1 1 -1 -4 -5 -5 -5 -5 -6 -4 -4 -5 -7 -7 -7 -6 -4 4 1 -0 5
-0 -1 -0 -0 -0 -0 -1 -1 1 1 0 -1 -1 1 3 4 4 3 2 3 -0 2 1 1 4 0 0 -0 -1 -5 -5 -6 -5 -5 -4 -6 -8 -9 -7 -6 -7 -9 -2 3 6
-0 1 1 0 -0 -1 -2 -1 1 -2 -2 -0 4 1 -1 2 2 1 2 2 2 1 0 1 4 2 2 -1 -2 -2 -5 -5 -6 -7 -7 -7 -7 -10 -10 -10 -10 -10 -12 -5 -3
0 0 1 0 1 0 -1 -2 -1 -2 -1 -1 -1 -0 -1 0 0 -0 -0 1 0 1 2 2 3 4 4 1 0 -0 -3 -5 -6 -7 -7 -5 -7 -10 -9 -9 -9 -10 -11 -6 -6

GFSSW_850_dewp_024.txt.gz
Dewpoint
-6 -7 -7 -10 -12 -14 -16 -18 -19 -19 -18 -17 -16 -16 -15 -15 -15 -15 -14 -15 -15 -15 1 7 11 12 15 17 18 15 13 13 11 13 11 13 14 14 14 14 14 14 12 13 13
1 -1 -3 -5 -6 -8 -11 -13 -15 -17 -19 -19 -18 -18 -17 -16 -15 -13 -11 -13 -14 -14 1 7 13 16 17 17 17 16 14 12 9 9 13 13 14 14 14 13 14 14 13 13 13
1 0 -0 0 -1 -4 -6 -8 -11 -13 -15 -17 -19 -19 -18 -17 -15 -13 -6 -5 -11 -14 -2 5 13 17 17 15 17 15 16 11 8 7 11 13 13 13 14 14 14 14 13 13 13
-0 -1 -1 -2 -2 -1 -1 -5 -7 -9 -12 -14 -16 -19 -19 -19 -11 -7 -7 -7 -5 -14 -4 10 14 16 13 14 14 12 11 13 9 8 12 13 13 13 13 13 12 13 11 13 13
-2 -2 -2 -3 -3 -3 -2 -1 -3 -6 -8 -12 -14 -16 -19 -18 -14 -10 -7 -8 -5 -8 -5 4 15 13 2 5 10 11 9 7 4 5 11 12 13 13 13 12 12 13 13 13 14
-6 -5 -6 -6 -5 -4 -4 -2 -1 -3 -5 -7 -12 -14 -19 -16 -13 -12 -11 -10 -10 -9 -0 0 10 11 -2 -4 2 -2 3 2 -0 -0 4 12 12 13 13 13 13 13 14 15 13
-6 -7 -7 -7 -7 -7 -5 -3 -2 -1 -4 -6 -12 -15 -17 -17 -14 -12 -12 -12 -9 -14 -2 1 -3 -0 -2 -5 -6 -5 -2 -2 -1 -1 4 10 13 14 13 13 14 14 14 15 14
-7 -7 -7 -8 -8 -8 -5 -3 -1 -1 -5 -10 -12 -15 -16 -17 -17 -16 -4 -12 -12 -9 -12 -4 -2 -3 -5 -4 -4 -4 -3 -1 -3 -1 2 11 14 13 13 14 14 14 14 14 14
-13 -13 -14 -14 -12 -9 -6 -4 -4 -6 -5 -3 -7 -15 -13 -15 -17 -17 -11 -7 -10 -8 -6 -3 -3 -3 -4 -3 -2 -3 -0 -1 -2 -3 4 11 11 11 13 14 14 14 14 14 15
-14 -15 -17 -20 -17 -5 -6 -5 -3 1 4 2 3 -2 -7 -8 -2 -13 -14 -13 -11 -10 -0 -0 -1 -2 -3 -2 -3 -0 -2 -2 -2 -0 6 11 7 10 13 14 14 14 15 15 14
-15 -16 -18 -21 -21 -6 -6 -4 -4 -2 -3 2 3 -1 -6 -9 -2 -3 -1 -11 -10 -5 -2 -3 -0 1 -2 -4 -4 -3 -3 -2 -3 -2 7 7 8 14 13 14 14 14 14 15 14
-16 -15 -16 -21 -21 -10 -4 -5 -3 -2 -1 -5 -5 -4 -4 -2 -5 -2 -2 -8 -7 -4 -3 -3 0 -1 -2 -4 -3 -4 -2 -2 -5 -5 -4 1 7 12 13 14 14 14 14 15 14
-17 -16 -14 -19 -20 -17 -4 -6 -7 -3 -2 -6 -6 -6 -5 -5 -5 -7 -2 -7 -6 -4 -3 -1 -3 -2 -1 -2 -2 -3 -2 -3 -3 -5 -1 6 7 8 13 13 14 14 14 14 14
-16 -13 -13 -15 -16 -18 -7 -8 -11 -3 -5 -5 -8 -9 -7 -7 -5 -6 -4 -6 -5 -5 -4 -4 -5 -3 -2 -1 -3 -1 -5 -5 -5 -5 -3 4 7 9 11 14 13 14 14 14 14
-17 -13 -10 -9 -10 -15 -10 -17 -7 -5 2 -3 -9 -10 -7 -7 -9 -5 -7 -5 -4 -4 -4 -3 -4 -4 -3 -3 -3 -2 -5 -5 -5 -5 -4 -1 5 4 10 15 14 12 13 14 14
-17 -14 -8 -8 -6 -4 -9 -18 -4 -2 2 -4 -10 -10 -9 -10 -11 -6 -6 -3 -5 -4 -5 -4 -5 -5 -5 -5 -4 -4 -5 -6 -4 -3 -0 -2 0 1 10 12 13 12 12 13 13
-14 -12 -7 -3 -4 -2 -5 -10 -5 -1 -5 -3 -3 -4 -5 -7 -10 -7 -5 -3 -2 -0 -1 -3 -3 -6 -6 -4 -5 -4 -3 -0 -1 -0 0 -3 0 -2 2 7 8 11 12 12 13
-13 -10 -6 -3 -5 -5 -8 -5 -2 -4 -5 -4 -3 -3 -3 -2 -3 -2 -6 -3 -2 -3 -1 -0 0 -4 -5 -5 -3 -3 -4 0 1 -0 -1 -3 -1 -2 -4 4 6 6 7 10 11
-10 -12 -6 -5 -4 -6 -0 -2 -3 -4 -3 -2 -2 -1 -0 -1 -2 -2 -3 -3 -2 -5 -1 0 0 -4 -5 -6 -5 -4 -2 -6 -4 -3 -3 -2 -3 -4 -1 -2 5 6 5 6 8
-5 -7 -6 -4 -4 -4 0 1 -1 -3 -3 -3 0 -1 1 0 -0 -1 -1 2 2 1 -2 -4 -0 -5 -3 -5 -6 -6 -6 -3 -5 -0 -0 -2 -3 -0 -0 0 2 6 6 6 6
-4 -3 -5 -6 -3 -1 -1 0 -1 -2 -2 -2 -2 -1 -0 0 -1 -2 -0 3 2 2 1 1 -7 -5 -5 -3 -2 -4 -5 -6 -5 -4 -1 -2 -2 -5 -3 -0 -2 2 4 4 6
-0 -2 -4 -2 -3 -3 -2 -2 -2 -0 -2 -2 -2 1 1 1 0 -1 3 4 0 2 5 4 -1 -2 -4 -8 -6 -4 -4 -6 -2 -2 -6 -4 -4 -7 -7 -7 -1 -1 0 2 -0
-0 -0 -3 -3 -1 -1 -1 -3 -3 0 0 -1 -1 -0 1 1 0 3 2 2 -0 0 5 3 2 -2 -6 -7 -7 -6 -4 -6 -6 -5 -3 -3 -3 -9 -8 -7 -8 -4 -2 0 0
-0 -1 -2 -2 -1 -0 0 -1 -1 -2 1 1 -0 1 2 3 2 3 3 2 0 2 3 1 1 1 1 0 -0 -1 -3 -6 -5 -3 -3 -4 -4 -6 -7 -5 -6 -5 -6 -6 -6
0 -2 -0 -1 -2 -1 -2 -1 1 0 -2 1 3 2 0 3 2 2 0 1 -0 1 -0 1 3 2 1 1 0 0 -1 -2 -4 -5 -3 -4 -4 -4 -6 -5 -6 -11 -8 -4 -3
-1 1 0 0 -0 -1 -2 -2 -1 -2 -2 -1 3 3 -0 1 1 2 1 2 2 1 -0 0 2 2 3 1 0 1 -0 -1 -2 -5 -4 -5 -5 -8 -8 -9 -7 -9 -9 -8 -7
0 0 1 1 -0 0 -1 -1 -2 -2 -2 -1 -0 -0 -0 -1 -0 -1 -1 -1 0 1 1 1 3 3 4 2 1 1 -3 -3 -4 -5 -6 -4 -5 -8 -8 -6 -7 -10 -11 -10 -11

GFSSW_850_dewp_030.txt.gz
Dewpoint
3 3 3 2 1 1 1 0 -3 -7 -10 -13 -16 -17 -17 -16 -16 -16 -13 -11 -12 -14 -8 12 15 15 15 15 15 15 13 11 10 10 11 12 12 12 12 13 12 13 13 15 16
-2 -2 -2 -2 -2 -2 -1 0 -0 -1 -6 -9 -12 -14 -16 -17 -16 -15 -11 -11 -12 -14 6 11 14 14 14 13 14 14 12 9 7 6 7 11 11 12 12 12 12 13 14 15 16
-6 -6 -6 -6 -6 -6 -5 -4 -2 -1 -1 -4 -8 -11 -14 -16 -11 -11 -11 -8 -11 -12 5 10 11 12 10 11 13 12 11 7 6 6 7 11 11 12 11 11 11 13 15 15 15
-13 -14 -14 -14 -13 -11 -9 -7 -5 -3 -0 -1 -4 -8 -11 -14 -9 -5 -7 -6 -8 -4 4 7 10 10 9 11 11 12 9 8 6 5 6 9 11 11 11 9 11 13 14 15 15
-16 -17 -18 -19 -20 -20 -18 -16 -10 -5 -2 -1 -1 -5 -7 -4 -10 -13 -7 -7 -7 3 4 6 10 8 7 8 9 11 7 6 7 6 4 4 9 10 11 11 11 13 14 14 14
-18 -18 -20 -21 -21 -22 -23 -10 -6 -4 -3 -2 -1 -2 -5 -6 -14 -14 -13 -11 1 5 4 5 8 7 6 7 8 4 7 5 2 -0 0 0 7 9 10 11 12 13 13 13 14
-23 -24 -25 -26 -25 -23 -23 -8 -5 -4 -2 -1 -1 -2 -0 -5 -13 -13 2 5 8 7 4 5 6 8 3 3 -0 3 -2 -4 -4 -3 -2 -0 5 8 8 12 13 13 13 13 13
-24 -26 -28 -27 -29 -26 -17 -9 -5 -4 -3 -2 -2 -3 -1 -6 -7 -10 2 7 9 7 4 5 5 7 2 -3 -4 -2 -3 -0 -1 -4 -3 -2 4 4 8 12 13 13 12 13 13
-22 -25 -27 -27 -29 -28 -17 -9 -5 -3 -2 -2 -2 2 -3 -8 -10 -10 3 5 9 7 6 4 5 3 3 2 -2 -3 1 2 1 -3 -1 -0 3 2 7 10 12 13 12 12 13
-21 -22 -25 -26 -28 -24 -17 -8 -4 -3 1 4 4 2 -2 -6 -6 -12 -5 -2 8 5 2 2 -0 -2 0 -1 1 -0 -1 1 2 -0 -2 1 3 2 8 9 10 12 12 13 13
-19 -20 -23 -25 -27 -16 -21 -2 0 4 -2 3 3 -1 -1 -4 -1 -9 -11 -0 3 4 -1 -3 -2 -2 -6 -4 -4 -3 -2 -0 -1 -2 -2 1 1 1 5 9 9 12 12 12 13
-16 -18 -23 -24 -24 -21 -8 -4 -3 -2 -3 -5 -5 -2 1 1 -1 -5 -11 -3 -2 2 -2 -3 -2 -5 -7 -7 -5 -4 -3 -2 -2 -3 -2 1 2 1 3 9 9 11 12 12 13
-15 -18 -23 -23 -20 -7 -1 -2 -1 -1 -2 -5 -5 -5 -4 -3 -3 -4 -8 -7 -4 -2 -4 -4 -5 -7 -6 -5 -5 -5 -3 -3 -2 -3 -3 -2 0 0 0 7 9 10 11 12 12
-14 -18 -19 -21 -6 -6 -4 -3 -1 -2 -1 -9 -6 -5 -5 -4 -4 -3 -10 -9 -7 -4 -6 -6 -7 -6 -6 -5 -6 -4 -7 -6 -5 -3 0 -2 3 2 1 5 7 8 10 11 12
-13 -17 -18 -13 -8 -3 -3 -2 -3 0 -7 -5 -7 -7 -6 -4 -5 -5 -4 -11 -10 -7 -7 -6 -7 -5 -4 -5 -6 -6 -10 -7 -6 -5 -2 -1 1 1 0 2 3 5 8 10 11
-11 -14 -15 -5 -2 -4 -4 -4 0 -2 -7 -5 -9 -8 -7 -5 -7 -5 -4 -9 -10 -9 -8 -7 -8 -7 -5 -6 -6 -7 -7 -6 -5 -6 -2 -2 -0 1 0 3 1 3 6 9 11
-10 -12 -9 -8 -4 -6 -7 -2 -5 -6 -9 -2 -3 -5 -5 -7 -5 -6 -3 -2 -1 -2 -3 -6 -6 -7 -8 -4 -5 -5 -4 -2 -2 -3 -3 -4 -1 -0 -2 -2 0 1 2 8 10
-11 -14 -6 -5 -5 -8 -3 -5 -7 -7 -1 -3 -3 -4 -3 -4 -5 -7 -4 -2 -3 -3 -4 -3 -3 -6 -7 -5 -3 -3 -4 -5 -1 -6 -7 -6 -2 -3 -4 -4 -3 -1 -1 5 9
-11 -4 -4 -5 -7 -4 -4 -8 -9 -0 -2 -2 -3 -2 -2 -3 -3 -4 -5 -4 -3 -3 -1 -2 -2 -8 -7 -6 -6 -2 -2 -8 -8 -6 -6 -9 -7 -7 -5 -4 -3 -3 -2 -1 6
-8 -4 -5 -5 -5 -3 -6 -5 -3 -4 -4 -3 -1 -2 1 -0 -1 -2 -4 -0 -2 -4 -1 -1 -1 -6 -7 -7 -7 -5 -6 -4 -6 -1 -1 -8 -6 -6 -4 -3 -3 -3 -2 -1 5
-2 -5 -5 -5 -5 -9 -8 -6 -6 -7 -5 -3 -2 -1 -1 0 -0 -1 1 0 -1 -1 1 -1 -1 -2 -5 -4 -4 -5 -4 -5 -6 -6 -4 -4 -7 -8 -5 -3 -3 -3 -2 -1 3
-2 -8 -4 -4 -8 -7 -7 -5 -6 -7 -6 -5 -3 -4 -2 -0 0 1 3 2 -1 -0 1 -1 -0 1 -2 -6 -7 -6 -4 -4 -3 0 -4 -4 -7 -9 -9 -8 -4 -5 -3 -1 1
-2 -3 -4 -5 -5 -5 -6 -6 -6 -6 -5 -4 -1 -1 -2 -0 1 1 1 -1 -2 -0 3 1 0 2 0 -2 -4 -4 -5 -5 -5 -5 1 -2 -6 -7 -6 -5 -3 -2 -2 -2 -1
-1 -4 -6 -5 -4 -5 -4 -5 -5 -6 -5 -6 1 1 1 -2 -3 0 -0 -2 -4 -3 0 1 1 2 1 0 -2 -1 -3 -4 -4 -1 -3 -2 -4 -6 -6 -4 -6 -6 -4 -3 0
-1 -4 -2 -3 -4 -3 -4 -4 -5 -4 -5 -6 1 3 4 2 -0 -2 -1 -2 -3 -2 -3 -2 3 2 2 1 -0 -1 -2 -3 -2 -2 -1 -3 -3 -3 -5 -5 -5 -5 -4 -3 -2
-2 -1 -1 -1 -3 -3 -4 -3 -4 -3 -4 -4 -3 -3 -1 3 2 4 -0 -1 -2 -2 -2 -3 2 1 2 -1 -1 -0 -1 -1 -2 -2 -2 -2 -2 -5 -5 -4 -4 -4 -4 -4 -5
1 1 1 1 -1 -2 -4 -4 -4 -4 -4 -3 -4 -3 -4 -2 -2 -2 -2 -4 -4 -2 -1 -1 -2 1 2 -1 -1 2 0 -1 -1 -2 -1 1 -1 -3 -3 -3 -3 -4 -5 -6 -4

GFSSW_850_dewp_033.txt.gz
Dewpoint
-5 -5 -5 -5 -4 -4 -3 -3 0 0 -0 -4 -10 -13 -15 -16 -16 -15 -13 -7 -8 -11 -6 9 11 13 13 13 13 13 14 13 7 9 8 7 7 9 10 12 12 12 14 15 15
-12 -12 -13 -12 -11 -10 -8 -7 -5 -3 0 -1 -4 -9 -12 -14 -15 -7 -9 -9 -10 -12 2 8 11 12 12 11 11 11 17 15 5 4 8 7 6 8 9 10 11 12 14 15 15
-17 -18 -19 -20 -20 -20 -20 -18 -12 -9 -5 -0 -1 -4 -8 -11 -3 -7 -8 -9 -10 -12 0 7 9 11 10 8 9 9 15 14 5 4 7 7 7 7 8 10 11 13 15 15 15
-21 -23 -24 -23 -22 -21 -22 -23 -24 -18 -9 -5 -1 -1 -5 -10 -5 1 -10 -8 -10 -9 -1 5 7 10 8 8 8 9 8 10 5 4 5 6 7 7 7 6 10 13 14 14 14
-26 -26 -27 -28 -29 -29 -27 -25 -23 -7 -5 -5 -3 -2 -3 -0 -7 -7 -10 -7 -5 -1 -2 4 6 8 8 5 6 8 7 6 6 5 3 5 7 9 8 7 9 12 14 14 14
-26 -27 -28 -28 -29 -30 -30 -29 -23 -9 -4 -3 -3 -2 -2 -1 -7 -11 -5 -8 -2 3 -3 2 4 6 6 5 6 6 6 6 5 4 2 2 6 7 9 9 10 12 13 14 14
-26 -26 -27 -27 -28 -29 -30 -30 -20 -10 -4 -2 -2 -3 2 -0 -7 -14 -2 -0 1 2 -3 -1 1 5 5 5 4 5 4 5 5 2 0 1 4 7 8 10 11 11 12 13 13
-23 -24 -25 -26 -28 -29 -29 -24 -17 -12 -6 -3 -2 -2 3 -1 -1 -9 -3 1 2 3 -1 -2 -0 3 5 3 1 5 4 4 1 -0 -1 -0 4 4 6 10 11 11 11 12 12
-21 -23 -25 -27 -28 -29 -22 -19 -16 -8 -5 -2 0 5 2 -2 -4 -4 -5 2 4 4 3 0 1 3 4 4 1 -1 3 3 1 -1 -1 -0 2 2 5 8 10 11 11 11 12
-21 -23 -25 -27 -27 -26 -26 -11 -5 -0 6 6 6 4 1 -3 -4 -7 -6 0 4 5 4 3 3 3 4 6 5 1 1 1 3 1 -1 0 1 2 4 6 8 11 11 11 11
-20 -22 -25 -26 -25 -21 -7 -6 -1 5 5 3 2 0 -1 -3 -5 -9 -2 0 4 4 5 3 4 6 1 4 2 -0 -2 -0 0 -1 1 1 2 1 2 5 7 10 11 11 11
-18 -21 -23 -24 -14 -7 -5 -4 -2 -2 -3 -6 -8 -8 -2 -2 -2 -9 -6 -3 4 5 0 1 4 -1 -5 -5 -0 0 -1 -1 -1 -1 1 1 2 0 1 4 6 8 10 11 11
-17 -19 -22 -23 -8 -7 -4 -5 -5 -3 -4 -9 -10 -10 -10 -1 -1 -3 -11 -4 2 4 -1 -3 -4 -6 -8 -8 -5 -4 -2 -2 -2 -1 -1 0 2 1 -0 1 5 7 10 10 11
-12 -15 -19 -22 -9 -6 -7 -7 -6 -3 -2 -11 -8 -8 -9 -7 -2 -3 -11 -7 -2 2 2 -3 -7 -7 -7 -7 -8 -7 -7 -5 -4 -2 2 -1 3 2 1 0 5 6 9 9 10
-11 -15 -17 -8 -2 -4 -7 -9 -6 -3 -4 -10 -8 -6 -7 -8 -7 -4 -5 -12 -5 -3 -2 -1 -5 -7 -6 -7 -8 -7 -9 -8 -5 -3 -2 -1 2 1 -0 1 2 5 7 8 9
-13 -15 -17 -6 -6 -8 -8 -8 -5 -1 -5 -7 -9 -7 -6 -7 -6 -5 -5 -11 -8 -7 -6 -4 -9 -8 -7 -8 -9 -9 -9 -9 -8 -7 -1 -2 -1 1 -1 0 0 2 3 6 8
-13 -12 -10 -4 -7 -8 -7 -8 -6 -6 -12 -3 -3 -5 -7 -5 -5 -5 -3 -7 -5 -3 -4 -5 -6 -9 -9 -6 -8 -7 -6 -4 -5 -4 -3 -5 -2 -1 -2 -3 -2 -0 1 3 6
-13 -5 -2 -6 -9 -8 -7 -8 -6 -11 -3 -4 -4 -4 -3 -4 -5 -5 -2 -1 -7 -7 -6 -3 -3 -7 -8 -7 -5 -5 -7 -5 -0 -4 -6 -7 -3 -3 -4 -5 -4 -2 -1 1 4
-10 -5 -6 -9 -8 -8 -7 -8 -10 -4 -4 -4 -4 -3 -4 -4 -3 -5 -4 -2 -3 -8 -3 -2 -2 -7 -8 -8 -6 -4 -4 -9 -7 -8 -8 -9 -8 -9 -7 -5 -4 -3 -2 0 3
-1 -5 -6 -9 -7 -7 -7 -8 -8 -8 -9 -8 -4 -3 1 -0 -1 -2 -4 -5 -3 -5 -4 -2 0 -5 -7 -8 -8 -5 -7 -5 -6 -1 -2 -6 -6 -6 -4 -4 -4 -2 -2 -2 0
-2 -8 -6 -8 -7 -9 -10 -10 -9 -11 -11 -8 -7 -5 -2 1 1 0 -1 -1 -1 -2 -3 -3 -1 -1 -5 -5 -4 -5 -4 -5 -7 -7 -4 -2 -5 -9 -6 -4 -4 -3 -3 -2 -2
-4 -6 -6 -7 -8 -11 -10 -9 -9 -11 -11 -9 -8 -6 -5 -2 2 2 2 2 -3 -1 0 -2 0 2 -3 -7 -7 -6 -5 -3 -3 0 -6 -5 -4 -9 -9 -8 -5 -4 -4 -4 -2
-2 -6 -7 -7 -7 -8 -9 -10 -9 -9 -10 -8 -8 -3 -1 1 4 5 3 0 -3 -1 2 1 2 4 2 -4 -5 -5 -6 -5 -5 -6 -0 -3 -4 -6 -5 -6 -6 -5 -4 -3 -1
-2 -5 -7 -8 -8 -8 -7 -7 -7 -5 -8 -9 -5 -4 -1 -1 -3 1 3 0 -3 -3 -1 1 2 3 3 0 -3 -2 -5 -6 -5 -2 -3 -3 -4 -4 -4 -3 -2 -3 -4 -2 -0
-1 -3 -3 -4 -6 -6 -6 -7 -5 -4 -8 -9 -4 -2 -2 0 1 5 3 0 -3 -2 -1 -1 5 3 1 -1 -1 -3 -4 -5 -4 -3 -2 -4 -3 -4 -3 -4 -5 -4 -3 -2 0
2 -1 -2 -2 -4 -3 -5 -4 -4 -7 -7 -7 -6 -5 -5 -1 -1 -0 3 1 1 -1 -1 -2 2 2 3 -0 1 0 -1 -4 -5 -4 -4 -4 -4 -5 -5 -6 -5 -4 -4 -3 -3
2 2 2 -1 -3 -4 -3 -5 -6 -7 -7 -5 -4 -6 -6 -5 -4 -5 -4 -4 -4 -2 -2 -0 1 4 5 2 2 3 0 -1 -3 -4 -4 -1 -3 -5 -4 -3 -3 -3 -3 -3 -3

GFSSW_850_dewp_036.txt.gz
Dewpoint
-18 -18 -19 -19 -20 -20 -20 -17 -13 -9 -6 -1 -0 -4 -9 -13 -14 -15 -14 -10 -7 -9 -11 6 4 10 13 14 12 13 16 17 14 10 8 6 8 10 11 12 12 14 15 15 16
-23 -24 -25 -26 -25 -24 -23 -22 -23 -23 -19 -12 -3 -0 -3 -9 -12 -14 -10 -9 -8 -7 -8 5 5 9 12 12 11 11 17 15 12 11 11 6 7 8 9 10 13 14 15 15 15
-27 -28 -29 -29 -29 -30 -30 -30 -27 -24 -21 -13 -7 -3 -1 -6 -4 -7 -8 -8 -9 -9 -3 3 5 9 10 10 9 10 13 10 9 9 7 6 5 7 8 10 13 15 15 15 15
-28 -28 -28 -28 -28 -29 -30 -30 -30 -28 -19 -8 -6 -5 -2 -4 -0 0 -7 -8 -8 -10 -1 1 5 8 10 9 8 10 12 11 9 8 7 9 8 5 7 9 13 14 14 15 15
-25 -26 -26 -27 -28 -29 -29 -30 -30 -29 -18 -8 -4 -4 -3 2 -3 -6 -8 -7 -8 -7 -0 -0 4 6 10 8 6 7 12 10 9 7 9 8 11 9 7 10 12 14 14 14 15
-24 -25 -26 -27 -28 -29 -30 -30 -30 -25 -17 -8 -3 -2 -3 2 -1 -2 -3 -9 -6 -4 -1 -2 2 4 8 7 6 6 8 8 8 5 3 4 10 9 6 8 11 13 14 14 14
-23 -25 -26 -28 -29 -29 -29 -27 -25 -21 -18 -12 -4 -1 2 1 -2 -10 -5 -1 -2 -1 -3 -4 -0 3 6 7 5 4 6 6 6 4 3 1 4 8 9 9 10 12 13 13 13
-22 -23 -25 -27 -28 -29 -29 -26 -28 -13 -7 -9 -3 -2 3 1 -2 -4 -13 -7 -2 -1 -1 -5 -3 1 3 5 4 5 6 7 5 4 2 -0 3 4 9 9 10 11 12 13 13
-21 -23 -24 -26 -27 -24 -23 -9 -7 -6 -0 -3 2 4 3 0 1 -1 -6 -4 -2 0 -0 -3 -4 -2 1 5 7 5 7 7 6 4 2 0 2 3 8 9 10 11 11 12 13
-20 -21 -23 -25 -23 -12 -9 -8 -5 -1 7 4 6 6 3 -0 -2 -1 -2 -6 -2 1 1 -1 -2 -2 -0 4 9 6 4 5 5 2 1 1 0 2 4 8 10 11 11 11 12
-19 -20 -22 -24 -14 -8 -5 -7 -8 4 -5 2 3 0 -1 -0 -4 -5 -3 -6 -0 2 3 2 2 2 1 3 4 3 0 1 1 1 1 1 0 4 4 9 9 10 11 11 11
-19 -20 -21 -24 -12 -7 -6 -8 -9 -7 -6 -7 -7 -6 -3 -1 -2 -5 -5 -6 -1 4 3 3 4 1 -1 1 3 4 3 -1 -2 -2 1 2 1 1 3 7 7 9 11 11 10
-18 -20 -21 -23 -10 -6 -8 -10 -10 -8 -7 -9 -10 -10 -12 -8 -3 -3 -8 -5 -1 4 4 4 3 1 1 1 0 4 4 1 -1 -3 0 2 3 3 1 3 4 8 9 10 11
-16 -18 -20 -22 -9 -3 -9 -11 -11 -9 -6 -10 -12 -12 -12 -14 -8 -3 -8 -2 -1 3 4 3 0 1 1 1 -1 -0 0 -1 -1 -2 2 3 5 5 1 1 4 5 8 9 11
-14 -16 -19 -5 -8 -4 -10 -11 -11 -8 -3 -11 -11 -7 -11 -14 -11 -7 -4 -6 -1 -2 3 4 -1 -2 -0 -1 -7 -6 -7 -3 -4 -2 -2 -1 2 2 2 2 3 5 7 9 10
-13 -14 -13 -4 -4 -6 -11 -11 -10 -5 -5 -6 -7 -5 -8 -11 -13 -10 -4 -6 -6 -3 -0 3 -2 -6 -7 -7 -9 -10 -9 -9 -8 -5 1 -1 0 3 2 3 2 3 4 8 9
-13 -13 -7 -5 -5 -10 -11 -10 -10 -7 -13 -5 -4 -5 -4 -4 -9 -10 -3 -2 -5 -1 1 1 1 -2 -7 -7 -8 -8 -8 -4 -3 -2 -2 -3 -1 1 -2 -0 1 1 4 7 8
-9 -8 -5 -3 -9 -10 -10 -10 -6 -11 -9 -7 -7 -7 -4 -4 -4 -7 -5 -1 -6 -7 -3 -0 -0 -2 -7 -6 -6 -7 -7 -4 1 -2 -5 -5 -1 -1 -3 -4 -5 -2 2 4 7
-6 -1 -3 -6 -8 -9 -9 -7 -8 -6 -7 -8 -9 -6 -3 -3 -1 -2 -4 -2 -3 -8 -2 -2 -1 -6 -6 -9 -8 -6 -5 -9 -7 -7 -7 -8 -7 -8 -5 -4 -4 -5 -2 2 4
-2 -1 -1 -6 -9 -8 -8 -7 -11 -11 -11 -12 -9 -10 -5 -5 -2 1 1 -5 -3 -7 -8 -3 -1 -5 -6 -8 -9 -7 -7 -5 -5 1 1 -4 -1 -3 -2 -2 -2 -2 -3 -1 2
-0 -5 -6 -6 -8 -8 -7 -12 -10 -13 -13 -13 -12 -11 -10 3 1 2 2 3 -1 -2 -5 -6 -3 -3 -5 -5 -5 -6 -4 -5 -7 -6 -2 -0 -5 -4 0 -1 -1 -2 -3 -1 1
1 -2 -6 -8 -8 -11 -11 -10 -11 -9 -7 -11 -10 -11 -4 1 1 4 6 6 3 -2 0 -2 -5 -0 -0 -5 -7 -7 -4 -3 -1 2 -4 -2 -4 -6 -4 -3 -3 -3 -3 -2 -0
1 -2 -6 -8 -6 -8 -10 -11 -12 -6 -6 -4 -8 -10 -7 -4 1 5 6 4 1 -0 1 1 2 3 2 -1 -5 -4 -6 -5 -4 -5 2 -1 -4 -5 -5 -6 -3 -3 -3 -2 -0
2 -1 -2 -6 -7 -6 -7 -9 -8 -8 -4 -2 -4 -9 -7 -4 -4 5 4 3 1 -0 1 0 3 3 3 3 -1 -1 -5 -5 -5 -1 -1 -3 -2 -3 -4 -4 -3 -2 -3 -2 -0
-0 -0 -0 -1 -3 -4 -7 -7 -4 -3 -1 -5 -8 -2 -2 -3 -2 1 3 0 1 1 -1 0 5 3 1 0 -2 -4 -4 -5 -3 -2 0 -3 -3 -0 1 -0 -1 -2 -2 -1 1
2 3 3 1 -2 -3 -3 -6 -3 -7 -10 -6 -5 -5 -6 -7 -5 -1 -0 0 4 -0 -1 -1 4 3 5 2 1 2 -4 -5 -5 -5 -4 -4 -4 -2 -2 -2 -1 -1 -1 1 1
2 2 2 2 -1 -1 -1 -2 -5 -8 -7 -7 -8 -8 -7 -8 -6 -7 -7 -6 -4 -3 -2 -1 2 4 5 3 3 4 1 -3 -4 -6 -5 -2 -2 -1 0 1 0 -2 -2 -2 -1

GFSSW_850_dewp_039.txt.gz
Dewpoint
-28 -29 -29 -29 -29 -29 -30 -30 -30 -29 -25 -23 -14 -2 -0 -4 -9 -12 -13 -11 -12 -11 -0 4 -1 10 14 16 16 15 17 18 16 14 12 10 12 13 14 15 15 15 16 15 15
-28 -28 -28 -28 -28 -29 -29 -30 -30 -30 -29 -24 -11 -8 -1 -1 -4 -9 -15 -13 -11 -9 -7 -2 5 5 11 15 15 15 17 16 15 12 11 10 11 12 14 15 15 16 16 15 14
-26 -26 -26 -27 -28 -29 -29 -29 -30 -30 -30 -25 -13 -7 -5 -1 -4 -11 -8 -12 -11 -9 -7 -8 4 4 8 11 12 13 15 12 12 10 10 10 9 10 14 16 15 16 16 16 15
-25 -26 -27 -28 -29 -29 -30 -30 -30 -30 -29 -22 -11 -5 -5 -2 0 -1 -6 -8 -10 -8 -8 -5 1 4 7 11 11 11 11 10 10 9 10 10 9 9 14 15 15 16 16 15 15
-24 -25 -26 -28 -28 -29 -29 -30 -29 -26 -23 -21 -12 -3 -4 -1 -2 -2 -8 -9 -7 -8 -8 -4 -1 4 6 9 9 9 11 10 9 9 9 10 10 12 14 15 15 15 15 15 15
-24 -25 -26 -28 -29 -29 -29 -27 -21 -23 -24 -14 -15 -3 -2 4 -2 -2 -7 -6 -9 -7 -8 -4 0 2 6 8 9 8 8 10 10 9 9 9 9 10 14 15 15 15 15 15 15
-24 -25 -27 -28 -29 -26 -23 -15 -8 -8 -8 -6 -9 -4 2 -5 -2 -1 -2 -3 -7 -9 -7 -4 -1 -0 4 6 8 8 8 10 9 9 8 8 10 8 14 14 14 15 15 15 15
-23 -24 -25 -27 -27 -21 -8 -7 -8 -8 -5 -3 -4 -0 2 -13 -1 -1 1 -2 -3 -4 -7 -5 -2 -2 -2 3 6 7 7 9 9 7 6 8 12 11 13 14 14 14 15 15 15
-21 -23 -24 -26 -26 -12 -7 -9 -10 -9 -1 3 3 3 5 -0 0 -3 -4 -3 -2 -2 -1 -3 -3 -3 -3 3 6 7 9 7 8 5 5 2 5 11 11 12 14 14 14 14 15
-19 -20 -22 -25 -24 -9 -6 -9 -11 3 -0 5 6 7 -2 -4 -1 -0 -6 -10 -7 -2 -1 -2 -1 -3 -3 2 7 9 8 6 7 6 5 4 2 11 11 13 13 14 14 14 14
-17 -18 -21 -24 -19 -7 -6 -9 -11 -4 -8 -10 -8 -2 -3 0 0 -0 -1 -1 -7 -2 1 0 1 1 -2 -1 1 6 7 5 3 4 5 5 2 11 13 14 15 13 13 14 13
-15 -17 -19 -22 -19 -8 -4 -10 -11 -11 -11 -11 -10 -9 -9 -3 -4 -2 -1 -2 -7 -1 -0 2 3 -0 -2 -2 -1 3 6 6 1 0 3 3 3 2 12 13 12 12 12 13 13
-13 -14 -17 -20 -15 -7 -5 -10 -12 -11 -11 -10 -11 -11 -10 -11 -8 -4 -3 -3 -6 -1 2 4 3 1 1 -1 -1 2 5 5 4 -0 -1 2 3 3 11 11 13 15 12 13 12
-8 -13 -15 -18 -15 -8 -5 -10 -12 -11 -6 -8 -11 -10 -9 -11 -10 -6 -3 -5 -4 -2 2 3 2 3 3 1 -0 3 2 3 4 4 3 2 7 5 7 10 13 14 14 13 11
-8 -9 -15 -11 -9 -4 -8 -11 -11 -10 -1 -7 -7 -7 -9 -12 -15 -13 -4 -5 -3 -3 1 4 4 4 3 3 0 2 -1 1 3 4 2 2 6 5 4 8 10 12 12 12 11
-5 -8 -12 -9 -6 -8 -9 -10 -10 -6 -2 -11 -9 -9 -10 -9 -7 -9 -8 -5 -7 -4 -1 1 3 2 3 1 1 0 0 -3 1 1 2 -0 4 5 5 3 5 8 10 11 11
-6 -6 -7 -7 -8 -8 -10 -9 -6 -6 -12 -8 -8 -11 -10 -7 -4 -4 -4 -7 -3 -2 2 -0 1 2 -2 1 -0 -0 -3 -2 -1 1 1 -3 0 0 2 2 3 4 8 10 11
-6 -5 -5 -3 -6 -6 -10 -7 -3 -9 -8 -11 -10 -12 -10 -9 -7 -5 -2 -3 -4 -4 -0 3 3 2 -0 -3 -2 -2 -4 -2 0 -1 -3 -4 -3 -2 -3 -2 -1 2 6 9 11
-6 -3 -3 -2 -5 -7 -8 -3 -6 -9 -11 -10 -11 -10 -11 -10 -6 -4 -2 2 1 -2 -3 -0 1 0 1 -3 -5 -4 -4 -7 -5 -3 -2 -4 -6 -7 -8 -5 -6 -3 2 9 10
-7 0 -3 -6 -7 -8 -5 -3 -7 -12 -13 -11 -7 -11 -10 -6 -4 -3 1 1 5 4 1 -5 -2 -2 -1 -0 -3 -5 -7 -4 -6 -1 -0 -3 -4 -4 -7 -7 -5 -5 -4 7 9
-4 1 -4 -5 -8 -8 -4 -6 -9 -10 -9 -8 -5 -6 -9 -3 -2 -3 -0 -0 4 4 3 2 -1 -5 -3 -1 -0 -5 -4 -6 -5 -3 0 3 0 -6 -6 -7 -5 -4 -4 4 8
0 1 -3 -4 -6 -7 -7 -8 -11 -12 -8 -7 -6 -6 -8 -8 -2 -2 -0 3 3 3 3 1 3 -2 -4 -4 -5 -4 -7 -5 -4 -2 -3 -3 -2 -1 -1 -6 -7 -5 -5 -1 6
2 1 -2 -4 -4 -4 -5 -8 -9 -9 -5 -5 -6 -8 -8 -4 0 3 3 0 2 1 2 4 4 5 -1 -3 -5 -4 -7 -7 -4 -1 -0 -1 -0 -1 0 -5 -5 -1 -4 -5 3
3 -1 -0 -1 -3 -3 -2 -4 -6 -8 -5 -3 -4 -3 -4 -3 -1 4 3 2 1 0 3 2 4 4 4 -1 -2 -0 -4 -6 -4 -2 -2 -1 -1 -1 1 -1 2 -2 -3 -3 1
-1 -0 2 2 1 0 -2 -3 -1 -4 -5 -6 -5 -6 -1 -1 -2 -0 1 -1 -2 2 2 -0 3 3 4 2 1 0 -4 -5 -4 -4 -1 -3 1 2 1 3 4 -0 -0 1 0
0 2 1 2 1 -0 -1 -1 -1 -3 -3 -6 -6 -7 -4 -1 1 -1 -3 -3 -0 0 1 -2 3 4 6 3 3 4 2 -4 -5 -5 -4 -2 -3 2 2 3 3 3 1 1 2
1 2 2 2 1 0 1 0 1 -1 0 -0 -6 -7 -7 -5 -3 -3 -6 -7 -7 -1 0 -2 -0 3 7 4 4 7 4 1 -4 -5 -4 -1 -2 1 2 4 2 1 -1 -1 -2

GFSSW_850_dewp_042.txt.gz
Dewpoint
-25 -26 -26 -27 -28 -28 -29 -29 -29 -30 -30 -30 -26 -13 -9 -1 -1 -4 -11 -13 -11 -8 -3 -6 9 10 15 17 16 14 15 18 16 16 14 14 15 15 15 15 15 15 13 12 11
-25 -25 -26 -27 -28 -28 -29 -29 -29 -28 -29 -30 -28 -17 -9 -6 -1 -1 -10 -13 -13 -11 -6 -5 6 14 16 16 16 16 17 16 14 13 14 13 14 15 15 15 15 14 12 12 9
-25 -25 -26 -27 -28 -28 -28 -28 -28 -28 -25 -25 -24 -15 -7 -6 -2 -3 -5 -13 -14 -11 -9 -3 -3 8 8 14 15 16 16 14 12 13 11 10 15 15 15 16 15 15 15 15 12
-26 -26 -27 -28 -28 -28 -27 -25 -20 -10 -13 -25 -19 -16 -4 -6 1 -4 -8 -7 -14 -10 -8 -3 6 4 5 10 12 14 15 13 11 11 12 10 11 15 15 15 15 14 15 15 13
-26 -26 -27 -28 -28 -26 -22 -15 -10 -8 -8 -10 -14 -13 -2 -5 -6 -2 -7 -7 -12 -7 -7 -7 -1 1 5 7 9 11 11 12 11 10 9 9 10 14 15 15 15 15 15 15 14
-23 -24 -25 -26 -27 -25 -12 -8 -5 -6 -9 -7 -7 -4 -2 1 -7 -2 -2 -5 -9 -9 -7 -7 -1 2 3 4 9 10 10 10 9 8 9 9 11 14 15 16 15 15 15 15 15
-20 -21 -23 -24 -26 -23 -9 -10 -11 -12 -9 -8 -5 -1 -0 -20 -9 -0 -1 -3 -8 -8 -8 -9 0 1 1 6 5 7 10 10 9 8 9 9 11 16 15 15 15 16 15 15 15
-18 -20 -21 -23 -25 -19 -8 -8 -11 -3 -1 2 2 2 -3 -23 -8 -4 -0 -0 -2 -6 -8 -10 -4 -1 -0 0 -1 6 8 12 10 9 9 9 13 15 15 15 15 15 15 15 15
-15 -17 -19 -21 -24 -10 -7 -8 -12 -2 -5 -8 5 6 1 -8 -2 -2 -1 1 0 -5 -7 -8 -6 -3 -2 -2 0 4 8 9 11 9 9 9 12 15 15 15 15 15 15 15 15
-10 -12 -13 -17 -22 -14 -6 -7 -17 -10 0 -6 6 6 -5 -5 -0 0 0 1 0 -2 -3 -5 -5 -2 -2 0 4 6 9 8 8 6 9 10 13 15 15 15 15 15 14 15 15
-8 -10 -12 -15 -21 -12 -5 -11 -11 -12 -12 -12 -12 -5 -10 -13 -7 -1 0 -1 1 -1 0 -1 -0 1 -1 -2 -0 4 6 8 6 4 5 8 13 15 14 14 15 15 15 15 15
-7 -8 -10 -14 -19 -9 -5 -9 -10 -11 -11 -13 -11 -11 -11 -12 -10 -6 -1 -2 -1 0 -1 2 2 -1 -0 -3 -1 1 2 7 6 5 3 5 13 13 13 14 14 15 15 15 15
-7 -6 -8 -12 -16 -14 -10 -12 -11 -10 -11 -11 -10 -10 -10 -10 -10 -10 -5 -1 -1 -1 -1 2 2 0 0 -0 -1 0 1 2 7 5 2 4 10 13 12 13 13 14 14 14 14
-9 -7 -7 -10 -14 -9 -11 -11 -10 -9 -7 -7 -9 -9 -11 -10 -10 -8 -12 -4 -2 -3 -3 -0 -0 1 2 1 -2 0 -2 -0 3 5 8 1 8 14 14 14 13 13 14 14 14
-17 -8 -7 -10 -10 -9 -10 -10 -9 -9 -9 -8 -10 -11 -13 -10 -8 -7 -6 -7 -2 -2 -4 -0 0 2 2 2 -0 -1 -2 -1 2 4 5 5 5 10 14 15 13 12 12 13 14
-16 -8 -6 -8 -8 -8 -8 -9 -9 -7 -3 -9 -12 -12 -12 -11 -10 -7 -6 -4 -5 -3 -3 -3 -0 1 2 1 1 -0 1 1 2 2 6 5 3 4 15 14 13 12 11 11 12
-17 -12 -4 -5 -6 -7 -7 -7 -7 -7 -10 -9 -10 -12 -12 -12 -10 -7 -5 -3 2 -0 -1 -2 -2 -0 2 4 2 2 3 6 6 4 5 2 1 1 7 12 12 12 12 12 11
-19 -5 -3 -5 -6 -6 -6 -7 -3 -8 -10 -12 -11 -12 -12 -8 -6 -7 -4 -2 2 4 4 -1 0 -1 -0 3 5 3 2 5 7 4 3 -3 -0 -1 -3 3 9 11 13 12 11
-17 -3 -4 -5 -6 -6 -5 -3 -5 -8 -9 -8 -9 -7 -8 -7 -3 -5 -4 -0 2 3 6 6 -1 -1 -1 1 1 3 4 -2 -4 -4 -2 -3 -5 -7 -7 -7 -1 7 11 11 11
-14 -3 -2 -3 -5 -7 -6 -3 -5 -8 -9 -8 -4 -5 -5 -4 -2 -2 -3 -3 2 1 1 4 5 -2 -1 -2 0 -2 -3 -0 -3 -0 -0 -2 -4 -2 -6 -7 -8 -2 8 9 11
-9 0 -1 -3 -5 -7 -5 -5 -9 -10 -7 -5 -4 -3 -6 -7 -8 -2 -4 -4 -0 1 1 2 3 2 -5 -2 2 2 -2 -4 -4 -3 -1 -1 -2 -8 -6 -6 -7 -6 5 9 11
-4 2 -2 -4 -6 -6 -4 -6 -8 -9 -6 -6 -7 -6 -6 -4 -3 -3 -1 1 2 2 3 2 6 7 2 -5 -6 2 -2 -5 -3 -3 -3 -2 -4 -4 -6 -7 -8 -9 -3 9 10
0 2 -2 -2 -1 -1 -3 -2 -5 -3 -4 -4 -4 -4 -4 -3 -0 2 2 -1 1 2 4 5 7 7 3 -3 -6 -5 -0 -5 -6 -5 -2 -3 -3 -5 -4 -2 -2 -5 -8 -2 9
2 -0 -1 -1 -1 0 1 0 -1 -3 -4 -4 -3 -4 -3 -2 -1 -0 1 0 -0 -0 2 4 3 5 7 4 2 -1 -4 -2 -5 -3 -4 -4 -4 -4 -4 -1 -2 -6 -5 -5 7
0 0 1 1 0 1 1 0 -0 -0 -1 -3 -5 -4 -2 -1 -1 -1 -2 -3 -3 -1 2 3 4 1 -0 -0 1 3 1 -2 -5 -5 -3 -4 -3 -4 -2 2 0 -2 -3 -1 8
1 1 1 1 1 1 0 0 2 2 1 0 2 1 -4 -2 -1 0 -0 -1 -0 -1 1 2 4 1 1 2 4 4 3 3 -5 -6 -3 -4 -3 -6 -2 3 4 5 5 5 6
1 2 2 3 2 3 1 1 1 0 3 1 1 1 -1 -2 -3 -3 -2 -2 -3 0 2 3 1 2 4 4 4 5 4 3 -2 -6 -5 -2 -3 -2 9 11 10 3 3 5 8

GFSSW_850_dewp_048.txt.gz
Dewpoint
-23 -24 -24 -25 -26 -27 -24 -15 -12 -12 -12 -16 -17 -26 -27 -26 -19 -11 -2 -6 -13 -8 -11 1 4 6 13 16 17 13 15 16 17 17 16 16 16 16 16 15 14 13 13 14 15
-20 -21 -22 -23 -25 -26 -24 -10 -9 -8 -11 -11 -13 -13 -24 -22 -19 -16 -8 -3 -12 -11 -3 -3 1 11 15 16 17 15 16 14 14 14 15 15 15 16 16 15 13 13 13 14 14
-17 -19 -20 -22 -24 -26 -23 -11 -11 -12 -14 -11 -13 -12 -16 -19 -12 -3 -6 -3 -9 -10 -3 -5 0 14 15 16 16 16 17 14 13 13 13 13 15 16 15 16 13 13 14 14 13
-11 -13 -17 -19 -22 -24 -20 -12 -11 -12 -16 -6 -6 -14 -11 -15 -6 -3 -4 -5 -9 -6 -4 -2 7 15 13 14 15 16 16 15 13 13 13 13 15 15 15 15 15 13 13 13 13
-8 -10 -12 -14 -18 -22 -19 -13 -14 -13 -18 -11 -11 -11 -8 -10 -19 -14 -5 -4 -6 -10 -4 7 12 12 12 12 11 15 15 14 14 14 14 13 13 15 15 15 14 13 14 13 13
-8 -9 -11 -13 -15 -19 -21 -17 -16 -13 -18 -8 -7 -12 -5 -8 -12 -1 -4 -4 -5 -9 -3 4 12 11 9 9 11 11 12 12 12 11 11 13 12 14 15 14 13 13 13 14 13
-10 -10 -10 -11 -12 -16 -20 -19 -17 -16 -15 -5 -13 -6 -1 -9 -8 -1 -4 -1 -5 -11 -7 -1 2 7 2 5 6 9 7 6 7 10 10 10 15 15 14 13 12 12 13 14 13
-14 -13 -12 -13 -13 -14 -17 -16 -18 -18 -14 -13 -9 -1 -3 -2 -3 -4 -4 3 -5 -4 -0 2 3 5 1 1 -1 4 5 9 8 8 9 10 13 16 14 13 12 12 12 13 13
-17 -18 -18 -15 -12 -13 -17 -17 -17 -15 -14 -11 -3 0 -5 -3 -7 -6 -7 0 0 -7 -3 -4 1 -1 1 1 2 1 10 10 10 8 9 10 15 16 15 14 14 12 12 12 12
-18 -20 -19 -16 -11 -15 -16 -16 -16 -13 -14 -7 -5 -3 -9 -11 -11 -11 -4 0 2 -3 -2 -3 -4 -4 -1 2 7 5 5 8 9 7 10 11 13 16 15 15 14 14 13 13 13
-18 -19 -17 -12 -11 -13 -14 -15 -12 -11 -13 -13 -12 -11 -11 -12 -9 -10 -8 1 3 1 1 -4 -3 -2 -4 1 2 3 6 7 7 5 11 11 14 16 15 15 15 15 14 14 13
-17 -19 -20 -15 -11 -12 -12 -8 -5 -5 -6 -13 -10 -12 -12 -12 -10 -7 -7 1 -0 0 -2 -1 -2 -4 -6 -3 0 1 0 4 4 5 7 9 11 16 15 15 15 15 15 14 14
-17 -20 -20 -12 -10 -8 -10 -6 -4 -7 -10 -12 -10 -13 -13 -12 -10 -8 -6 -7 0 1 -0 -0 -2 -5 -4 -2 -1 1 1 0 4 2 4 6 9 15 15 15 15 15 15 15 14
-18 -20 -6 -8 -11 -7 -6 -5 -5 -9 -11 -10 -12 -13 -14 -12 -11 -11 -8 -5 -6 2 1 -0 -1 -3 -4 -2 -1 1 -1 1 -0 3 6 5 10 14 16 16 15 15 15 15 15
-19 -11 -5 -6 -8 -6 -5 -5 -8 -10 -11 -11 -12 -13 -12 -13 -10 -11 -5 -2 -4 -5 -0 3 0 0 -0 -3 -2 -3 -2 -1 -0 2 2 3 6 7 15 17 16 14 15 15 15
-20 -6 -5 -5 -4 -5 -6 -7 -9 -10 -8 -10 -11 -11 -8 -8 -8 -8 -1 -0 2 2 -2 -4 -4 -1 -1 -1 -2 -1 -1 -0 1 1 5 3 4 6 14 16 16 14 14 14 14
-20 -11 -3 -3 -4 -6 -7 -8 -9 -9 -10 -9 -9 -11 -9 -5 -6 -7 -0 2 3 6 5 2 -3 -4 -3 -0 -1 0 1 4 4 5 6 3 4 5 3 12 13 14 14 14 14
-21 -15 -2 -3 -4 -6 -8 -8 -7 -7 -8 -10 -9 -9 -8 -6 -5 -6 -2 3 1 3 5 6 2 -2 -3 -1 2 1 1 4 6 7 6 3 6 4 1 6 11 12 13 14 14
-21 -9 -1 -3 -4 -5 -8 -4 -4 -7 -8 -8 -8 -6 -6 -7 -5 -6 -2 3 2 1 4 5 5 1 0 -0 -0 2 3 1 3 -0 4 4 1 -2 -1 2 9 10 11 13 13
-19 -5 -2 -3 -3 -4 -7 -4 -6 -8 -8 -7 -6 -6 -4 -7 -5 -4 -4 1 2 0 0 3 6 2 2 1 -1 2 0 3 3 7 4 3 -1 5 0 3 5 9 10 11 13
-14 -3 -3 -4 -4 -7 -6 -6 -7 -7 -6 -6 -5 -6 -5 -5 -4 -3 -3 1 1 1 -0 3 4 4 3 3 0 0 4 4 3 3 6 4 2 -2 -0 1 0 3 9 10 11
-7 -5 -3 -4 -3 -3 -2 -2 -3 -5 -5 -6 -7 -6 -6 -5 -3 -3 -1 1 1 -0 3 3 5 6 6 3 1 2 3 2 6 6 1 3 4 -5 -4 -3 -3 -3 1 1 8
-1 -1 -3 -2 -0 -0 -0 0 -1 -3 -3 -3 -4 -6 -5 -4 -3 -0 1 -0 1 0 2 3 6 4 3 1 0 1 0 -0 -0 1 6 6 5 -3 -6 -6 -7 -6 -5 1 5
-0 -1 -2 -1 0 0 1 1 1 -1 -1 -1 -2 -3 -3 -3 -3 -3 1 0 -0 -0 3 3 3 3 4 3 2 3 1 0 0 3 3 3 4 -2 -3 -4 -5 -6 -7 -8 -7
-1 0 1 -0 -0 1 2 1 1 2 1 0 -1 1 1 1 -2 -1 -1 -1 1 2 3 2 3 2 3 3 2 2 2 2 1 1 3 1 -2 -3 -2 -3 -2 5 6 5 2
1 1 1 1 1 1 1 1 2 2 2 2 2 1 3 2 -1 -3 -2 -2 1 1 2 2 3 3 4 2 2 2 1 1 1 1 1 2 -1 -1 7 11 14 14 14 13 10
2 2 2 2 2 3 3 3 3 3 2 3 4 3 3 3 3 2 -2 -3 -3 1 1 2 2 4 3 1 1 3 1 3 3 2 5 1 3 6 13 14 12 12 13 15 12

GFSSW_850_dewp_051.txt.gz
Dewpoint
-17 -19 -20 -22 -23 -25 -25 -16 -12 -12 -14 -14 -14 -16 -16 -26 -26 -22 -11 -3 -9 -11 -6 4 11 11 15 16 17 15 15 15 16 16 15 15 15 16 16 14 13 13 14 14 15
-10 -12 -15 -18 -21 -23 -24 -18 -13 -11 -13 -14 -7 -11 -15 -17 -23 -22 -11 -8 -6 -10 -11 -0 12 13 14 15 17 14 16 14 13 14 15 14 15 16 16 14 13 14 14 15 15
-8 -9 -11 -13 -16 -20 -23 -18 -15 -14 -15 -13 -14 -12 -15 -14 -15 -2 -1 -2 -5 -8 -7 6 10 12 14 15 16 15 16 13 13 13 14 15 15 16 15 15 14 14 15 15 15
-10 -10 -10 -11 -13 -16 -19 -21 -17 -16 -15 -16 -12 -12 -14 -12 -7 -2 -4 -4 -5 -11 -0 7 11 11 11 14 15 16 15 14 14 12 13 13 14 15 15 14 14 14 15 15 15
-13 -11 -11 -12 -14 -14 -17 -20 -20 -17 -18 -12 -6 -8 -11 -10 -16 -8 -6 -3 -4 -11 5 5 9 9 8 10 13 15 15 14 14 14 13 13 13 13 15 14 14 14 15 14 14
-17 -17 -16 -16 -16 -15 -16 -18 -17 -18 -19 -8 -9 -8 -6 -9 -10 -1 -1 -3 -6 -0 7 7 8 8 8 12 11 11 13 13 13 12 12 12 11 14 15 14 14 14 14 14 14
-18 -20 -20 -19 -18 -15 -17 -18 -18 -18 -19 -14 -10 -4 -4 -5 -5 -5 -1 -2 -4 6 7 9 7 6 4 5 8 9 11 9 8 9 10 10 12 14 14 14 14 14 14 14 13
-18 -19 -21 -17 -15 -15 -16 -16 -17 -17 -17 -12 -7 -3 -2 -2 -6 -7 -8 2 -4 3 5 7 4 7 1 1 -0 4 5 10 9 8 9 10 12 14 13 14 14 14 14 14 13
-18 -20 -21 -16 -13 -14 -14 -14 -15 -16 -15 -8 -8 -5 -9 -11 -10 -10 -4 1 -0 6 -2 1 2 3 2 2 2 4 3 8 11 8 9 10 12 15 13 13 13 13 14 14 13
-18 -20 -22 -20 -13 -12 -13 -14 -13 -13 -12 -7 -11 -7 -12 -11 -9 -7 -4 1 2 4 -1 -3 0 -1 -0 2 -1 2 2 8 12 9 9 11 11 15 14 13 13 13 13 13 13
-17 -21 -23 -11 -12 -12 -13 -12 -9 -9 -14 -10 -11 -12 -12 -10 -9 -7 -2 3 2 -2 -2 -3 -3 1 -2 -1 1 4 5 6 8 8 10 11 11 15 15 14 13 12 12 13 13
-17 -20 -13 -7 -8 -10 -10 -6 -3 -4 -7 -11 -12 -13 -13 -12 -9 -11 -2 2 2 -0 -3 -3 -3 -5 -4 -4 -0 0 4 6 6 5 7 10 10 13 15 15 14 13 12 12 12
-18 -20 -7 -7 -7 -8 -7 -5 -4 -5 -9 -12 -12 -13 -13 -12 -10 -11 -7 -5 1 2 -1 -4 -4 -6 -5 -5 -3 -2 1 4 4 2 4 7 9 11 15 15 15 14 14 13 12
-20 -20 -6 -7 -9 -6 -5 -5 -6 -8 -11 -8 -12 -13 -12 -11 -11 -11 -3 -4 -7 2 1 1 -1 -4 -4 -4 -5 -4 -3 1 3 3 9 6 12 9 12 15 15 15 14 14 13
-21 -20 -5 -6 -6 -5 -5 -6 -8 -10 -14 -11 -11 -12 -11 -11 -9 -11 -4 -0 -3 -3 1 2 1 -0 -2 -3 -5 -5 -6 -5 -0 4 4 5 9 9 11 14 15 14 14 14 14
-21 -21 -7 -4 -5 -5 -7 -7 -9 -9 -11 -10 -11 -11 -10 -8 -8 -7 -1 0 2 1 -0 -1 -1 -0 -1 -3 -5 -6 -2 -3 -4 -1 7 6 6 8 11 12 13 14 14 14 14
-17 -20 -6 -3 -4 -5 -8 -8 -8 -10 -10 -8 -9 -10 -8 -8 -8 -6 -0 1 2 0 2 1 -2 -3 -1 -0 -2 -2 -3 2 3 1 3 4 6 6 5 8 10 12 14 14 14
-11 -17 -1 -3 -3 -5 -7 -8 -7 -7 -7 -10 -9 -9 -7 -8 -7 -7 -3 1 -0 0 4 3 -2 -2 -4 -1 0 0 -1 -1 4 -0 -4 2 7 5 3 2 6 9 11 13 14
-12 -6 -1 -3 -3 -3 -7 -5 -5 -6 -8 -8 -8 -7 -7 -8 -7 -8 -3 1 1 -2 2 4 4 0 -0 -0 -2 0 2 -3 -2 2 1 -4 2 2 2 2 2 6 10 12 13
-11 -2 -3 -4 -4 -4 -6 -4 -6 -7 -8 -8 -7 -7 -6 -7 -7 -7 -6 1 1 -2 -0 2 4 1 1 1 -1 -1 -1 3 1 3 3 -0 -0 2 4 3 3 4 7 10 13
-10 -2 -3 -4 -6 -6 -3 -4 -5 -7 -5 -7 -7 -7 -7 -6 -7 -6 -6 0 -0 -2 -1 1 1 -1 1 2 1 1 2 2 1 2 1 1 -0 -1 2 4 3 4 5 7 11
-7 -5 -3 -3 -4 -2 -1 -1 -2 -4 -4 -6 -6 -6 -6 -6 -6 -5 -5 -3 -0 -2 -2 1 3 3 1 0 1 2 2 0 5 6 3 2 -1 -2 1 1 1 1 2 5 9
-2 -3 -2 -2 0 1 0 -0 -1 -2 -2 -3 -4 -6 -6 -6 -4 -3 -1 -1 -1 -2 -2 1 3 2 -6 -1 -0 2 1 1 1 2 5 3 1 -1 0 0 -1 -0 1 4 9
-2 -2 -1 -0 0 1 1 1 0 -1 -1 -0 -1 -3 -4 -4 -3 -3 -1 -1 -0 -1 2 1 1 -2 -1 -1 0 2 0 0 1 5 5 5 3 1 -1 1 -0 -1 -1 -1 2
-1 1 0 1 0 0 0 1 1 1 0 0 0 -0 0 -1 -2 -2 -3 -2 -0 -0 2 0 -1 -2 -3 -3 -0 -0 -1 -2 2 2 5 4 4 4 2 1 1 -2 4 8 7
2 2 1 1 1 2 1 2 2 2 2 1 2 2 4 4 -0 -1 -2 -3 -1 1 1 2 -1 -1 -2 -5 -1 2 -1 -2 -0 1 1 2 3 0 8 9 9 12 13 12 13
1 2 2 2 2 2 3 3 3 3 3 1 3 3 3 2 3 2 2 2 0 -1 2 2 1 -1 -3 -2 1 2 -0 -1 0 3 2 4 2 6 9 13 12 12 12 13 13

GFSSW_850_dewp_054.txt.gz
Dewpoint
-10 -11 -12 -14 -17 -20 -23 -22 -15 -13 -14 -17 -11 -10 -12 -13 -21 -25 -16 -3 -7 -12 8 13 14 14 14 15 16 15 14 14 14 15 15 14 14 15 16 15 14 14 14 15 16
-11 -11 -11 -12 -13 -16 -19 -21 -17 -15 -16 -17 -13 -15 -12 -15 -17 -12 -15 -9 -4 -12 11 12 13 12 12 14 16 14 15 13 12 12 13 14 14 15 15 14 13 13 14 15 16
-14 -13 -13 -13 -15 -14 -16 -18 -20 -18 -17 -19 -15 -11 -13 -17 -2 0 -0 -0 -4 -10 9 10 10 10 9 12 14 14 15 12 12 12 12 13 13 14 14 14 13 14 15 16 15
-17 -18 -18 -16 -17 -19 -16 -16 -19 -18 -17 -20 -13 -11 -11 -14 -3 -1 -4 -3 -5 -6 6 6 8 7 6 10 11 13 12 12 12 12 11 12 13 13 14 14 14 14 15 15 14
-19 -20 -21 -19 -19 -20 -19 -18 -17 -18 -17 -18 -14 -8 -13 -2 -11 -5 -5 -3 -4 5 7 6 6 4 4 5 8 11 11 13 13 12 11 12 12 12 13 14 14 14 15 14 14
-19 -20 -21 -20 -18 -19 -18 -18 -19 -18 -17 -16 -11 -8 -1 -9 -4 -3 -1 -1 1 5 7 4 3 2 2 4 4 7 8 12 13 12 12 12 11 11 12 14 14 15 14 14 13
-20 -21 -21 -21 -17 -17 -17 -16 -16 -18 -18 -12 -8 -8 -2 -3 -2 -0 7 6 6 3 4 2 4 3 -1 2 4 5 10 10 11 11 10 10 11 11 13 14 14 15 14 13 13
-18 -19 -21 -22 -19 -16 -15 -14 -14 -17 -15 -9 -4 0 -3 -7 -6 -0 4 6 8 5 3 4 3 3 -1 -1 -3 -0 5 11 10 9 9 10 11 12 13 14 14 14 14 13 13
-19 -20 -22 -21 -17 -14 -12 -14 -15 -13 -11 -11 -2 1 -9 -9 -10 -8 -5 4 8 3 4 5 2 2 2 -3 -5 -5 1 6 9 8 9 10 11 13 13 13 14 14 14 14 13
-21 -20 -23 -14 -10 -11 -12 -13 -12 -13 -11 -8 -11 -3 -11 -9 -8 -9 -2 4 4 2 -2 -2 -1 -1 -1 -4 -4 -2 -2 1 6 10 9 10 10 13 12 12 13 14 14 13 13
-21 -21 -18 -8 -9 -10 -14 -8 -3 -7 -9 -9 -11 -12 -11 -10 -10 -7 3 3 2 3 -2 -5 -1 -2 -6 -5 -6 -2 -1 0 7 9 9 10 10 13 12 12 13 13 13 13 13
-20 -21 -11 -8 -8 -9 -6 -5 -3 -3 -9 -11 -11 -12 -12 -10 -9 -9 -0 1 -0 2 -2 -4 -3 -5 -6 -7 -5 -3 3 3 4 8 9 9 9 9 13 12 12 13 13 13 13
-20 -21 -10 -8 -7 -6 -5 -4 -5 -6 -8 -11 -11 -12 -13 -11 -11 -10 -4 -1 1 -1 -3 -3 -5 -8 -7 -4 -3 -3 -3 1 3 5 6 9 10 9 11 13 13 12 12 12 12
-15 -21 -15 -7 -6 -6 -4 -7 -7 -9 -9 -9 -12 -12 -12 -11 -11 -10 -4 -3 -3 1 -1 -3 -5 -5 -5 -4 -5 -5 -9 -6 1 4 9 8 12 9 9 13 13 13 12 12 11
-6 -18 -22 -5 -6 -3 -6 -8 -8 -8 -13 -11 -12 -12 -11 -12 -11 -10 -4 -3 -5 -4 0 0 -1 -2 -2 -4 -6 -5 -9 -9 -6 2 5 6 10 9 8 11 13 12 12 12 12
-5 -12 -21 -3 -4 -4 -7 -8 -8 -8 -10 -10 -12 -11 -11 -11 -11 -9 -6 -3 -1 -3 -3 -1 -2 -2 -1 -3 -4 -6 -5 -6 -6 -7 3 6 7 8 8 8 10 11 12 12 12
-7 -16 -11 -4 -2 -4 -7 -7 -8 -9 -11 -9 -10 -11 -10 -9 -10 -9 -6 -5 -6 -4 -5 -4 -4 -3 -1 -1 -2 -3 -3 -0 -1 -5 -5 -0 5 6 4 5 6 8 11 11 12
-9 -13 -2 -3 -3 -4 -5 -7 -4 -8 -9 -10 -10 -10 -9 -10 -9 -10 -8 -7 -4 -4 -6 -3 -4 -6 -3 -0 -1 -1 -2 -1 2 -3 -8 -9 1 4 3 2 4 6 8 11 12
-7 -3 -0 -2 -3 -3 -4 -3 -5 -7 -9 -9 -9 -8 -8 -9 -9 -9 -7 -6 -3 -4 -4 -4 -4 -3 -2 -4 -1 -0 1 -3 -2 -3 -2 -8 -9 -6 -0 2 3 3 5 9 11
-9 0 -2 -4 -5 -4 -3 -4 -5 -9 -9 -9 -7 -8 -7 -8 -7 -7 -9 -4 -2 -4 -4 -2 -1 -4 -2 -1 -1 0 -2 1 -0 3 3 -2 -3 -7 1 2 2 3 3 6 9
-3 -1 -2 -4 -4 -4 -2 -3 -6 -7 -6 -7 -6 -6 -7 -6 -7 -7 -7 -5 -3 -5 -6 -5 -4 -5 -3 -1 -3 -1 1 1 0 0 2 2 -2 -7 -4 -2 2 2 2 3 7
-1 -4 -1 -3 -4 -4 -3 -2 -3 -5 -5 -6 -6 -6 -5 -5 -5 -6 -6 -7 -4 -6 -7 -6 -5 -3 -6 -6 -1 -0 1 -0 3 5 1 2 -1 -7 -5 -6 -2 -0 1 2 4
-1 -2 -1 -1 0 0 -1 -2 -2 -3 -3 -3 -3 -5 -6 -5 -4 -5 -6 -7 -4 -7 -6 -3 -6 -3 -7 -10 -7 -1 0 1 0 1 4 4 2 -3 -4 -1 -4 -2 -1 2 3
-0 -0 -0 -0 -0 -0 0 -0 -1 -2 -2 -1 -2 -3 -4 -4 -6 -4 -5 -5 -4 -6 1 -2 -6 -5 -8 -5 -4 0 1 1 1 3 3 3 3 -0 -1 -1 -0 0 0 0 3
1 0 1 0 0 -0 -1 -1 0 0 -1 -1 -1 -1 -2 -0 -2 -3 -4 -4 -4 -4 -1 -3 -2 -6 -7 -8 -9 -5 -3 -1 0 2 4 1 3 2 -1 -2 -2 -1 -0 3 2
2 2 0 0 1 0 1 1 1 2 1 0 1 -0 3 4 0 1 -3 -3 -3 -3 -1 -2 -2 -5 -4 -8 -11 -11 -8 -4 -2 -2 -0 2 3 -0 1 4 6 3 7 8 7
3 3 2 2 1 3 3 4 3 2 3 2 1 3 3 3 1 2 2 1 -0 -0 1 -0 -2 -3 -4 -9 -10 -4 -6 -2 -2 -2 -1 2 2 1 3 5 9 10 10 10 11

GFSSW_850_dewp_057.txt.gz
Dewpoint
-15 -14 -13 -14 -14 -14 -15 -18 -21 -17 -17 -18 -19 -14 -11 -16 -18 -25 -3 0 -3 -11 7 11 12 12 12 12 13 15 17 16 17 15 15 13 14 15 15 14 14 14 14 15 15
-18 -18 -18 -17 -17 -18 -16 -15 -19 -20 -20 -19 -20 -14 -13 -17 -18 1 -1 -6 -4 -9 11 9 11 11 11 11 13 14 15 17 12 13 13 12 14 15 15 14 13 13 14 15 14
-19 -20 -21 -21 -20 -20 -20 -18 -17 -18 -17 -19 -19 -13 -11 -16 4 2 -2 -12 -4 -11 10 9 9 10 9 9 12 12 13 11 11 12 12 13 16 15 14 13 12 13 15 15 14
-20 -20 -21 -22 -20 -20 -20 -19 -19 -18 -18 -18 -16 -15 -10 -8 1 1 -3 -3 -4 -10 11 8 7 7 6 8 9 11 9 11 12 12 12 13 14 13 13 15 13 14 15 15 13
-21 -21 -22 -22 -21 -18 -19 -19 -19 -19 -19 -18 -17 -11 -13 1 -8 -3 -6 -4 -4 -4 9 7 6 5 4 4 6 8 9 11 11 12 11 11 10 16 14 13 13 14 15 14 13
-20 -21 -21 -22 -22 -19 -18 -19 -19 -17 -18 -18 -10 -8 1 -4 -4 3 5 -2 1 1 4 4 4 4 1 1 3 4 6 12 12 11 11 10 10 10 11 13 14 14 14 14 13
-21 -21 -21 -23 -22 -21 -17 -16 -16 -16 -17 -9 -11 -3 1 -4 -4 3 5 3 1 2 3 3 2 2 -0 0 1 2 6 8 12 11 11 10 11 10 13 13 14 14 14 13 13
-21 -23 -21 -22 -17 -14 -14 -13 -14 -16 -14 -5 -4 6 -4 -7 -6 -1 4 4 2 2 4 2 0 2 -0 -2 -2 2 4 10 10 11 10 10 11 8 12 13 14 14 14 13 13
-20 -23 -22 -18 -10 -10 -11 -13 -15 -12 -10 -8 1 4 -8 -9 -9 -7 0 4 4 3 2 1 2 0 0 -2 -1 -4 2 6 10 10 9 10 14 13 11 12 13 14 13 13 13
-20 -21 -23 -13 -9 -10 -12 -11 -14 -9 -9 -5 0 -2 -11 -9 -8 -8 -5 2 6 1 3 3 2 0 0 0 -3 -4 -2 1 8 10 9 10 12 17 10 11 13 13 13 13 12
-20 -21 -23 -10 -9 -9 -5 -3 0 -0 -6 -9 -11 -12 -11 -10 -9 -6 -0 2 5 -0 -1 0 2 -1 -1 -1 -5 -8 -4 -1 2 8 10 11 13 17 10 10 13 13 13 13 12
-15 -20 -23 -9 -8 -6 -5 -6 -5 -3 -6 -11 -11 -12 -11 -10 -10 -5 1 -1 0 3 -2 -4 -3 -4 -6 -7 -6 -6 -4 -1 -1 6 10 12 11 10 10 10 12 13 12 12 13
-4 -10 -22 -8 -8 -3 -4 -4 -5 -5 -6 -11 -12 -13 -13 -12 -11 -9 -5 -1 -2 1 0 -2 -5 -6 -5 -5 -5 -6 -5 -0 2 6 8 9 11 10 11 10 11 12 12 11 12
-5 -6 -20 -8 -5 -5 -4 -4 -5 -5 -5 -10 -13 -13 -13 -12 -12 -10 -6 -3 -3 -2 -4 -3 -5 -6 -6 -5 -5 -4 -7 -7 -2 4 8 7 13 12 15 11 11 11 12 11 11
-7 -8 -16 -14 -4 -5 -3 -4 -7 -6 -9 -11 -13 -13 -13 -12 -11 -11 -8 -5 -5 -5 -2 -3 -5 -5 -4 -5 -6 -4 -7 -9 -9 -2 3 5 10 9 8 12 11 11 11 11 11
-9 -11 -20 -2 -2 -3 -4 -5 -8 -8 -11 -11 -13 -13 -13 -13 -13 -12 -9 -9 -6 -5 -6 -4 -5 -5 -6 -6 -5 -6 -6 -6 -8 -9 -1 4 8 9 9 10 9 10 10 11 11
-8 -14 -15 -8 -3 -3 -4 -6 -7 -11 -11 -10 -12 -13 -12 -11 -11 -11 -9 -8 -9 -6 -8 -9 -7 -6 -3 -3 -5 -4 -3 0 -1 -3 -5 -6 4 6 6 7 8 8 9 11 11
-5 -10 -4 -2 -3 -3 -3 -6 -4 -9 -11 -11 -12 -12 -11 -11 -11 -12 -11 -9 -6 -7 -7 -8 -7 -8 -8 -2 -1 -2 -3 0 4 -1 -6 -9 -2 3 2 6 7 9 8 9 10
-6 -1 -2 -3 -3 -3 -3 -3 -6 -7 -9 -10 -11 -10 -11 -10 -11 -10 -10 -9 -8 -5 -6 -8 -9 -7 -7 -8 -5 -1 0 -4 -2 -3 -3 -8 -10 -10 -1 2 6 6 6 9 10
-3 -2 -3 -3 -3 -3 -3 -2 -5 -8 -9 -9 -7 -9 -7 -9 -8 -8 -8 -8 -5 -5 -7 -6 -1 -6 -9 -6 -5 -4 -3 -0 -2 4 4 -2 -4 -9 -8 -2 1 3 4 8 11
0 -1 -2 -2 -4 -4 -2 -3 -5 -7 -6 -6 -6 -6 -7 -6 -7 -6 -6 -7 -7 -5 -8 -8 -5 -5 -9 -3 -3 -4 -1 -0 -0 -2 2 2 -2 -6 -7 -8 -2 0 2 4 7
-0 -2 -1 -1 -2 -4 -2 -3 -4 -5 -5 -5 -6 -5 -5 -5 -4 -5 -5 -7 -6 -6 -6 -9 -8 -5 -7 -7 -7 -7 -7 -6 3 4 -0 0 -1 -6 -7 -9 -6 -1 0 1 3
-0 -1 -1 -1 0 -1 -1 -2 -3 -3 -3 -3 -3 -4 -5 -4 -2 -4 -5 -8 -6 -7 -8 -6 -6 -5 -6 -8 -9 -6 -5 -3 -3 -2 3 2 0 -4 -5 -6 -7 -5 -4 -0 1
0 0 -1 -1 -1 -1 -0 -1 -1 -3 -3 -2 -2 -3 -3 -3 -4 -4 -4 -7 -5 -6 -3 -6 -6 -5 -6 -6 -7 -6 -5 -4 -2 1 -0 1 0 -2 -2 -2 -3 -3 -4 -1 0
1 -0 0 0 -1 -1 -1 -1 -1 -0 -2 -3 -2 -2 0 0 -2 -2 -4 -5 -5 -3 -5 -5 -5 -7 -8 -8 -9 -8 -5 -3 0 2 5 2 1 1 -1 -1 -1 -1 -1 -0 0
1 1 -1 -0 -0 -1 -0 1 1 -0 0 -1 -1 -1 -0 1 -0 2 2 1 -1 -4 -3 -5 -2 -4 -4 -8 -9 -8 -10 -8 -4 -2 -0 1 2 -0 -0 1 1 -1 1 2 3
2 2 1 0 -0 1 1 1 1 2 1 1 1 1 1 1 -1 -2 -2 -2 2 0 -1 -0 1 2 -1 -7 -8 -8 -11 -12 -11 -8 -5 -0 0 -0 1 2 3 3 4 6 7

GFSSW_850_dewp_060.txt.gz
Dewpoint
-19 -20 -20 -21 -20 -19 -19 -16 -16 -19 -20 -20 -19 -20 -13 -15 -19 -22 -15 -0 -3 -4 -4 6 10 13 13 12 11 13 18 18 17 15 17 14 14 16 16 15 14 14 15 14 13
-20 -20 -21 -22 -22 -20 -20 -19 -18 -17 -18 -17 -18 -19 -15 -13 -19 0 -3 -2 -1 -8 0 9 9 11 11 11 10 13 17 18 15 13 15 14 13 15 15 13 13 14 15 14 13
-22 -23 -23 -23 -23 -21 -19 -20 -19 -19 -18 -18 -18 -16 -14 -12 1 1 -1 -4 -4 -11 6 8 8 10 9 9 10 11 14 15 13 13 12 13 15 16 14 13 13 15 15 14 13
-22 -22 -23 -23 -23 -22 -19 -20 -20 -19 -20 -19 -18 -15 -10 -12 4 3 -1 -10 -5 -11 10 10 8 8 8 9 8 11 10 12 12 11 11 13 15 14 17 16 13 15 14 14 13
-22 -22 -23 -23 -23 -22 -21 -19 -20 -19 -17 -19 -18 -11 -11 1 0 -3 -2 -4 -5 -11 9 10 7 7 7 6 6 7 8 10 11 12 11 13 16 16 17 15 15 14 14 13 13
-21 -22 -24 -23 -23 -22 -20 -19 -18 -19 -16 -17 -12 -8 -9 3 -5 1 4 3 -5 -4 8 9 6 5 4 3 3 5 5 7 11 12 12 12 13 13 16 14 14 14 14 13 12
-21 -22 -23 -24 -22 -18 -15 -15 -15 -15 -17 -10 -10 -4 7 -0 -5 -0 3 7 3 -4 4 7 4 3 3 1 -0 0 4 6 10 11 14 12 15 14 16 16 14 14 14 13 12
-21 -21 -21 -24 -17 -13 -11 -12 -14 -15 -17 -7 -1 5 4 -8 -8 -2 2 2 1 -4 1 2 2 1 1 -1 -2 -0 2 6 7 11 10 12 14 14 15 15 14 14 13 13 12
-20 -21 -21 -23 -12 -10 -11 -14 -14 -13 -11 -5 1 5 1 -9 -9 -6 1 2 1 1 3 3 2 1 -0 1 -0 -2 3 5 6 11 10 9 15 13 15 13 13 13 13 13 12
-20 -19 -20 -23 -11 -9 -7 -6 -14 -11 -10 -6 -2 1 -6 -11 -9 -10 -7 1 3 1 1 2 0 0 0 1 3 -1 0 0 5 9 9 9 13 14 15 14 12 12 13 13 12
-7 -9 -17 -22 -10 -6 -5 -2 1 3 2 -5 -6 -8 -10 -11 -9 -8 -6 1 4 2 3 1 3 4 2 -2 -1 -4 -6 -3 -3 6 10 10 14 13 10 12 13 12 12 12 12
-5 -7 -10 -22 -10 -5 -4 -4 -6 -4 -6 -10 -12 -13 -12 -11 -10 -4 -2 0 4 3 -1 1 4 1 -5 -3 -2 -1 -3 -6 -4 4 9 13 15 13 9 10 13 11 11 12 12
-4 -7 -9 -21 -12 -4 -4 -4 -5 -6 -8 -8 -13 -14 -13 -12 -12 -8 -2 -1 -1 1 0 -1 -4 -4 -3 -4 -3 -5 -5 -5 -3 1 6 8 15 14 12 13 15 11 11 12 12
-4 -9 -10 -20 -5 -3 -4 -5 -5 -7 -5 -9 -13 -14 -14 -14 -12 -11 -9 -4 -2 -1 -2 -1 -4 -5 -5 -4 -4 -3 -7 -8 -6 -1 5 8 15 15 15 16 17 12 10 11 11
-7 -12 -11 -21 -11 -3 -4 -5 -6 -8 -4 -10 -13 -13 -14 -14 -11 -11 -10 -7 -4 -4 -3 -2 -2 -3 -3 -5 -6 -4 -6 -6 -8 -6 -2 3 8 10 16 16 15 12 11 10 11
-9 -9 -17 -0 -3 -3 -5 -5 -8 -6 -9 -10 -13 -14 -14 -15 -13 -11 -10 -10 -8 -6 -6 -6 -6 -7 -6 -6 -7 -7 -6 -4 -5 -8 -4 -3 3 5 14 13 14 13 13 10 11
-4 -11 -20 -8 -1 -3 -5 -5 -6 -7 -12 -10 -13 -14 -14 -12 -13 -14 -11 -10 -10 -7 -9 -11 -7 -6 -5 -5 -7 -6 -4 0 0 -2 -3 -9 -5 4 5 11 12 13 13 11 10
-5 -10 -2 -4 -3 -4 -4 -4 -3 -9 -11 -12 -13 -13 -12 -13 -12 -12 -11 -10 -12 -9 -7 -5 -7 -12 -10 -4 -3 -4 -4 -0 3 1 -2 -5 -5 -6 -3 3 11 12 12 11 11
-4 -1 -0 -2 -4 -4 -4 -2 -5 -6 -10 -11 -12 -12 -13 -12 -12 -11 -10 -12 -13 -7 -4 -8 -10 -13 -10 -11 -7 -2 -1 -5 -2 -3 -0 -3 -6 -9 -9 -3 5 9 10 13 11
-4 0 -3 -3 -4 -4 -4 -1 -4 -7 -8 -9 -8 -10 -8 -12 -9 -10 -11 -10 -10 -6 -6 -6 -3 -8 -9 -9 -8 -7 -5 -1 -1 3 4 -1 1 -5 -4 -4 1 10 10 9 8
0 1 -1 -2 -4 -4 -2 -2 -5 -7 -6 -6 -6 -6 -6 -7 -7 -7 -7 -8 -8 -7 -6 -7 -6 -7 -9 -6 -6 -6 -4 -3 -2 -0 2 2 0 -2 0 -4 -1 7 10 9 9
2 -1 -1 -1 -2 -3 -0 -2 -4 -5 -4 -4 -5 -5 -4 -5 -4 -4 -5 -7 -7 -7 -5 -6 -7 -6 -6 -9 -9 -7 -4 -5 -0 3 2 1 -1 -5 -4 -5 -5 -5 0 9 10
3 -1 -2 -1 1 -0 -2 -3 -3 -3 -3 -3 -3 -4 -5 -3 -2 -4 -4 -6 -7 -6 -4 -6 -5 -4 -4 -7 -10 -8 -7 -6 -6 -6 3 4 1 -5 -3 -1 -6 -7 -9 9 11
4 1 -1 -2 -2 -2 -1 -1 -1 -4 -3 -3 -3 -4 -3 -3 -4 -3 -3 -6 -6 -6 -4 -6 -5 -2 -2 -5 -7 -5 -8 -8 -6 -4 -4 -3 0 1 -2 -2 -2 -4 -4 -4 9
0 -2 -0 0 -1 -2 -1 -1 -1 -1 -3 -4 -3 -3 -2 -0 -3 -4 -4 -3 -3 -3 -5 -6 -3 -4 -6 -8 -9 -8 -7 -7 -6 -4 -1 -3 -2 -1 3 6 5 3 4 -3 -3
1 1 -1 -1 -2 -2 -0 0 -1 -0 -1 0 -0 -1 -2 -1 -1 -0 -2 -2 -1 -1 -1 -2 -2 -4 -3 -4 -7 -7 -8 -9 -7 -5 -3 -3 2 0 -0 4 3 5 8 11 0
2 1 -1 -2 -2 -1 -0 -0 0 -0 -1 -2 -1 -0 -0 -1 -2 -3 -4 -4 -4 -1 -1 0 3 4 3 -2 -2 -3 -7 -8 -8 -8 -5 -0 -0 -1 -1 2 3 4 7 11 11

GFSSW_850_dewp_063.txt.gz
Dewpoint
-23 -23 -24 -24 -24 -23 -21 -21 -20 -18 -18 -18 -17 -18 -19 -14 -16 -19 -22 -4 -4 -5 -1 1 0 12 15 15 15 14 17 18 17 16 15 15 15 15 16 17 15 15 14 13 12
-23 -23 -24 -24 -24 -24 -23 -20 -21 -20 -20 -19 -19 -18 -16 -14 -13 -22 -23 -5 -1 -4 -6 5 8 11 13 13 14 13 17 16 14 15 14 14 14 14 15 15 16 15 14 12 12
-22 -23 -24 -24 -24 -24 -23 -22 -21 -21 -20 -21 -19 -19 -15 -11 -6 0 -13 -6 -3 -3 -9 8 8 10 12 12 11 10 14 15 15 15 14 17 16 16 16 15 16 15 14 13 13
-22 -23 -23 -25 -24 -23 -22 -22 -21 -21 -21 -18 -19 -18 -15 -10 6 3 -0 -2 -3 -4 -9 9 8 8 10 10 9 11 10 15 14 14 15 16 15 14 16 17 17 15 13 13 13
-22 -23 -23 -23 -25 -22 -21 -20 -21 -20 -20 -18 -18 -17 -9 0 -2 -2 -2 -2 -10 -7 -7 11 11 8 10 8 8 8 9 12 12 12 15 15 14 15 15 14 17 15 14 13 12
-21 -23 -23 -22 -24 -21 -16 -16 -16 -16 -18 -17 -11 -9 -7 5 -5 -1 3 -2 -8 -10 4 10 10 8 7 7 6 5 5 8 11 13 15 15 15 15 14 16 16 15 13 13 12
-21 -22 -22 -21 -23 -19 -13 -11 -12 -14 -16 -14 -8 -7 4 4 -4 -3 2 2 -6 -10 4 9 10 9 5 4 3 -0 1 1 11 13 14 14 17 15 15 16 16 14 13 13 11
-21 -22 -21 -21 -22 -17 -12 -11 -13 -15 -16 -9 -2 2 7 -6 -7 -5 2 5 2 -3 4 8 7 7 2 2 1 -0 -0 3 4 12 13 13 17 15 13 15 16 14 13 12 12
-16 -14 -16 -18 -22 -15 -10 -10 -11 -13 -10 -6 1 8 7 -7 -11 -6 1 1 3 1 -3 1 1 2 2 2 3 1 2 2 3 11 12 14 17 16 14 17 16 14 13 13 12
-6 -6 -8 -13 -21 -11 -6 -6 -7 -13 -7 -6 -4 5 2 -7 -10 -10 -1 1 0 -2 -2 -0 3 2 1 1 5 4 1 -0 2 10 11 13 17 17 17 17 16 14 14 13 13
-4 -5 -8 -10 -21 -8 -5 -3 -0 -2 -5 4 1 -1 -9 -11 -9 -9 -8 1 1 1 2 1 3 4 1 1 -0 1 1 -1 -3 2 11 14 17 17 14 12 16 16 13 13 12
-5 -6 -8 -11 -20 -8 -4 -4 -6 -7 -5 -6 -6 -9 -13 -12 -10 -6 -5 -2 3 4 2 3 4 2 1 1 1 -1 1 0 -2 -6 11 14 16 16 14 15 16 15 13 13 12
-6 -8 -13 -14 -19 -5 -4 -4 -5 -6 -6 -9 -7 -13 -14 -13 -11 -4 -2 -2 2 5 1 2 3 1 2 2 -2 -2 -0 -1 -2 -5 10 14 15 15 14 14 14 16 14 13 12
-7 -12 -16 -15 -7 -2 -3 -4 -6 -7 -4 -6 -11 -14 -14 -14 -13 -9 -7 -6 -2 1 1 1 -2 -2 1 0 -2 -2 -4 -5 -7 -5 -1 11 17 15 14 15 15 15 14 13 12
-11 -8 -14 -14 -16 -5 -5 -5 -6 -8 -0 -9 -13 -14 -15 -14 -12 -12 -11 -8 -3 -2 -2 -1 -1 -0 -1 -3 -5 -3 -4 -4 -3 -4 -5 -6 1 15 14 15 15 15 14 13 13
-6 -5 -18 -5 -1 -2 -4 -5 -6 -4 -1 -11 -13 -13 -14 -15 -14 -11 -10 -10 -9 -7 -5 -4 -6 -5 -2 -4 -5 -6 -5 -4 -4 -2 -0 -5 -4 8 15 14 15 13 12 11 12
-5 -10 -21 -3 -1 -4 -5 -4 -2 -3 -10 -11 -12 -15 -14 -13 -13 -14 -10 -8 -8 -7 -6 -9 -8 -8 -7 -3 -6 -5 -4 1 2 1 1 -5 -5 -6 13 13 11 12 12 13 12
-6 -4 -2 -6 -4 -3 -4 -1 1 -6 -10 -13 -13 -14 -12 -12 -12 -12 -11 -10 -9 -9 -8 -6 -3 -12 -9 -4 -2 -2 -4 1 3 4 1 -3 -2 -3 9 13 11 12 13 12 11
-5 -2 -1 -3 -4 -4 -4 2 -2 -5 -8 -10 -12 -12 -12 -11 -12 -11 -10 -9 -8 -5 -3 -2 -4 -7 -9 -10 -7 -2 0 -5 -2 -2 0 -0 -2 -6 -7 11 13 12 11 9 11
-1 -1 1 -2 -3 -4 -2 0 -4 -6 -6 -7 -6 -6 -5 -8 -10 -10 -10 -7 -5 -5 -6 -4 -3 -7 -9 -10 -9 -8 -6 -1 -2 1 3 1 0 1 -1 -5 10 12 12 11 14
1 3 -1 -1 -3 -3 1 -0 -4 -5 -5 -5 -4 -3 -3 -3 -4 -5 -6 -5 -7 -6 -6 -6 -5 -4 -7 -7 -6 -5 -5 -4 -4 -0 2 2 1 -3 -2 0 10 11 13 13 10
2 3 -2 -1 0 1 0 -2 -4 -4 -4 -4 -4 -4 -3 -3 -2 -2 -3 -4 -7 -6 -4 -5 -5 -3 -5 -8 -9 -9 -7 -4 -0 0 1 4 3 -2 -3 -3 5 9 11 14 12
4 1 -2 -2 2 1 -2 -3 -4 -4 -3 -3 -2 -3 -3 -2 -1 -2 -4 -6 -7 -6 -2 -5 -2 -0 -2 -7 -7 -5 -7 -7 -5 -4 -1 2 2 -1 2 3 3 6 10 13 12
4 2 -1 -1 -2 -0 1 -0 -2 -3 -3 -4 -3 -3 -2 -1 -3 -2 -2 -5 -5 -3 -3 -6 -5 -3 -1 -2 -4 -4 -7 -8 -6 -4 -2 -2 -2 -6 4 4 3 5 9 12 12
3 -1 -1 1 -1 -0 -0 -0 -1 0 -2 -2 -0 -2 -1 0 -0 -0 -1 -3 -3 -1 -3 -4 -2 -4 -5 -6 -5 -5 -7 -8 -7 -5 -3 -3 -3 1 2 2 2 5 9 10 13
1 2 1 -1 -2 -1 -0 0 0 0 -1 -1 0 -1 -1 1 0 0 -1 -1 -2 -2 -1 -1 2 0 1 -4 -5 -4 -4 -4 -7 -8 -7 -5 -3 -1 -2 -3 1 4 7 11 11
2 2 -2 -1 -0 0 1 0 -0 1 0 -1 -1 0 1 -0 -1 -1 -1 -2 -4 -3 -0 3 4 4 4 0 -0 2 -2 -3 -5 -7 -7 -5 -6 -1 6 0 3 12 13 12 10

GFSSW_850_dewp_066.txt.gz
Dewpoint
-23 -23 -24 -24 -24 -24 -24 -23 -21 -22 -21 -20 -19 -19 -19 -19 -15 -17 -23 -8 -5 -3 -4 -1 -5 3 15 16 16 15 16 18 16 16 17 16 15 17 16 16 14 15 13 13 14
-22 -23 -24 -24 -25 -24 -23 -23 -22 -21 -22 -21 -20 -20 -19 -17 -13 -16 -22 -14 -4 -3 1 -2 -1 12 12 15 15 15 17 16 14 15 15 16 15 16 17 16 15 15 13 14 14
-22 -22 -23 -24 -23 -25 -23 -21 -21 -21 -21 -21 -19 -19 -18 -16 -10 -4 -15 -14 -5 -3 -5 -1 3 11 10 12 14 14 15 14 14 15 15 15 16 15 15 17 17 16 14 14 14
-16 -22 -23 -23 -22 -24 -23 -19 -19 -20 -20 -21 -18 -18 -18 -10 6 2 -2 -7 -4 -2 -5 5 8 9 10 12 12 13 11 11 14 15 16 14 15 15 16 17 17 16 13 13 13
-12 -18 -23 -24 -22 -22 -21 -17 -15 -16 -17 -18 -18 -15 -14 -4 -8 -2 -2 -2 -1 -3 -6 7 8 9 9 10 10 10 9 10 12 15 15 15 16 15 16 16 16 15 13 13 13
-13 -16 -21 -22 -22 -21 -20 -14 -12 -12 -14 -16 -12 -9 -8 0 -4 -1 -1 -2 -6 -3 -7 4 10 9 9 9 9 7 6 5 13 15 16 15 15 15 14 15 15 15 13 13 13
-18 -19 -19 -21 -19 -20 -20 -12 -10 -12 -14 -15 -6 -4 -3 -10 -5 -4 0 2 -2 -7 -10 8 9 10 10 6 6 5 2 1 13 15 15 15 16 15 15 17 16 15 13 13 12
-15 -14 -14 -13 -15 -19 -19 -11 -9 -11 -14 -13 -3 2 2 -2 -3 -2 -3 3 6 -6 -5 8 9 8 9 7 1 2 0 2 12 13 15 14 17 16 16 15 16 15 14 13 12
-6 -6 -8 -10 -10 -18 -15 -7 -7 -10 -11 -8 -1 8 4 -2 -10 -12 -4 2 2 -2 -9 1 0 -0 1 2 3 2 4 1 2 13 14 14 17 15 17 16 16 15 13 13 12
-5 -6 -7 -9 -11 -18 -10 -4 -5 -9 -11 -4 -3 4 -4 -7 -10 -4 -4 1 2 2 -2 -4 -3 3 3 2 5 4 3 1 0 9 14 15 17 15 16 16 15 15 13 13 12
-6 -8 -9 -10 -12 -17 -6 -4 -3 -1 -6 -4 1 -4 -4 -10 -10 -11 -3 -3 0 -2 -1 1 4 5 4 1 1 1 1 2 1 -1 15 15 18 16 17 15 16 15 14 13 12
-7 -8 -11 -15 -14 -18 -6 -3 -5 -6 -6 -7 -6 -4 -4 -10 -11 -8 -1 -3 1 2 1 3 4 2 1 1 1 2 2 1 -1 3 11 16 18 16 16 14 15 15 14 14 13
-8 -12 -15 -19 -17 -8 -4 -4 -6 -6 -6 -7 -8 -7 -8 -14 -12 -6 -6 -2 3 4 3 4 3 1 2 2 3 3 2 2 0 10 15 16 18 17 16 14 15 15 15 14 13
-12 -7 -9 -18 -7 -3 -4 -5 -5 -6 -5 -6 -9 -11 -12 -13 -13 -3 -4 -5 -1 5 5 2 1 0 2 3 2 2 -2 -2 -3 -4 10 14 18 17 15 14 16 16 15 14 13
-6 -5 -14 -18 -8 -3 -3 -5 -5 -8 -1 -7 -12 -14 -14 -14 -11 -12 -8 -9 -5 -3 -2 1 -0 0 0 -1 0 1 -3 -4 -4 -3 -4 5 9 11 15 16 17 17 14 13 13
-7 -5 -19 -4 -2 -4 -5 -4 -5 -5 -0 -10 -13 -14 -14 -14 -13 -12 -11 -9 -10 -8 -7 -5 -6 -3 -2 -2 -3 -5 -5 -4 -3 -2 0 -3 -4 7 15 14 16 16 14 13 13
-6 -7 -17 -7 -3 -4 -4 -3 -3 -3 -8 -11 -11 -14 -14 -13 -13 -11 -9 -9 -8 -9 -9 -8 -9 -11 -9 -5 -4 -5 -3 -0 0 -0 1 -3 -3 -5 13 12 14 15 15 14 13
-3 -3 -3 -4 -5 -4 -4 -2 0 -5 -5 -11 -14 -14 -13 -13 -12 -13 -12 -11 -8 -6 -8 -7 -6 -7 -8 -7 -3 -3 -4 -0 1 1 2 -2 -1 -4 0 10 11 14 14 12 12
-6 -2 -2 -3 -4 -5 -4 1 -3 -4 -5 -5 -10 -11 -7 -10 -11 -11 -7 -5 -5 -5 -4 -4 -4 -7 -9 -9 -10 -7 -1 -4 -2 -1 -0 -1 -2 -3 -5 8 11 11 12 12 13
-1 -1 -1 -1 -2 -4 -3 0 -3 -4 -5 -5 -3 -4 -2 -3 -4 -11 -6 -6 -4 -5 -6 -5 -4 -6 -7 -9 -8 -8 -7 -4 -2 1 1 1 -0 0 2 7 12 11 13 13 12
2 1 -2 -2 -3 -3 0 -0 -3 -3 -4 -3 -3 -3 -3 -2 -3 -3 -3 -5 -6 -6 -6 -6 -5 -5 -8 -6 -6 -6 -6 -6 -4 -1 2 2 0 -1 6 6 7 11 12 12 13
2 -0 -2 -2 0 0 -1 -3 -4 -3 -4 -3 -3 -3 -2 -3 -2 -3 -3 -4 -6 -6 -3 -6 -5 -3 -4 -6 -8 -8 -6 -6 -2 -1 0 1 2 2 4 4 6 11 11 12 11
2 2 -2 -2 1 1 -1 -3 -3 -3 -2 -3 -2 -3 -3 -2 -2 -2 -3 -4 -5 -3 -3 -6 -4 -2 -4 -5 -6 -5 -6 -7 -8 -4 -2 -0 -0 1 1 3 9 11 13 12 13
1 -0 -2 -2 -1 -0 -0 -0 -0 -1 -2 -1 -2 -3 -2 -1 -2 -0 -1 -3 -3 -2 -2 -5 -5 -3 -2 -3 -5 -4 -5 -5 -7 -4 -3 -2 -3 -3 -0 1 7 12 13 14 13
1 1 -1 0 -0 -1 -1 -0 1 1 -1 -1 -0 -1 -1 1 -0 0 -1 -2 -3 -2 -2 -5 -3 -3 -4 -3 -4 -4 -4 -4 -3 -3 -5 -5 -5 -1 4 8 12 12 13 14 14
1 1 -1 -0 -1 -0 1 1 2 1 -1 -0 1 0 -0 1 1 2 0 -1 -1 -3 -1 -0 1 1 2 -0 -0 0 -1 -1 -2 -3 -3 -5 -6 5 7 10 11 12 12 13 13
1 1 -2 -0 0 0 0 1 1 1 -0 -1 -0 0 1 -0 -1 -1 -1 -1 -1 -2 -3 1 3 3 4 1 1 2 -1 -1 -0 3 4 -1 5 5 6 8 9 9 10 11 12

GFSSW_850_dewp_072.txt.gz
Dewpoint
0 -2 -6 -17 -23 -23 -23 -24 -23 -23 -23 -22 -22 -22 -20 -20 -20 -20 -20 -19 -7 -5 1 2 0 10 14 15 16 16 17 18 16 16 17 16 16 17 16 13 14 15 14 16 15
-3 -5 -7 -9 -17 -23 -22 -22 -22 -20 -21 -22 -21 -22 -19 -20 -19 -21 -21 -22 -6 -7 -1 0 -1 11 15 15 15 16 17 16 14 15 16 17 16 16 15 14 15 16 16 16 15
-6 -8 -9 -10 -13 -19 -21 -20 -20 -18 -18 -20 -20 -22 -19 -19 -14 -0 -8 -22 -6 -4 -5 -1 -0 14 14 13 16 16 17 14 14 15 16 16 16 16 16 16 15 16 16 16 16
-8 -12 -12 -13 -12 -15 -18 -18 -20 -14 -15 -16 -17 -20 -19 -18 1 -2 -14 -20 -6 -3 -2 -2 7 12 12 13 13 15 14 13 14 15 16 16 16 16 15 16 15 14 15 15 15
-11 -12 -12 -11 -11 -12 -14 -15 -19 -15 -12 -14 -15 -18 -14 -14 -18 -2 -19 -9 -3 -2 -1 -1 10 11 11 11 11 14 12 11 10 14 15 16 15 16 17 15 15 14 15 15 14
-7 -7 -8 -8 -9 -10 -12 -12 -18 -14 -11 -10 -15 -15 -10 -9 -9 -2 -6 -6 -4 -1 1 1 11 11 10 9 9 9 10 9 8 11 15 15 16 15 17 16 15 15 14 14 14
-6 -6 -7 -8 -9 -10 -11 -12 -18 -12 -9 -10 -14 -8 -7 -17 -1 0 0 -5 -4 -5 -5 3 9 11 10 10 9 7 6 5 15 15 15 15 16 15 16 17 16 16 15 14 13
-7 -8 -9 -10 -10 -10 -11 -13 -16 -8 -7 -11 -12 -1 -1 -7 -2 1 2 -1 -2 -2 -3 2 9 9 9 8 3 2 1 2 15 15 15 15 16 15 15 15 16 15 15 15 15
-10 -9 -11 -11 -12 -12 -13 -15 -6 -5 -6 -10 -7 3 2 2 -0 1 2 3 0 -1 -2 -4 5 8 1 3 3 2 5 1 13 15 15 16 16 16 17 16 17 16 14 14 14
-11 -11 -13 -14 -14 -15 -15 -8 0 -4 -9 -5 -1 5 -1 2 -0 -0 2 4 1 -4 -3 0 -1 0 3 4 8 5 3 2 2 15 15 16 16 16 17 16 15 15 14 13 14
-14 -13 -10 -10 -15 -17 -14 -5 -3 0 -4 -5 -5 -4 -3 -5 -8 -10 -3 5 1 -2 -3 -3 1 3 3 3 3 2 2 2 1 6 14 16 15 16 16 17 16 14 14 13 13
-10 -7 -7 -13 -19 -17 -4 -3 -3 -3 -3 -6 -6 -5 -6 -5 -8 -9 -2 3 1 -1 0 2 5 3 3 3 2 2 2 2 1 1 8 11 17 16 16 16 16 16 14 14 13
-7 -7 -9 -17 -14 -5 -3 -3 -4 -5 -4 -7 -7 -7 -7 -6 -7 -8 -4 1 -0 2 2 4 3 2 3 3 3 2 3 2 3 1 15 16 16 17 15 16 15 16 15 14 13
-5 -6 -17 -7 -5 -4 -4 -4 -5 -6 -7 -10 -7 -8 -7 -12 -13 -9 -2 0 2 3 2 2 2 3 3 3 3 5 2 2 3 -2 2 14 16 16 16 16 15 15 15 14 13
-6 -6 -13 -4 -4 -4 -5 -5 -5 -8 -5 -8 -9 -9 -9 -13 -9 -8 -5 -2 0 4 3 4 2 3 3 3 2 3 1 2 1 -2 9 9 9 10 16 16 15 15 14 15 14
-4 -8 -4 -4 -4 -5 -6 -5 -5 -5 -2 -10 -13 -14 -14 -14 -11 -10 -9 -8 -6 -7 -5 0 -6 -1 1 -1 1 -1 -4 -4 -3 -3 -1 2 2 0 15 14 13 13 14 13 14
-4 -4 -5 -6 -5 -5 -4 -3 -4 -2 -6 -5 -11 -14 -13 -13 -10 -10 -9 -6 -6 -4 -5 -9 -9 -8 -9 -6 -5 -4 -3 0 -0 0 0 -4 -2 -2 -2 1 7 11 13 14 13
-2 -2 -1 -1 -2 -4 -3 -4 0 -3 -3 -6 -7 -7 -8 -9 -10 -6 -7 -4 -6 -9 -7 -6 -4 -6 -9 -8 -4 -3 -2 -0 1 2 0 -2 -1 3 2 5 10 10 12 14 14
-2 -1 -2 -2 -2 -3 -4 -0 0 -1 -3 -3 -5 -4 -3 -4 -9 -5 -5 -4 -5 -6 -5 -5 -5 -7 -9 -9 -8 -4 -1 -4 -1 -2 -1 -1 -2 -2 2 5 8 11 13 13 15
-2 -1 -2 -2 -2 -3 -3 -1 -2 -3 -3 -4 -2 -3 -2 -2 -5 -5 -4 -5 -5 -6 -7 -6 -5 -7 -8 -9 -8 -7 -8 -2 -2 1 1 -1 4 5 3 4 10 13 14 13 14
-2 -2 -2 -2 -2 -3 -0 -2 -2 -2 -3 -2 -2 -2 -2 -2 -3 -3 -1 -4 -2 -5 -7 -7 -7 -7 -6 -5 -5 -6 -5 -6 -3 -2 1 2 5 1 2 8 12 12 14 15 13
-2 -1 -2 -3 -2 -2 -1 -1 -2 -1 -2 -3 -3 -2 -2 -2 -1 -2 0 -0 -1 -5 -5 -6 -6 -3 -4 -6 -7 -7 -5 -7 -2 -3 -2 2 2 7 11 11 11 12 13 14 14
-1 -2 -2 -2 -1 -0 -1 -1 -1 -1 -1 -1 -1 -2 -3 -1 -0 -1 -1 -3 -1 -0 -3 -6 -4 -4 -4 -6 -6 -4 -5 -7 -7 -5 -2 3 2 5 8 10 10 11 12 13 14
-1 -0 -2 -1 -1 -1 -0 0 0 -2 -1 -1 -0 -2 -2 -0 -1 1 -1 -2 -3 2 0 -5 -4 -4 -4 -4 -4 -1 -2 -4 -5 -2 -2 -4 -3 5 8 9 9 9 11 11 12
-1 0 -1 0 -0 -0 -0 1 1 1 -1 -1 0 0 -0 1 1 1 -0 -2 -3 -2 -1 -5 0 -1 -0 -1 -2 -1 -1 -2 -2 -3 -3 -4 1 6 7 9 9 9 9 10 10
2 -0 -1 0 -1 -0 0 1 1 0 -1 -0 1 0 -0 1 0 1 -0 -1 -1 -2 -2 -1 3 0 1 -0 -1 -1 -1 -2 -2 -2 -3 -2 4 5 6 7 7 7 8 9 10
0 -1 -2 0 -1 0 1 1 0 -0 -1 -0 -1 -0 1 0 -1 -1 -1 -1 -1 -2 -2 0 1 1 1 1 -2 1 -1 -1 4 5 5 3 6 5 4 6 5 5 5 6 6

GFSSW_850_dewp_075.txt.gz
Dewpoint
-0 -2 -3 -5 -6 -12 -23 -22 -22 -21 -20 -22 -22 -23 -22 -21 -21 -21 -21 -17 -10 -1 1 -1 3 13 14 15 16 16 17 17 16 16 17 16 16 16 15 15 14 15 15 15 15
-1 -3 -5 -6 -7 -8 -16 -22 -21 -20 -18 -19 -21 -22 -22 -20 -20 -22 -23 -21 -9 -4 2 -0 8 15 14 14 15 16 17 16 14 15 16 16 17 16 15 15 16 16 16 15 15
-5 -6 -9 -11 -10 -10 -11 -19 -19 -20 -16 -16 -18 -20 -21 -19 -16 -4 -2 -20 -6 -4 2 1 3 14 14 15 15 16 17 14 14 15 15 16 16 16 14 15 15 16 16 16 15
-8 -9 -8 -9 -11 -11 -11 -15 -17 -19 -17 -15 -14 -19 -19 -18 -5 -1 -8 -20 -6 -5 -0 0 9 13 13 14 13 16 14 14 14 15 15 16 16 16 15 16 15 16 16 16 16
-7 -7 -7 -7 -8 -9 -11 -13 -15 -18 -16 -14 -13 -16 -17 -14 -20 -2 -18 -18 -5 -5 -1 4 6 11 13 13 12 14 13 11 11 14 15 16 15 16 17 15 16 17 16 16 16
-7 -7 -8 -8 -9 -9 -9 -11 -14 -17 -16 -11 -13 -16 -12 -10 -14 -4 -20 -9 -3 -1 -0 3 5 9 11 11 10 9 9 7 8 11 15 15 16 15 16 15 16 16 16 16 16
-12 -10 -9 -10 -11 -11 -11 -11 -13 -18 -13 -9 -13 -15 -8 -16 -1 -3 -12 -5 -3 -2 0 3 7 10 10 10 9 8 6 9 14 13 15 14 17 15 16 15 15 15 15 15 14
-12 -12 -12 -12 -13 -13 -12 -13 -15 -13 -8 -8 -13 -10 -3 -7 0 -2 -7 -0 1 1 -1 3 9 10 9 8 3 2 2 3 15 14 15 15 16 15 16 16 16 15 15 15 15
-15 -14 -14 -14 -14 -14 -14 -14 -6 -4 -6 -9 -13 -3 3 1 2 -0 -4 -3 -1 -2 -2 2 8 8 4 6 5 3 7 3 15 15 15 16 15 16 17 16 16 16 15 14 14
-14 -14 -11 -9 -11 -15 -15 -6 -1 -5 -8 -6 -1 1 -0 2 1 1 -0 1 -0 -1 -2 -2 2 7 6 6 11 8 4 3 10 15 15 16 15 16 16 16 16 16 15 15 14
-10 -10 -9 -9 -16 -18 -13 -2 -3 1 -7 -5 -5 -2 -5 -4 -0 1 3 1 -1 -1 -2 -2 4 7 9 6 3 2 3 3 1 11 12 13 14 16 16 16 16 16 15 14 14
-7 -9 -8 -17 -18 -6 -3 -3 -3 -3 -2 -4 -4 -5 -6 -6 -4 4 4 2 -3 -2 -1 -1 5 5 4 3 3 2 4 3 2 4 6 9 14 15 16 16 15 15 15 14 14
-6 -7 -13 -12 -9 -5 -4 -3 -4 -4 -2 -6 -6 -5 -7 -5 -7 3 4 1 -3 -2 -1 0 4 4 4 3 4 4 4 3 2 1 15 14 17 16 16 16 16 15 14 14 13
-6 -7 -16 -5 -4 -3 -4 -3 -4 -6 -6 -9 -7 -7 -7 -6 -10 -4 4 1 -0 -3 0 2 2 6 4 4 3 6 2 2 3 3 2 14 11 16 16 16 15 16 15 14 14
-5 -9 -5 -4 -4 -5 -5 -4 -5 -7 -5 -9 -8 -8 -8 -12 -9 -3 -0 -1 1 1 3 4 4 7 6 4 2 4 2 2 2 2 6 12 9 11 16 16 16 15 16 15 14
-4 -4 -6 -5 -5 -5 -5 -4 -4 -4 -1 -8 -11 -10 -12 -11 -11 -9 -6 -5 -1 1 2 0 -1 1 2 1 2 1 -1 -2 -2 -2 2 8 4 4 9 8 8 13 15 15 14
-2 -1 -1 -3 -3 -4 -4 -3 -4 -1 -5 -4 -8 -12 -12 -11 -9 -8 -5 -4 -1 4 3 -4 -7 -9 -9 -1 0 -0 0 2 2 1 3 -1 3 7 7 9 11 13 11 14 15
-2 -2 -2 -2 -2 -2 -3 -3 1 -1 -2 -4 -6 -8 -9 -8 -6 -6 -4 -4 -5 -5 -0 3 1 -7 -9 -6 -1 1 0 1 4 2 1 -1 2 6 4 9 13 14 13 12 14
-2 -1 -2 -2 -2 -4 -3 1 1 -1 -2 -2 -5 -6 -4 -6 -6 -5 -4 -4 -5 -5 0 -2 -5 -8 -8 -8 -6 -2 0 -4 -1 -1 0 -0 1 0 7 11 12 13 14 14 14
-2 -1 -2 -2 -3 -3 -2 -0 -1 -2 -2 -3 -2 -3 -3 -4 -4 -4 -3 -4 -3 -6 -6 -5 -4 -7 -8 -8 -8 -4 -6 -1 -1 3 3 3 5 5 12 12 12 13 14 14 14
-2 -2 -2 -2 -3 -3 -0 -1 -1 -2 -3 -2 -2 -2 -2 -3 -3 -2 -1 -3 -2 -4 -6 -7 -6 -4 -6 -5 -4 -5 -4 -3 -2 -0 1 3 5 10 12 11 12 12 13 14 15
-2 -1 -3 -3 -2 -2 -0 -1 -2 -2 -1 -2 -2 -2 -1 -2 -1 -0 0 -1 -1 -4 -4 -5 -5 -3 -5 -7 -7 -6 -5 -5 0 2 1 1 4 8 10 10 10 11 12 13 14
-1 -2 -2 -3 -1 -0 -1 -1 -2 -2 -1 -1 -1 -2 -2 -1 0 -0 -1 -3 -0 0 -1 -5 -4 -2 -4 -6 -6 -3 -4 -6 -5 -3 2 1 3 7 8 9 9 10 11 12 12
-2 -2 -1 -1 -1 -1 0 1 0 -2 -2 -1 -1 -1 -1 0 -0 1 -1 -3 -3 1 0 -4 -3 -3 -5 -2 -3 -2 -3 -4 -5 -2 -1 -1 -1 8 9 8 8 9 10 11 11
-2 0 -1 0 -0 0 0 0 0 1 -2 -1 -1 -0 -0 1 0 1 -1 -2 -3 -2 -1 -3 1 -0 -1 -2 -2 -2 -3 -4 -5 -3 -2 -2 2 8 8 8 7 7 8 8 9
1 -0 -1 0 -0 -1 -0 1 0 -0 -1 -1 0 -0 -0 1 1 1 -1 -0 -0 -2 -0 -1 2 0 1 -1 -3 -3 -3 -3 -4 -4 -3 -3 4 6 7 7 6 5 5 5 5
-1 -2 -2 0 -0 -1 0 -0 1 -0 -0 -0 -1 0 1 0 -0 -1 -1 -1 -1 -1 -0 1 2 1 1 -0 -2 -4 -3 -3 -2 2 -1 -1 2 4 4 6 4 2 1 1 2

GFSSW_850_dewp_078.txt.gz
Dewpoint
1 -0 -2 -4 -5 -6 -7 -17 -21 -21 -20 -20 -23 -23 -24 -22 -21 -21 -18 -11 -10 -4 6 11 12 15 14 14 15 15 17 16 16 15 16 16 15 16 16 16 15 15 13 13 14
-3 -4 -5 -7 -9 -8 -8 -10 -19 -20 -20 -18 -21 -21 -23 -23 -21 -19 -22 -21 -10 -1 9 7 12 14 13 13 14 15 16 15 14 14 15 16 16 16 16 15 14 15 13 14 14
-9 -7 -7 -8 -10 -11 -10 -9 -14 -18 -20 -17 -18 -20 -22 -22 -9 -9 -17 -21 -9 -0 8 5 10 13 12 12 14 15 15 12 12 15 15 15 15 15 14 15 15 15 14 13 13
-7 -8 -8 -8 -9 -10 -11 -10 -11 -16 -19 -16 -15 -18 -20 -19 -7 2 -3 -20 -9 3 7 4 9 11 10 12 14 15 13 11 12 13 15 16 14 16 14 15 15 15 14 14 13
-11 -9 -8 -9 -9 -10 -11 -11 -11 -14 -17 -16 -13 -16 -18 -2 -11 -2 -9 -15 -6 6 5 3 6 6 9 11 13 14 11 9 9 15 14 15 15 15 16 16 15 15 14 13 13
-14 -13 -13 -11 -11 -12 -11 -11 -12 -13 -16 -15 -12 -15 -8 -8 -3 -3 -12 -8 6 3 1 1 1 5 7 10 11 11 10 7 6 10 13 14 15 14 16 16 16 15 14 14 13
-15 -14 -13 -14 -14 -14 -13 -13 -13 -14 -17 -12 -10 -14 -2 -9 4 -0 5 4 3 -0 -1 0 1 4 7 8 10 9 8 7 9 7 11 13 16 15 15 15 15 14 14 14 13
-12 -14 -14 -13 -14 -14 -14 -14 -15 -16 -15 -9 -9 -5 -2 -9 5 2 5 6 1 0 -0 3 4 4 7 9 8 9 6 6 11 10 12 14 16 15 15 15 15 14 14 13 12
-5 -9 -9 -9 -10 -13 -16 -14 -6 -5 -7 -7 -8 6 -3 -6 6 3 3 4 0 -1 0 3 3 5 7 7 8 8 10 5 13 12 13 14 15 16 15 14 13 12 11 10 11
-3 -7 -8 -8 -12 -18 -16 -5 -2 -5 -7 -8 1 3 2 0 4 2 0 1 -0 -2 -3 0 3 3 5 6 7 10 8 4 11 14 13 13 14 16 16 16 14 14 13 10 12
-4 -8 -7 -12 -19 -18 -12 -3 1 5 2 -4 -6 -2 -1 1 3 3 2 -1 -1 -2 -4 -3 1 2 1 5 5 7 6 6 8 12 12 10 10 16 16 16 16 15 14 13 12
-5 -8 -8 -17 -15 -4 -4 -1 -2 -2 -4 -3 -4 -3 -2 0 1 2 3 1 -2 -1 -4 -3 0 -4 -1 5 4 5 5 4 2 5 5 3 7 12 16 15 15 15 15 14 12
-6 -8 -17 -11 -4 -4 -3 -3 -3 -3 -4 -6 -4 -6 -4 -3 -2 2 2 2 -2 -2 -3 -3 -4 -2 3 6 5 5 7 4 4 2 7 9 14 14 14 15 15 15 15 14 13
-7 -9 -10 -5 -3 -4 -3 -4 -4 -6 -5 -8 -8 -8 -5 -5 -6 1 0 0 -3 -3 -3 -6 -0 2 5 5 4 5 4 3 2 2 7 8 14 14 14 16 16 15 14 14 13
-4 -5 -4 -4 -4 -2 -3 -4 -5 -4 -3 -11 -9 -7 -6 -7 -5 -0 -1 0 -1 -4 -3 -2 2 4 4 3 3 2 3 3 2 2 1 5 8 12 13 14 16 15 15 14 13
-2 -1 -3 -6 -4 -4 -5 -4 -4 -4 -1 -8 -9 -7 -7 -10 -7 -0 1 -2 -1 -3 -3 -1 -0 4 3 1 2 1 2 3 2 1 4 4 5 7 10 10 9 11 14 15 14
-2 -2 -2 -2 -1 -3 -3 -2 -4 -0 -5 -6 -9 -9 -10 -9 -7 -3 -0 -2 2 1 1 1 3 1 0 4 3 2 1 4 5 2 2 3 4 9 9 12 12 13 13 12 15
-2 -2 -2 -2 -2 -2 -1 -3 1 -2 -2 -5 -8 -10 -9 -8 -6 -4 -3 -1 -3 -1 -1 0 3 -0 -6 -0 3 2 -0 0 6 2 1 2 5 9 10 12 13 13 13 10 13
-2 -1 -0 -1 -3 -4 -2 -2 0 -1 -2 -3 -6 -8 -7 -7 -4 -3 -3 -3 -4 -3 0 1 -2 -8 -8 -8 -4 2 1 -3 -1 -2 0 1 6 8 9 11 13 13 14 15 12
-1 1 -1 -2 -3 -2 -3 -0 -1 -3 -3 -4 -3 -6 -5 -5 -3 -2 -2 -4 -4 -6 -6 -2 -1 -6 -8 -8 -7 -1 -2 0 -1 3 4 2 5 9 12 12 12 13 14 15 14
-0 -2 -1 -3 -3 -2 -1 -1 -2 -3 -3 -2 -2 -3 -5 -4 -5 -3 -3 -3 -3 -5 -6 -5 -4 -4 -6 -4 -3 -3 -1 -2 -3 -2 1 4 6 11 11 11 12 12 13 14 15
-1 -3 -2 -3 -2 -2 -1 -2 -2 -3 -2 -3 -3 -2 -2 -3 -2 -1 -1 -1 -1 -4 -5 -6 -5 -3 -3 -7 -6 -5 -2 -1 0 2 -1 0 11 9 10 10 11 12 12 13 13
-1 -3 -2 -2 -1 -1 -1 -2 -2 -2 -2 -2 -2 -2 -2 -1 1 -1 -2 -3 -1 -2 -1 -5 -4 -1 -4 -6 -5 -3 -4 -4 -3 -1 0 -1 10 8 9 10 11 11 11 12 12
-3 -5 -3 -1 -1 -1 0 0 -1 -3 -2 -2 -2 -2 -1 -1 -1 -0 -2 -3 -3 -2 -0 -3 -4 -2 -3 -2 -4 -2 -4 -5 -4 -1 1 0 10 9 8 9 9 10 10 9 10
-1 -2 -1 -2 -1 -1 -1 -2 -2 -1 -3 -2 -1 -1 -1 0 -1 -0 -2 -2 -3 -2 -3 -3 0 -2 -3 -4 -4 -5 -5 -6 -3 -1 0 1 8 8 8 8 8 8 8 7 8
-2 -3 -3 -3 -1 -3 -3 -1 -2 -2 -2 -3 -1 -1 -1 1 0 1 -1 -0 0 -3 -1 -3 1 -1 -1 -4 -4 -4 -5 -5 -6 -5 -2 0 6 6 7 6 5 4 4 4 4
-1 -3 -3 -2 -4 -5 -3 -2 -2 -2 -2 -3 -3 -1 0 -0 -1 -1 -2 -2 -2 -1 -0 -0 0 -0 -2 -3 -6 -7 -7 -6 -6 -5 -5 -1 3 4 5 5 4 3 3 3 2

GFSSW_850_dewp_081.txt.gz
Dewpoint
-2 -2 -3 -4 -6 -6 -6 -6 -11 -21 -21 -21 -23 -24 -24 -24 -23 -21 -8 -5 -4 -10 5 10 12 14 13 14 14 14 17 17 16 15 17 15 16 16 16 14 14 13 11 11 12
-10 -7 -5 -6 -7 -9 -9 -7 -7 -15 -20 -20 -21 -23 -23 -24 -23 -2 -5 -9 -8 -8 8 9 10 13 12 12 13 14 16 15 14 13 15 15 15 15 15 15 14 13 11 12 12
-8 -8 -9 -8 -8 -9 -10 -10 -8 -10 -18 -19 -19 -21 -22 -23 2 -8 -7 -22 -9 -7 8 6 9 12 11 11 13 14 15 13 14 13 14 14 15 14 15 15 14 12 12 12 12
-14 -13 -10 -9 -9 -10 -10 -11 -10 -9 -15 -19 -17 -18 -21 -17 -1 5 -6 -23 -9 -0 6 3 7 10 9 11 13 14 13 12 14 14 14 14 14 14 14 15 15 13 12 12 12
-17 -16 -15 -14 -11 -11 -12 -11 -12 -11 -14 -18 -16 -16 -20 -1 -6 -2 -2 -14 -9 6 6 2 6 8 9 9 12 13 11 9 11 13 14 14 14 14 15 15 15 13 12 12 11
-16 -17 -16 -16 -15 -14 -14 -13 -13 -12 -13 -17 -14 -13 -11 -5 -3 -2 -9 -9 -1 6 4 1 4 6 6 10 12 11 11 7 8 10 14 14 14 14 14 15 15 13 12 11 10
-10 -16 -18 -18 -16 -15 -15 -14 -14 -14 -14 -17 -12 -12 1 -7 -0 1 -1 -3 2 3 2 -1 -0 2 5 8 10 10 9 6 7 10 12 13 15 15 15 15 15 13 12 11 10
-6 -13 -14 -13 -14 -15 -15 -15 -15 -15 -16 -15 -10 -6 1 -7 0 0 -1 -1 3 1 -2 -2 -2 -0 4 6 8 10 9 9 8 8 11 14 17 15 15 15 14 13 12 11 10
-2 -7 -10 -10 -12 -15 -17 -13 -3 -5 -8 -9 -6 4 -3 -2 2 1 3 1 1 -1 -2 -1 2 0 4 6 8 9 9 8 10 9 11 13 17 16 14 14 14 12 12 11 10
-2 -6 -9 -8 -18 -20 -16 -3 -3 -4 -7 -3 3 -0 -0 -2 0 1 2 1 -2 -1 -1 1 1 0 3 6 8 9 8 7 10 11 12 15 15 15 15 14 13 12 11 10 10
-3 -6 -7 -17 -19 -17 -9 2 5 7 3 -1 -4 -5 -4 -5 0 -0 1 0 -2 -3 -2 -3 1 1 1 1 2 3 5 11 10 8 12 12 14 15 15 15 15 12 10 9 9
-7 -8 -16 -15 -4 -4 -2 -2 -3 -3 -5 -4 -5 -8 -3 -0 0 -0 -2 -1 -3 -2 -5 -4 -1 -2 -3 -1 2 5 6 4 7 8 13 16 14 15 15 15 15 15 13 9 9
-9 -13 -10 -7 -4 -3 -2 -4 -4 -4 -5 -7 -5 -8 -5 -1 -2 -1 -1 -3 -2 -3 -4 -4 -5 -4 -4 -1 4 6 5 4 4 7 5 3 10 14 14 15 16 15 14 13 11
-5 -6 -6 -4 -1 -3 -4 -4 -4 -3 -4 -7 -8 -7 -7 -5 -4 -2 -1 -2 -3 -2 -4 -5 -7 -5 -5 -1 4 5 3 2 2 4 7 6 16 12 15 14 16 16 15 14 14
-2 -2 -6 -4 -1 -3 -3 -4 -4 -4 -1 -10 -10 -10 -7 -6 -7 -2 -1 -1 -2 -5 -4 -4 -5 -4 -1 1 2 0 1 4 2 2 5 7 13 16 14 15 16 16 16 15 14
-2 -2 -3 -2 -4 -4 -5 -3 -4 -4 -0 -8 -10 -10 -7 -7 -8 -3 -2 -2 -3 -6 -5 -5 -8 -1 -1 -0 -1 -2 1 3 3 1 4 2 7 16 14 14 15 15 15 15 14
-3 -3 -2 -2 -1 -1 -3 -3 -1 0 -1 -7 -9 -9 -7 -6 -7 -3 -2 -1 0 -0 -2 -3 -3 -0 -2 1 -0 0 3 6 6 4 3 -1 6 13 11 11 12 12 12 15 14
-2 -2 -0 0 0 -1 -1 -1 4 1 -3 -6 -8 -8 -7 -9 -8 -2 -0 0 -3 -3 -4 -1 4 1 1 1 2 1 2 3 5 3 -1 -2 9 12 11 12 13 13 12 12 13
-2 1 2 -1 -2 -1 -2 5 4 -2 -4 -5 -8 -6 -7 -8 -5 -2 -1 -2 -3 -2 -3 -1 2 -2 0 1 -1 2 3 -4 -2 -2 -3 5 11 10 10 12 13 14 14 14 9
-0 -1 -1 -2 -1 -1 -0 4 -1 -4 -4 -5 -5 -6 -5 -4 -2 -3 -1 -0 -2 -4 -4 -2 2 -3 -5 -5 -3 -1 -1 0 -2 3 1 5 10 11 11 13 13 13 14 15 14
-1 -3 -1 -3 -2 -1 7 -1 -3 -3 -3 -4 -3 -2 -3 -5 -4 1 -1 -3 -4 -3 -4 -1 -1 -2 -4 -2 -2 -1 1 -0 -3 -1 1 7 12 11 12 12 13 13 14 14 15
-2 -4 -3 -4 -3 -4 -1 -3 -3 -3 -3 -4 -4 -2 0 -1 3 4 -1 -2 -3 -4 -1 -4 -3 -1 -2 -5 -6 -4 -1 -1 1 2 -2 0 13 9 11 12 12 12 13 13 14
-3 -7 -5 -4 0 -3 -2 -3 -4 -3 -2 -3 -3 -4 -3 -2 -1 -2 -3 -4 -3 -4 -2 -4 -3 -1 -1 -4 -4 -4 -3 -2 -3 -3 1 0 13 9 10 12 12 11 11 12 13
-4 -5 -6 -5 -4 -3 -1 -1 -2 -4 -3 -2 -2 -3 -3 -3 -2 -1 -3 -4 -4 -5 -3 -1 -4 -2 -0 -3 -4 -2 -3 -3 -2 -0 0 4 11 10 9 11 11 10 10 10 11
-5 -7 -3 -3 -4 -3 -3 -3 -3 -3 -4 -3 -1 -2 -2 -3 -2 -1 -3 -3 -4 -4 -2 -4 -2 -2 -4 -5 -5 -4 -3 -4 -2 -2 1 9 10 9 8 8 8 9 9 9 9
-3 -4 -7 -6 -3 -6 -5 -4 -4 -4 -3 -3 -1 -2 -2 -1 -1 -1 -2 -2 -0 -3 -2 -4 -1 -2 -3 -6 -6 -5 -6 -6 -4 -3 -2 6 9 7 7 7 6 7 6 6 6
-1 -3 -4 -5 -5 -6 -4 -4 -5 -4 -4 -4 -3 -1 0 -0 -1 -2 -2 -2 -1 -1 -0 -1 -1 -1 -3 -5 -7 -5 -6 -6 -6 -6 -3 5 7 6 6 4 4 5 5 5 5

GFSSW_850_dewp_084.txt.gz
Dewpoint
-11 -9 -6 -4 -4 -5 -7 -7 -5 -6 -20 -21 -20 -22 -24 -24 -25 -24 -20 -7 -5 -4 -5 2 4 9 13 13 13 15 18 18 17 16 17 15 16 17 16 13 14 12 10 10 11
-10 -9 -9 -9 -7 -6 -7 -9 -8 -6 -10 -20 -20 -20 -23 -24 -24 -16 -10 -10 -6 -7 3 7 8 12 13 13 14 17 17 16 14 14 16 14 14 15 14 13 13 10 10 10 10
-13 -15 -13 -10 -10 -9 -9 -10 -11 -9 -7 -17 -20 -19 -20 -23 0 -2 -5 -12 -14 -11 8 9 9 11 11 12 13 16 15 14 14 14 14 15 15 15 14 14 12 11 10 10 10
-13 -17 -17 -17 -14 -11 -11 -11 -11 -11 -8 -13 -19 -18 -19 -21 3 3 -3 -9 -18 -13 10 7 6 10 10 11 12 17 12 13 14 13 14 14 14 14 15 15 12 11 11 10 9
-8 -15 -17 -16 -17 -14 -13 -14 -12 -12 -10 -12 -18 -16 -18 2 -5 1 -5 -22 -13 -10 10 5 5 9 10 11 13 15 12 12 14 13 13 13 14 14 16 17 13 12 11 10 9
-6 -11 -15 -17 -16 -17 -17 -15 -14 -13 -12 -12 -18 -15 -14 -2 -4 -1 -5 -10 -9 2 9 3 3 7 7 8 11 11 11 9 11 14 13 12 15 15 16 15 14 12 11 10 9
-4 -11 -15 -14 -14 -15 -16 -16 -14 -14 -13 -14 -17 -13 0 -4 -5 2 -0 -5 -4 2 6 2 1 5 5 7 11 11 13 8 10 13 13 13 15 15 15 16 14 12 11 10 9
-3 -8 -14 -13 -12 -14 -17 -16 -15 -12 -15 -17 -13 -8 -0 -4 -7 -1 -2 -4 -4 -0 3 1 0 1 3 4 10 11 10 10 9 12 13 14 18 15 15 14 13 12 11 9 9
-3 -7 -12 -13 -15 -20 -19 -15 -5 -5 -10 -12 -7 -0 -1 0 -5 -2 -4 -4 -1 2 1 -2 -3 -2 -1 4 9 10 12 11 9 10 13 14 18 17 14 14 13 12 11 9 9
-6 -8 -10 -15 -22 -23 -17 -6 -4 -5 -7 -9 4 3 -3 1 -5 -3 0 -2 1 0 -2 -3 -2 0 0 4 10 9 9 10 10 11 12 15 16 16 15 13 13 12 11 10 9
-8 -10 -15 -19 -20 -16 -10 1 5 7 6 1 -1 -1 -5 -3 -3 -2 0 -0 -1 -1 -1 -2 1 2 1 2 5 5 5 12 11 11 13 14 16 15 15 13 13 12 12 10 10
-8 -14 -14 -8 -6 -4 -1 4 -4 -5 -5 1 -1 -6 -5 -5 -1 -1 -0 0 -3 -1 -2 -1 1 -3 -4 -1 2 4 5 8 10 10 16 15 16 15 14 13 14 12 12 11 10
-5 -9 -8 -5 -5 -3 -3 -4 -6 -6 -6 -8 -9 -5 -6 -3 -1 -2 -2 -2 -4 -3 -3 -2 -5 -5 -4 -3 0 1 3 8 10 10 13 14 17 15 14 14 15 14 14 11 9
-2 -4 -8 -4 -1 -2 -2 -6 -5 -6 -4 -8 -9 -6 -9 -5 -1 -2 -3 -3 -4 -3 -5 -5 -7 -6 -3 -3 -2 2 2 7 9 11 16 14 18 18 15 15 15 15 15 14 9
-2 -3 -4 -8 -9 -3 -4 -7 -5 -6 -1 -9 -9 -10 -9 -7 -4 -3 -2 -4 -3 -4 -5 -4 -6 -6 -4 -4 -5 1 2 5 3 4 3 5 8 17 16 17 13 15 14 14 14
-3 -3 -2 3 1 -3 -7 -6 -4 -4 -0 -7 -11 -11 -10 -9 -7 -6 -2 -2 -4 -2 -6 -5 -8 -7 -6 -6 -6 -1 1 3 4 3 4 6 7 16 16 16 15 14 16 14 15
-2 -4 -2 -1 0 -2 -3 -5 -1 -1 1 -3 -9 -11 -11 -7 -7 -5 -1 -1 0 1 -1 -5 -5 -8 -6 -4 -2 0 1 5 7 6 4 -1 5 15 14 16 16 14 16 14 16
-2 -2 -1 -0 1 -2 -3 -2 5 5 5 -3 -7 -10 -9 -8 -7 -7 -2 -1 -2 -2 -4 -2 -2 -5 -3 -2 0 0 -0 4 7 5 3 -0 6 15 12 15 13 12 15 13 13
-2 -3 -0 1 0 -2 -2 6 6 5 -3 -5 -6 -6 -7 -7 -8 -5 -3 -2 -4 -3 -1 -4 -2 -5 -4 -2 -2 1 2 0 2 0 1 10 13 13 12 12 13 14 15 15 17
-5 0 1 -1 -3 -2 4 8 7 1 -5 -6 -3 -5 -1 -3 -2 -4 -3 -2 -1 -1 -3 -3 -2 -3 -2 -2 0 2 -2 2 2 6 5 12 14 13 13 14 13 13 14 15 15
-4 0 -2 -2 -6 0 9 7 1 -5 -5 -4 -4 -1 1 2 3 2 4 -0 -0 -1 -2 -2 3 4 0 1 2 1 2 0 -0 -0 2 12 15 11 13 13 13 13 14 15 15
1 1 -3 -6 -7 0 4 5 -5 -5 -6 -3 -4 -1 0 -0 5 5 7 5 -3 -3 -1 -2 4 6 -0 -4 -3 -2 0 1 3 6 1 13 15 10 12 12 13 13 13 14 14
2 -7 -7 -8 1 9 4 -4 -5 -4 -4 -3 -2 -5 -2 3 2 3 4 -0 -4 -3 1 1 2 5 1 -4 -5 -3 -3 -3 -2 -0 5 11 13 10 12 12 12 12 12 13 13
1 -6 -6 -7 -7 -1 -0 -1 -1 -4 -5 -4 -3 -4 -4 -1 1 2 -3 -5 -5 -5 -6 0 -2 7 4 -1 -4 -2 -3 -3 -2 1 2 11 13 12 13 13 11 11 11 11 12
0 -8 -6 -4 -5 -5 -5 -3 -4 -3 -5 -4 -2 -5 -5 0 -3 -3 -4 -5 -5 -5 -4 -4 -0 1 3 -5 -5 -4 -4 -4 -2 -1 12 12 11 11 11 11 11 10 10 10 10
-3 -3 -9 -7 -5 -7 -5 -5 -5 -6 -4 -5 -2 -3 -3 -3 -1 -1 -4 -2 -0 -4 -2 -4 0 -1 -3 -6 -5 -5 -5 -4 -4 -3 4 6 11 8 8 9 9 8 8 8 8
-1 -4 -3 -8 -6 -6 -5 -5 -6 -5 -6 -5 -2 -1 1 -0 -1 -1 -3 -3 -1 -1 0 0 1 0 0 -5 -5 -3 -4 -5 -5 -4 8 12 10 7 7 7 6 6 6 6 6

GFSSW_850_dewp_087.txt.gz
Dewpoint
-12 -11 -11 -11 -9 -6 -4 -5 -8 -6 -4 -13 -21 -21 -22 -25 -25 -25 -25 -13 -7 -2 -2 2 -7 10 12 15 15 15 18 19 17 17 18 15 16 15 15 13 11 11 11 13 14
-10 -13 -16 -14 -11 -10 -9 -7 -8 -9 -6 -6 -19 -20 -20 -23 -24 -26 -25 -20 -6 -5 -6 5 1 6 7 13 14 16 18 19 16 15 16 15 15 15 14 14 13 11 11 13 13
-7 -14 -18 -18 -18 -13 -11 -11 -11 -11 -9 -6 -14 -19 -18 -21 -16 -7 -2 -20 -14 -7 -11 5 5 7 9 12 15 17 17 15 15 15 15 15 15 14 14 14 10 11 11 13 12
-4 -11 -17 -18 -18 -18 -14 -13 -13 -12 -11 -8 -12 -19 -17 -19 5 4 -3 -10 -16 -9 -10 9 9 9 11 13 15 17 15 15 14 15 15 14 14 15 15 15 11 10 11 13 12
-3 -7 -14 -17 -18 -18 -18 -16 -15 -13 -12 -9 -11 -18 -16 0 -13 -5 -4 -7 -14 -11 -3 9 9 7 10 10 14 12 14 14 14 14 14 14 14 15 16 14 11 10 10 13 12
-3 -4 -10 -14 -15 -16 -17 -17 -16 -14 -13 -11 -12 -17 -14 -2 1 -0 -2 -10 -19 -13 4 10 9 5 9 9 13 14 13 14 14 14 13 14 14 14 15 13 13 10 10 10 10
-3 -3 -8 -13 -13 -14 -15 -17 -16 -15 -14 -12 -15 -16 -6 -12 2 1 -2 -7 -19 -13 7 7 6 3 6 7 10 13 14 11 13 14 14 15 17 16 14 14 15 11 10 9 9
-3 -4 -8 -13 -13 -15 -19 -18 -15 -8 -13 -15 -17 -11 -10 -4 -5 -0 -2 -3 -8 -9 7 6 3 1 1 3 7 11 13 16 13 14 15 14 19 16 14 15 14 11 10 9 9
-7 -8 -11 -12 -16 -21 -21 -16 -5 -6 -10 -15 -9 -9 2 -2 -6 -5 -2 -3 -5 -2 4 3 2 -0 -2 1 4 11 15 14 12 13 14 15 18 16 16 15 14 12 11 9 8
-12 -13 -12 -19 -21 -22 -17 -8 -3 -5 -8 -9 5 5 -1 0 -2 -4 -3 -4 -5 -1 0 1 -1 -2 -1 1 7 12 13 13 13 14 14 16 16 16 15 15 13 12 11 10 9
-9 -15 -18 -19 -17 -14 -10 -2 5 4 3 0 -2 0 -1 -3 -2 -3 -2 -5 -2 1 2 -1 -1 1 1 0 1 5 8 13 13 15 16 16 17 17 15 14 13 12 11 10 10
-4 -11 -14 -10 -8 -3 -1 -1 -2 -6 -5 -6 -2 -1 -1 -5 -4 -3 -1 -1 -1 1 -1 -1 1 -0 -0 0 1 2 6 11 13 16 15 14 16 16 15 14 13 12 12 10 10
-2 -3 -8 -6 -6 -5 -4 -3 -5 -6 -5 -6 -7 -2 -2 -6 -3 -2 -1 0 -2 -0 -0 1 0 -1 -0 -2 -1 0 3 7 12 14 14 15 17 17 15 14 14 13 12 12 10
-2 -2 -4 -10 -4 -1 -1 -2 -6 -5 -3 -5 -8 -8 -6 -6 -2 -1 -1 -0 -2 -2 -2 -1 -2 -2 -2 -3 -3 -1 -1 2 11 12 15 14 18 16 16 16 15 15 13 13 12
-0 -3 -3 -4 -5 -3 -5 -7 -6 -5 1 -9 -9 -8 -7 -6 -5 -1 -3 -2 -1 -3 -3 -2 -3 -3 -4 -4 -3 -2 0 8 9 10 12 13 16 16 16 17 16 15 13 14 14
-1 -2 -4 -2 1 0 -0 -2 -5 -1 1 -0 -10 -9 -8 -9 -8 -5 -3 -3 -4 -3 -3 -4 -7 -6 -6 -6 -5 -4 -4 6 7 11 14 10 13 18 18 17 16 15 15 14 15
-7 -2 -4 -2 -2 -1 -2 -4 1 2 2 1 0 -4 -9 -8 -8 -7 -2 -0 1 0 0 -1 -4 -6 -7 -5 -6 -5 -2 7 10 10 9 4 13 17 16 15 14 13 14 14 13
-6 -5 -4 -3 -1 -0 1 -0 5 3 3 1 0 -2 -3 -10 -8 -7 -3 1 -1 -0 1 2 -1 -5 -6 -6 -3 -3 2 6 11 10 7 4 17 17 14 14 15 12 14 14 13
-8 -9 -5 -4 -0 -2 1 7 7 3 0 0 -4 -4 -3 -7 -5 -5 -3 -1 -1 -2 1 0 -1 -6 -6 -5 -3 -0 3 1 2 3 4 16 16 14 14 14 15 16 15 12 12
-10 -9 -3 1 1 1 5 7 6 2 1 -2 -2 -0 5 2 4 7 3 -0 -2 -2 -1 1 4 -3 -6 -4 -2 -1 1 2 3 7 7 18 17 18 16 15 14 15 15 15 15
-6 -0 -0 -0 1 2 8 7 3 2 1 -3 -1 1 3 4 5 8 9 5 1 -0 -1 -0 3 4 -2 -3 0 3 4 3 2 4 6 16 17 15 14 14 14 14 15 15 16
-3 3 -1 -3 1 6 8 5 3 -3 -6 -4 -3 -0 5 7 5 7 7 7 3 1 -0 3 3 6 4 2 -0 2 3 3 5 5 7 14 17 14 13 13 13 14 15 15 15
2 2 -5 -9 4 7 6 4 3 -2 -4 -3 -2 -4 -0 6 6 3 5 3 -0 -0 1 3 5 7 4 2 -2 -1 -0 -0 1 1 4 11 17 13 13 13 13 14 14 14 14
3 4 -6 -6 -2 2 4 3 1 -5 -5 -4 -3 -4 -4 1 2 3 3 -1 -4 -1 -3 0 3 6 8 5 3 -1 -1 -3 -1 3 11 14 16 14 13 12 12 13 13 13 13
3 -1 -7 -3 -3 -5 -3 -4 -4 -3 -5 -4 1 -1 -3 1 2 2 0 -4 -5 -5 -2 2 6 3 4 4 3 0 -2 -3 -1 10 14 13 15 14 13 11 11 11 11 12 11
-2 -1 -2 -8 -6 -3 -4 -4 -4 -6 -4 -2 0 0 -2 2 1 4 1 -1 1 -1 0 -0 4 3 5 3 -3 -3 -3 -3 -4 8 11 11 14 12 11 11 11 10 10 10 10
2 2 3 2 -3 -4 -4 -5 -6 -3 -6 -7 -2 4 2 1 -1 -1 -2 -3 -1 0 2 3 3 5 6 -1 -3 0 -2 -3 1 8 11 13 13 11 10 9 8 8 7 8 7

GFSSW_850_dewp_093.txt.gz
Dewpoint
-4 -5 -9 -13 -16 -18 -15 -11 -8 -6 -6 -7 -4 -6 -21 -22 -23 -26 -26 -23 -16 -3 -4 -2 -2 11 13 14 15 16 18 17 17 18 16 15 13 13 13 14 12 13 13 14 14
-4 -4 -6 -13 -17 -18 -19 -16 -12 -10 -8 -9 -6 -4 -15 -21 -22 -27 -27 -25 -14 -3 -3 -3 -2 5 12 12 15 16 18 17 16 16 16 15 13 13 14 13 14 13 14 14 14
-4 -4 -5 -12 -17 -19 -19 -19 -14 -13 -12 -11 -9 -5 -11 -20 -23 -6 -5 -26 -12 -3 -3 -1 -2 8 7 8 13 16 17 15 14 15 15 15 15 12 13 15 14 14 15 14 14
-4 -3 -4 -10 -16 -18 -18 -18 -17 -15 -14 -12 -11 -6 -12 -18 -4 -1 -5 -16 -12 -4 -4 -2 -1 3 9 10 14 16 16 16 15 15 15 15 15 12 12 14 13 14 14 14 14
-4 -3 -4 -9 -15 -16 -16 -16 -17 -16 -14 -13 -11 -8 -12 -13 -24 -2 -5 -12 -10 -6 -6 -4 3 5 10 10 16 16 15 16 16 15 15 15 15 14 15 13 14 14 14 14 15
-5 -6 -6 -9 -13 -15 -16 -16 -17 -16 -14 -13 -11 -9 -13 -12 -11 -1 -3 -11 -16 -8 -8 -6 3 6 9 9 15 15 15 16 16 16 15 15 16 14 14 13 14 14 15 15 14
-7 -9 -10 -10 -12 -14 -17 -19 -17 -15 -12 -12 -11 -10 -12 -10 -5 1 -0 -3 -10 -12 -10 -7 9 9 9 8 11 14 16 16 15 15 15 15 16 16 14 13 14 14 15 15 14
-5 -7 -12 -15 -17 -19 -21 -19 -12 -6 -7 -10 -12 -13 -10 -10 1 2 0 -2 -6 -9 -10 -9 5 8 9 7 2 14 16 17 15 14 14 14 17 15 13 14 14 14 14 14 14
-3 -6 -11 -15 -16 -19 -19 -11 -4 -6 -10 -14 -14 -10 -8 -6 -6 -0 -2 -4 -6 -12 -13 4 4 5 4 0 2 9 17 16 17 15 14 14 16 15 14 14 13 13 13 13 13
-2 -4 -8 -9 -8 -8 -9 -5 1 1 -3 -10 -5 4 -0 -1 -3 -6 -3 -2 -12 -7 -5 -3 0 2 -1 -0 5 7 12 15 16 15 15 16 14 15 15 14 14 12 13 13 13
-2 -2 -8 -8 -8 -3 -4 -3 1 1 -1 -3 -5 -4 -6 -1 -1 -5 -6 -1 -5 -4 -1 -1 2 3 1 -1 -0 2 2 10 16 15 15 16 16 15 15 15 14 12 11 12 13
-2 -1 -5 -9 -7 -6 -5 -3 -3 0 -1 -2 -3 -3 -5 -5 -3 -2 -5 -2 -5 -2 1 2 3 0 -2 -2 -0 3 3 17 16 15 16 16 16 14 15 15 15 12 11 12 13
-8 -2 -3 -9 -6 -4 -3 -4 0 0 -1 -4 -5 -5 -7 -3 -2 -2 -4 -3 -4 -0 2 3 1 -2 -1 -1 1 1 2 13 16 15 14 15 15 14 14 15 15 14 14 11 12
-9 -9 -4 -4 -7 -3 -4 -0 0 -2 -3 -5 -6 -7 -7 -6 -4 -5 -4 -3 -1 -1 1 1 0 -1 -1 0 1 2 1 1 15 15 16 14 16 15 14 16 15 15 14 10 12
-8 -11 -7 -5 -4 -3 -1 -1 -1 -4 2 -2 -5 -8 -7 -6 -3 -3 -3 -2 0 -0 -1 1 -0 0 1 0 -1 1 1 -3 13 13 15 15 17 14 16 17 16 16 15 12 11
-9 -12 -10 -6 -4 -2 -1 -1 -2 -2 2 2 -1 -1 -6 -7 -6 -4 -2 -1 -1 -0 -2 -1 -4 -2 -1 -2 -2 -1 -3 7 12 13 14 14 15 16 17 16 16 15 15 13 11
-12 -14 -12 -9 -3 -2 -1 -1 1 1 1 1 1 -0 -2 -5 -8 -7 -5 -1 1 1 0 -2 -2 -3 -5 -4 -5 -5 -2 4 13 14 14 12 15 13 14 14 15 15 15 13 11
-12 -14 -15 -11 -4 -3 -2 1 5 4 3 -0 0 -3 1 1 0 -1 -3 -2 -1 -1 1 2 2 -1 -4 -3 -3 -4 -3 4 11 13 12 12 14 12 14 13 14 14 15 14 13
-12 -12 -12 -6 -3 -2 2 4 5 4 2 3 -1 1 3 2 3 3 4 1 1 -1 1 2 2 -2 -3 -5 -5 -3 -2 -2 4 6 8 14 15 14 15 15 15 15 14 14 14
-11 -3 -6 -4 -1 1 0 3 4 3 2 2 1 2 4 4 3 6 5 4 1 1 -0 -0 2 -0 -1 -3 -6 -5 -3 2 3 10 9 13 16 15 17 16 15 15 15 15 15
-9 -0 -2 -1 1 1 3 3 3 2 2 1 -0 3 4 4 5 6 6 4 1 0 -0 1 1 1 1 -1 -2 -0 2 2 2 5 9 13 14 15 15 15 15 15 15 15 14
-1 0 -0 -3 2 4 3 4 3 2 2 -0 1 3 4 6 5 6 6 5 2 1 1 -0 3 4 2 1 1 -1 -0 2 4 4 11 11 14 13 14 14 15 14 14 15 15
0 0 0 1 -0 3 3 4 2 2 2 -3 -2 -0 2 4 3 4 5 3 3 -1 -1 -1 3 6 3 2 1 2 -1 1 1 3 13 13 13 14 14 14 14 14 15 15 15
2 -4 -3 1 0 1 3 2 1 0 -2 -2 -2 -4 1 2 3 2 2 2 1 2 0 2 3 5 6 4 3 4 3 0 -1 3 10 11 15 14 14 13 14 14 14 15 15
-0 -2 2 -4 -5 -1 0 2 -3 -4 -6 -1 0 1 1 1 1 2 0 -2 1 5 0 2 4 4 3 3 2 3 3 -1 -1 3 9 13 15 14 13 13 14 14 14 14 14
2 3 4 3 -3 -5 -5 -4 -4 -5 -5 -2 3 1 0 1 2 2 -0 -1 0 -0 2 0 5 5 5 4 3 0 -0 -0 8 13 13 13 14 12 13 13 13 12 12 13 13
1 4 4 1 -5 -3 -3 -3 -3 -4 -4 -2 1 2 -0 -1 -2 -3 -2 -2 -2 0 1 1 3 7 7 6 3 1 -0 0 8 12 12 14 13 12 12 12 12 11 11 11 12

GFSSW_850_dewp_096.txt.gz
Dewpoint
-4 -4 -4 -8 -14 -17 -18 -17 -13 -9 -6 -6 -6 -4 -5 -20 -22 -24 -26 -24 -18 -8 -1 -1 -1 5 13 13 15 16 18 18 17 17 16 15 14 13 13 13 13 13 14 14 13
-4 -4 -4 -7 -13 -17 -18 -19 -16 -12 -10 -8 -8 -7 -4 -13 -21 -23 -27 -26 -19 -7 -4 -2 1 12 12 13 14 16 17 17 16 16 15 14 13 14 13 14 14 14 14 14 12
-4 -4 -4 -5 -11 -16 -18 -18 -18 -15 -13 -12 -10 -8 -5 -11 -22 -7 -9 -26 -19 -2 -4 -3 0 11 9 8 13 16 17 15 16 14 15 13 13 13 14 15 13 14 14 12 11
-3 -4 -4 -5 -11 -14 -15 -16 -17 -17 -15 -13 -12 -9 -5 -14 -11 -1 -4 -25 -11 -3 -1 1 -1 7 11 9 13 16 15 16 16 15 14 14 13 13 13 14 11 11 12 13 14
-6 -7 -7 -8 -12 -14 -15 -14 -15 -16 -16 -14 -12 -10 -7 -11 -20 -0 -6 -18 -4 -2 -0 1 2 8 12 11 13 16 15 16 16 15 15 15 13 13 14 13 12 12 13 13 14
-6 -9 -12 -12 -13 -14 -15 -17 -17 -16 -15 -14 -12 -10 -8 -11 -19 -2 -5 -15 -9 -3 -4 -1 2 10 9 9 15 14 15 17 17 15 15 15 15 13 15 14 14 13 14 14 13
-3 -7 -12 -16 -18 -20 -22 -21 -17 -14 -10 -10 -11 -10 -8 -6 -6 0 -4 -14 -11 -6 -6 -4 7 6 9 8 7 15 16 16 16 16 16 16 16 15 15 15 15 14 14 14 14
-2 -3 -10 -11 -12 -19 -20 -16 -6 -7 -8 -9 -11 -11 -8 -8 -5 1 -4 -9 -11 -8 -5 -3 7 8 8 8 1 15 15 17 16 16 16 16 18 16 15 15 15 15 15 15 15
-2 -2 -6 -9 -7 -12 -13 -5 -2 -2 -10 -14 -13 -12 -8 -8 -5 1 -0 -2 -5 -5 -6 -1 -6 5 4 1 2 8 17 16 17 15 15 15 17 15 15 14 15 15 15 15 15
-2 -2 -3 -7 -8 -4 -4 -4 -0 3 -2 -6 -7 2 -1 -1 -4 -1 -1 -2 -6 -7 -7 -2 1 2 -1 0 6 7 13 15 16 16 15 15 15 15 15 14 14 14 14 14 14
-5 -3 -1 -8 -8 -5 -5 -4 0 -0 0 -1 -3 -4 -5 -2 -1 -4 -6 -3 -9 -5 -1 -1 3 4 2 0 1 3 6 14 16 16 16 16 16 16 15 15 15 14 13 13 13
-8 -8 -2 -6 -7 -5 -3 -2 0 1 0 -2 -2 -2 -4 -5 -3 -4 -5 -2 -4 -2 1 1 4 2 -1 -1 0 2 13 17 16 15 15 16 16 15 15 14 14 15 13 13 13
-7 -9 -7 -4 -6 -5 -4 -0 -1 0 -1 -4 -5 -4 -6 -4 -3 -3 -3 -3 -4 1 2 4 2 0 -2 -0 1 2 4 16 16 15 14 15 15 15 14 14 14 14 14 13 12
-6 -9 -12 -5 -5 -5 -3 -1 -0 -0 -3 -4 -5 -6 -4 -4 -4 -3 -4 -3 -2 -1 2 2 1 -0 -0 0 0 2 4 11 15 15 14 14 15 14 14 16 15 14 13 13 13
-6 -10 -14 -8 -6 -4 -1 -1 -1 -3 1 -0 -3 -7 -5 -5 -4 -3 -4 -3 -0 -1 1 3 0 0 1 -0 -1 3 2 10 14 14 14 14 15 14 14 15 16 15 14 13 13
-9 -12 -15 -11 -5 -2 -2 -1 -3 -3 5 2 -1 -1 -6 -7 -7 -2 -3 -2 -1 -1 -2 1 -3 -2 -1 -1 -1 -1 1 10 12 12 14 13 14 14 16 14 15 15 15 14 13
-9 -11 -15 -13 -3 -3 -2 -1 -0 3 0 2 1 -1 -2 1 -6 -6 -1 -0 1 2 1 -1 -2 -4 -4 -3 -5 -3 1 8 14 15 14 12 15 13 14 14 14 15 13 15 14
-8 -12 -15 -12 -5 -3 -1 -0 5 3 2 1 1 -1 1 1 2 1 -4 -4 -2 -1 1 2 2 -2 -4 -3 -2 -4 1 6 13 14 13 13 15 12 14 14 14 15 15 15 14
-8 -11 -10 -5 -3 -2 1 3 4 3 2 3 -0 1 2 2 2 3 2 -0 1 -2 1 2 2 -2 -4 -5 -5 -3 -2 -2 5 6 12 13 12 13 15 15 15 15 15 15 13
-6 -5 -5 -4 -1 1 -1 2 2 3 2 1 2 2 3 3 2 4 4 3 1 0 -2 -0 2 -1 -1 -3 -5 -4 -3 1 3 9 11 10 15 12 17 16 15 15 15 15 13
-5 -2 -2 1 1 0 2 2 2 2 2 -0 1 2 4 4 5 5 5 3 1 1 -0 0 1 1 0 -1 -1 0 0 1 2 6 9 11 12 14 15 16 16 15 15 14 14
-2 0 0 -1 1 3 2 3 3 2 2 0 1 2 3 5 5 5 5 4 2 1 0 0 2 4 2 -0 1 0 -1 0 4 4 8 8 10 13 14 15 14 15 15 15 15
-0 1 0 1 1 1 1 4 3 2 1 -3 -2 0 2 4 3 4 4 3 3 2 -0 0 3 4 2 2 1 2 2 0 1 7 12 9 10 14 14 14 14 14 15 15 15
0 -3 -2 1 0 -1 2 2 1 -0 -3 -2 -1 -2 1 2 3 2 1 2 1 1 2 2 3 4 4 3 2 4 3 2 0 4 7 9 13 15 14 14 14 14 14 15 15
-1 -0 0 -2 -4 0 -1 -3 -4 -5 -7 -1 0 1 1 0 1 2 -0 -1 2 5 0 0 3 4 3 3 3 3 1 0 -1 -1 5 7 13 13 13 13 14 14 14 14 14
2 2 4 0 -5 -5 -4 -3 -5 -4 -4 -3 1 1 -0 1 1 1 -0 -1 -0 -0 1 -0 5 4 5 4 4 1 1 4 3 11 13 12 14 12 12 14 14 13 13 13 14
2 4 2 0 -5 -3 -3 -3 -3 -4 -4 -3 -1 2 -0 -1 0 -2 -2 -2 -1 -0 1 1 5 6 6 5 1 0 2 3 4 11 12 13 12 13 13 13 13 13 13 13 13

GFSSW_850_dewp_099.txt.gz
Dewpoint
-4 -4 -4 -5 -10 -15 -17 -18 -19 -14 -10 -7 -6 -5 -4 -6 -20 -23 -25 -24 -16 -4 -0 -2 5 12 12 14 15 16 18 17 17 16 15 14 14 14 13 13 14 14 13 14 14
-5 -4 -4 -5 -10 -15 -18 -19 -19 -17 -13 -11 -9 -8 -5 -3 -12 -21 -25 -26 -20 -5 0 -0 3 12 13 13 14 16 17 17 16 15 14 14 13 13 13 13 15 15 15 14 14
-4 -4 -4 -4 -8 -13 -16 -18 -19 -19 -15 -13 -11 -10 -7 -4 -17 -9 -8 -27 -20 -7 -0 -0 4 10 10 10 14 16 16 15 15 15 14 13 13 12 13 13 14 14 15 15 15
-7 -9 -9 -9 -11 -14 -15 -16 -17 -18 -17 -14 -12 -11 -7 -6 -14 0 -4 -27 -20 -6 -2 -1 9 11 12 10 12 16 15 15 14 15 14 13 13 12 12 13 13 14 13 14 13
-6 -8 -12 -13 -13 -14 -15 -15 -17 -17 -17 -15 -13 -11 -8 -6 -15 -7 -4 -21 -19 -1 -0 0 5 11 14 12 12 15 15 15 15 15 15 13 13 12 14 13 14 14 14 13 13
-3 -7 -11 -15 -16 -16 -18 -20 -19 -17 -16 -14 -13 -11 -8 -7 -16 -2 -7 -23 -5 -0 2 1 6 12 10 10 12 14 15 16 16 15 16 14 13 12 14 13 14 14 14 14 14
-2 -4 -10 -10 -15 -19 -21 -19 -15 -10 -8 -8 -10 -10 -8 -5 -6 -1 -8 -20 -1 -0 0 2 6 9 9 9 9 14 16 15 15 15 16 15 14 15 15 13 14 14 14 14 14
-2 -2 -8 -10 -9 -15 -15 -9 -3 -6 -9 -9 -10 -10 -8 -7 -6 -2 -14 -15 -2 -2 -4 -0 5 8 9 8 4 15 14 17 16 16 16 15 17 15 15 14 14 14 15 15 15
-3 -2 -3 -8 -8 -5 -5 -4 -1 1 -8 -13 -12 -11 -7 -8 -6 -1 -12 -9 -6 -5 -2 -2 4 6 4 3 5 13 16 16 18 16 17 14 16 16 15 14 14 15 15 15 15
-7 -5 -2 -8 -7 -5 -5 -4 -0 2 -0 -2 -6 0 -1 -1 -4 0 -2 -3 -5 -6 -3 -3 0 6 4 3 9 12 15 15 17 17 15 15 15 16 16 15 14 15 15 15 15
-7 -9 -6 -6 -6 -6 -3 -3 -0 -1 0 -1 -2 -3 -4 -2 -1 -1 -1 -6 -6 -5 -1 -0 6 10 8 2 2 3 9 15 17 16 16 16 16 16 15 15 15 14 14 14 14
-6 -8 -9 -5 -5 -5 -3 -1 -0 -0 0 -2 -2 -2 -4 -4 -3 -4 -1 -4 -7 -6 -1 2 5 6 2 1 1 8 13 16 16 16 15 16 17 15 15 15 15 15 14 14 14
-5 -7 -9 -11 -6 -4 -2 -1 -1 -0 -0 -3 -5 -4 -5 -4 -3 -2 -2 -4 -6 -1 -1 -1 1 2 -1 0 1 1 6 14 16 15 14 15 16 16 15 15 15 14 14 14 14
-5 -7 -11 -13 -6 -5 -2 -2 -1 -1 -2 0 -5 -5 -2 -2 -2 -3 -2 -4 -3 -3 2 2 0 3 0 0 0 2 2 13 15 13 14 13 15 15 15 15 15 14 15 14 13
-6 -10 -12 -14 -9 -4 -2 -2 -1 -4 1 0 -3 -6 -3 -5 -3 -3 -2 -3 -3 -0 1 1 2 2 2 -0 1 2 3 13 13 14 14 14 15 14 15 16 16 15 14 14 13
-8 -8 -11 -14 -7 -3 -3 -2 -3 -3 4 1 -1 -2 -6 -4 -7 -2 -2 -2 -1 -1 0 0 -2 -0 0 -1 -0 1 10 11 12 13 14 10 11 14 15 15 14 14 14 14 14
-4 -8 -14 -11 -3 -3 -3 -1 -1 4 0 1 1 -2 -0 -1 -3 -4 -2 -1 1 3 2 0 -1 -3 -3 -1 -2 -1 5 12 13 12 10 12 13 10 13 13 12 14 14 14 14
-4 -12 -14 -8 -4 -3 0 0 5 3 3 1 0 -1 1 1 2 -2 -1 0 -1 1 2 2 0 -1 -3 -2 -1 -0 1 7 12 12 10 13 13 11 12 14 13 13 14 15 14
-6 -9 -7 -4 -3 -1 -0 2 3 3 3 2 -0 1 1 1 2 1 -1 -1 -1 -1 2 3 2 -2 -3 -3 -3 -2 0 1 7 8 11 13 12 11 14 14 13 13 14 15 15
-4 -5 -3 -2 -1 1 -0 2 2 2 2 -0 2 2 1 3 1 3 2 2 0 -0 -1 1 2 -1 -1 -2 -4 -3 -4 -0 2 9 10 11 13 10 16 16 15 14 14 14 14
-2 -2 -0 1 1 -0 2 2 2 1 2 -1 1 1 3 3 4 4 4 2 0 0 0 -1 1 1 0 1 -1 -1 -1 1 -0 3 6 7 10 13 14 16 15 15 15 15 15
-1 1 0 -0 1 3 3 3 3 1 2 -0 1 2 3 4 3 4 5 4 2 0 1 1 1 2 0 0 0 1 -0 -1 1 5 4 4 7 13 14 15 15 15 15 15 15
0 1 0 0 2 2 2 2 3 1 -1 -3 -2 -0 2 3 3 3 3 2 3 1 1 2 3 3 2 2 1 2 2 2 1 4 5 4 4 13 13 15 15 15 15 16 16
-1 -0 -1 1 -0 0 2 1 -0 -1 -2 -1 -1 -0 1 2 3 3 1 1 -0 1 4 2 3 3 1 2 3 4 2 1 1 1 1 5 7 14 14 15 15 15 15 16 16
-1 1 -2 1 -2 -1 -0 -3 -4 -4 -5 -1 1 1 1 1 2 2 -0 -1 2 4 1 1 5 4 3 2 2 2 0 4 1 2 3 1 9 12 14 14 14 14 15 15 15
3 3 -0 -0 -4 -3 -3 -2 -4 -3 -3 -3 -2 -1 0 1 2 1 -0 0 1 1 2 1 5 5 5 3 3 1 0 4 6 2 3 9 8 11 13 13 14 14 14 15 15
3 3 -3 -1 -4 -3 -2 -2 -3 -3 -3 -4 -3 -1 1 -1 -2 -1 -2 -2 -1 1 3 3 5 6 5 4 2 3 2 3 7 8 9 10 11 12 13 14 14 14 14 14 14

GFSSW_850_dewp_102.txt.gz
Dewpoint
-5 -5 -4 -5 -7 -13 -16 -17 -18 -19 -14 -9 -5 -5 -4 -3 -11 -21 -20 -15 -16 -5 4 12 13 13 12 13 15 16 18 17 15 15 15 14 13 13 13 13 12 12 11 14 15
-4 -4 -4 -4 -7 -12 -16 -18 -18 -19 -17 -12 -9 -6 -6 -4 -4 -12 -21 -25 -21 -5 6 8 12 12 12 13 14 16 18 16 14 14 14 13 13 13 12 13 13 12 13 14 15
-8 -10 -9 -8 -9 -13 -17 -18 -19 -18 -18 -14 -12 -9 -7 -4 -6 -12 -5 -26 -22 -5 4 4 9 12 11 12 13 15 16 15 15 15 13 13 13 12 12 13 13 13 14 14 14
-7 -10 -13 -13 -13 -15 -16 -17 -18 -19 -19 -15 -13 -11 -8 -5 -10 1 -3 -23 -22 -0 4 2 6 10 11 12 12 16 15 14 14 14 13 13 12 11 10 11 13 13 13 13 12
-4 -9 -13 -16 -16 -16 -16 -17 -18 -18 -18 -16 -13 -12 -8 -1 -7 -6 -4 -26 -22 3 2 -0 5 11 13 12 12 14 15 14 15 15 13 12 11 12 12 12 12 12 12 11 11
-3 -6 -12 -12 -16 -19 -21 -21 -19 -18 -16 -15 -13 -11 -4 -4 -10 -7 -4 -18 2 2 -1 -2 3 11 13 11 11 13 14 14 15 15 15 12 12 11 12 12 12 11 10 10 10
-2 -3 -8 -10 -11 -18 -19 -14 -8 -7 -7 -8 -10 -10 -0 -4 -7 0 2 2 1 0 -1 -2 2 11 9 8 9 13 16 15 15 15 15 13 13 12 12 11 11 11 11 11 11
-3 -2 -4 -8 -8 -7 -7 -4 -1 -2 -11 -10 -9 -9 -4 -7 -2 1 1 4 4 -0 -1 1 6 10 8 7 7 15 15 17 15 15 16 15 16 14 12 11 12 12 11 12 12
-7 -6 -2 -6 -7 -4 -5 -4 -2 1 -7 -11 -8 -3 -6 -8 -1 -2 -6 -2 0 -3 -3 -0 3 9 7 6 9 16 17 16 17 16 16 14 16 15 14 11 12 12 12 12 13
-6 -8 -8 -4 -7 -5 -3 -4 -1 1 -0 -1 -7 2 -1 -2 -1 -2 -3 -4 -4 -4 -5 -3 1 8 8 7 9 12 15 16 16 16 14 15 16 15 15 12 11 12 12 12 12
-5 -6 -9 -8 -6 -5 -3 -2 3 5 5 -0 -3 -3 -2 -2 -0 -0 -3 -4 -6 -8 -6 -6 -0 9 11 7 4 8 13 17 17 15 14 15 15 15 15 15 13 12 12 12 12
-5 -6 -8 -12 -6 -4 -2 1 -0 0 -1 -1 -0 -1 -2 -2 -3 0 -5 -6 -7 -7 -6 -4 -1 6 8 5 3 9 13 17 17 16 16 16 16 15 14 15 14 12 12 12 12
-5 -6 -9 -12 -8 -4 -1 -0 -1 0 -1 -3 -3 -3 -2 -3 -4 -1 -3 -5 -9 -9 -4 -5 -9 3 7 6 3 5 9 14 16 15 15 14 16 17 14 14 14 14 12 12 12
-5 -8 -10 -14 -6 -5 -1 -2 -2 -2 -1 -3 -5 -3 -2 -2 -3 -4 -3 -5 -8 -8 -7 -5 -3 3 6 5 2 5 5 9 14 14 14 13 17 15 16 16 14 13 14 12 13
-7 -8 -8 -15 -9 -2 -1 -2 -1 -2 -0 -2 -5 -5 -2 -3 -2 -3 -3 -4 -5 -8 -4 -4 -2 2 3 4 1 3 2 7 9 9 10 13 12 12 14 16 15 12 12 13 12
-4 -4 -11 -15 -9 -2 -2 -2 -2 -2 4 -1 -3 -3 -5 -6 -3 -2 -3 -3 -4 -5 -5 -2 -2 0 1 -0 -0 6 9 8 7 7 10 8 10 15 15 14 14 14 14 14 13
-3 -12 -16 -7 -1 -3 -3 -0 -2 1 -1 -0 -1 -4 -4 -4 -3 -3 -2 -2 -0 -0 -3 -2 -1 -1 -0 2 0 3 7 11 13 11 11 9 10 9 12 12 12 13 14 13 13
-12 -13 -8 -4 -4 -2 2 -1 1 1 1 -1 -2 -3 -2 -2 -2 -3 -2 -1 -1 -1 -3 -1 1 -2 -3 0 3 3 4 9 11 13 7 10 10 10 10 10 10 12 13 14 14
-8 -7 -5 -4 -2 -0 -0 -1 1 1 -0 -1 -2 -3 -2 -2 -2 -2 -2 -2 -2 -1 1 -1 -2 -4 -3 -5 -3 1 4 3 6 6 7 8 7 9 10 12 11 11 11 14 14
-5 -0 -1 -1 0 1 -3 0 0 -1 -1 -2 -1 -1 -2 -1 -3 -3 -2 -2 -1 -2 -2 0 1 -3 -4 -4 -4 -3 -4 3 4 7 8 7 8 7 13 13 12 11 12 14 14
-2 -1 -1 -0 -0 -2 -1 -0 -1 -0 0 -1 -2 -1 -0 -0 0 -1 -0 -0 -1 -1 -1 -1 -1 -0 -2 -3 -4 -3 -3 -3 -3 1 3 6 6 10 11 12 12 11 12 13 15
1 -2 -2 -1 -2 -1 -1 -0 1 -2 -1 -2 -3 -2 0 0 0 0 2 2 0 -1 -1 -2 -1 1 -1 -2 -2 -2 -4 -3 -1 1 1 3 7 12 13 14 13 13 12 13 13
1 1 -1 -1 -3 -1 0 -1 -1 -2 -3 -3 -3 -3 -2 -0 1 -0 0 1 1 0 0 0 -1 1 1 -0 -1 -1 -1 -1 -3 -3 1 2 1 11 13 14 15 14 15 15 15
1 -1 -1 0 0 -2 -1 -1 -2 -4 -1 -2 -2 -3 -2 -1 -0 1 -1 -0 -0 1 0 1 -1 0 0 0 -1 0 1 0 -1 -0 -1 -1 -1 11 12 14 15 15 15 16 16
1 -1 -1 -3 -4 -3 -4 -4 -4 -3 -5 -4 -1 -2 -1 -0 0 0 -1 -1 -0 4 1 1 2 1 -1 -1 -1 1 0 0 1 -1 -1 -3 -1 0 9 13 14 15 16 16 16
2 0 -0 -2 -2 -4 -4 -4 -5 -5 -6 -6 -6 -4 -1 0 1 1 -0 0 1 1 1 0 3 3 1 1 2 1 0 0 2 1 -1 -1 0 6 9 12 14 15 15 15 16
3 0 0 -3 -3 -5 -4 -4 -4 -6 -5 -5 -5 -7 -0 -1 -1 -1 -2 -2 -1 1 1 1 1 4 1 1 2 4 1 1 2 4 4 1 3 9 12 13 14 14 15 15 15

GFSSW_850_dewp_105.txt.gz
Dewpoint
-5 -5 -5 -5 -6 -10 -15 -17 -17 -19 -19 -13 -7 -5 -4 -4 -5 -12 -5 -9 -10 -11 7 12 13 13 12 11 15 15 18 17 14 14 15 12 13 12 13 12 11 11 11 12 12
-9 -10 -9 -7 -8 -11 -15 -18 -19 -19 -19 -16 -12 -7 -5 -5 -4 0 -7 -16 -19 -10 8 11 13 12 11 12 14 16 18 16 13 12 13 12 12 12 11 11 11 11 12 13 12
-8 -11 -13 -13 -13 -14 -16 -18 -18 -19 -19 -17 -13 -11 -7 -6 3 -4 -6 -22 -21 -11 6 7 12 11 11 13 13 15 17 16 14 14 11 11 11 10 10 10 11 12 13 13 12
-5 -10 -13 -15 -16 -16 -16 -16 -18 -18 -19 -17 -14 -12 -8 -5 -3 3 -5 -17 -22 -9 4 5 8 11 11 12 12 15 15 14 14 14 12 11 11 10 8 10 11 12 12 12 11
-3 -6 -11 -11 -15 -19 -20 -20 -19 -19 -19 -18 -14 -12 -9 2 -3 0 -3 -18 -21 1 3 2 5 10 11 12 11 14 14 13 13 14 12 11 10 11 10 11 11 12 11 10 9
-2 -3 -8 -10 -11 -19 -21 -20 -17 -16 -16 -15 -14 -12 -2 -0 -4 3 1 -25 -7 3 2 0 3 8 12 12 12 13 14 15 15 14 13 11 10 10 10 11 11 11 10 9 8
-3 -3 -4 -8 -9 -10 -10 -6 -3 -7 -8 -8 -10 -10 1 -2 -3 3 -0 -6 -5 1 -1 -2 -2 7 11 10 10 14 15 14 15 15 14 14 11 11 10 10 11 9 8 8 8
-8 -6 -3 -7 -9 -4 -4 -3 -2 0 -11 -10 -9 -3 -0 -5 0 2 0 -1 -1 -1 -3 -4 -2 5 10 8 11 15 15 17 15 16 15 15 15 11 10 10 9 8 8 8 9
-7 -8 -8 -6 -8 -4 -4 -4 -2 -1 -6 -7 -0 4 -6 -6 -0 -1 -1 1 -1 -1 -2 -2 0 8 10 9 12 17 18 17 18 16 15 15 16 11 9 9 9 8 8 9 10
-5 -7 -8 -9 -8 -5 -3 -4 -2 -0 -0 -1 2 1 -3 -4 -1 -5 -7 -2 -1 -4 -5 -4 -0 9 9 9 10 16 17 17 18 16 15 16 16 14 9 9 9 9 9 10 10
-5 -6 -7 -10 -7 -5 -3 3 6 7 5 1 -4 -3 -3 -3 -1 -3 -4 -6 -5 -5 -6 -8 -2 8 9 8 7 15 18 17 17 15 15 16 16 15 14 12 11 11 10 11 11
-4 -5 -7 -10 -10 -5 -2 0 -2 -2 -1 -4 -4 -3 -3 -4 -2 -3 -4 -6 -8 -6 -7 -8 -4 -1 7 9 5 6 14 17 17 14 14 16 16 15 15 14 13 11 11 11 11
-5 -6 -10 -13 -12 -5 -0 -1 -2 -1 -0 -7 -6 -5 -3 -3 -4 -3 -6 -7 -7 -9 -8 -5 -9 -7 7 9 6 6 15 16 16 16 15 15 16 16 15 14 14 15 13 11 11
-5 -9 -7 -15 -5 -2 -2 -1 -2 -1 1 -4 -5 -3 -3 -4 -5 -3 -6 -7 -10 -10 -9 -6 -8 -8 6 7 6 6 12 14 14 15 15 14 17 16 15 15 15 13 13 12 9
-8 -3 -5 -16 -1 -3 -1 -2 -1 -0 2 -5 -7 -3 -3 -3 -4 -5 -6 -6 -7 -10 -9 -9 -7 -5 2 5 4 4 4 15 15 12 10 14 14 14 16 16 15 13 13 13 11
-1 -7 -14 -16 -11 -1 -2 -1 -0 -1 3 -3 -5 -4 -3 -6 -4 -5 -6 -5 -4 -8 -9 -7 -7 -4 -1 -0 3 3 7 7 8 9 10 12 11 13 15 16 15 12 12 12 13
-10 -16 -15 -3 -2 -2 -1 -1 -1 0 -3 -3 -5 -6 -6 -6 -4 -4 -3 -3 -2 -2 -4 -6 -3 -4 -3 1 2 6 8 11 11 9 8 9 9 12 12 12 14 13 11 11 12
-13 -8 -5 -2 -1 -1 2 1 1 -2 -2 -4 -5 -6 -5 -6 -5 -4 -3 -3 -4 -3 -6 -6 -1 -3 -2 1 2 5 6 10 13 11 8 9 9 13 10 10 11 12 11 10 11
-7 -5 0 -0 -1 0 1 2 -1 -2 -4 -4 -5 -4 -4 -6 -5 -5 -4 -4 -4 -3 -1 -4 -3 -5 -5 -4 -1 1 5 4 8 12 12 11 10 12 9 10 10 11 12 12 12
1 -2 -2 0 1 1 1 -1 -2 -3 -4 -5 -1 -3 -2 -4 -6 -5 -4 -5 -4 -4 -3 1 -1 -5 -5 -6 -6 -2 -2 3 3 9 11 8 10 12 11 10 10 10 11 13 13
-0 -2 -3 -1 1 1 -2 -2 -4 -4 -3 -3 -5 -4 -4 -3 -3 -4 0 -1 -4 -3 -3 -1 -2 -2 -4 -4 -4 -4 -2 -2 -0 1 3 5 8 11 12 10 11 10 10 12 13
0 -1 -4 -1 -0 -4 -3 -3 -3 -5 -5 -5 -5 -4 -3 -2 -3 -4 -2 1 -2 -4 -2 -3 -2 1 -1 -5 -8 -7 -6 -4 -2 2 -1 0 13 9 9 9 10 10 10 12 14
1 -3 -4 -2 -1 -3 -3 -4 -3 -4 -5 -4 -4 -4 -3 -2 -1 -2 -2 -1 -1 -3 -0 -1 -2 1 0 -2 -4 -4 -3 -6 -7 -5 -1 -0 7 9 11 12 12 11 11 12 14
-1 -2 -4 -5 -6 -4 -2 -2 -3 -5 -4 -4 -3 -4 -3 -2 -2 0 -2 -3 -2 -3 0 0 -2 -1 3 3 1 -0 -3 -4 -3 -2 -3 -3 2 10 10 12 13 13 13 13 14
-3 -3 -2 -3 -6 -5 -5 -6 -5 -4 -7 -6 -2 -4 -3 -0 -1 -0 -3 -3 -2 1 -0 -3 -0 -1 1 0 -0 -0 -2 -4 -1 -1 -0 -3 -3 -2 8 10 13 14 15 16 15
1 -4 -6 -7 -7 -6 -6 -5 -7 -7 -8 -7 -7 -9 -5 -0 1 3 -2 -2 -1 -1 -1 -3 0 4 4 -1 -1 -0 -0 1 -2 -2 -3 -3 -3 0 9 11 13 15 15 16 16
2 -1 -2 -6 -6 -6 -5 -6 -6 -8 -7 -9 -8 -9 -7 -2 -2 -2 -3 -2 -1 1 1 -0 -0 1 3 -3 -1 -0 -1 -1 -2 -2 -2 -1 -2 7 8 10 12 15 15 15 16

GFSSW_850_dewp_108.txt.gz
Dewpoint
-9 -9 -8 -7 -6 -8 -13 -16 -17 -18 -19 -19 -13 -7 -4 -4 -5 -7 -10 -8 -7 -10 0 6 12 14 12 12 15 15 17 19 15 13 10 7 12 11 11 11 10 10 10 11 10
-8 -11 -12 -13 -13 -13 -14 -17 -19 -19 -19 -19 -16 -12 -7 -5 -5 -2 -5 -6 -9 -12 5 12 12 12 12 11 14 16 18 17 14 11 10 10 12 12 12 10 11 10 11 10 10
-5 -9 -12 -15 -16 -16 -17 -18 -19 -19 -19 -20 -16 -13 -9 -6 -0 -1 -3 -4 -21 -14 8 10 12 12 11 11 13 14 18 17 15 13 11 11 12 10 10 12 11 11 10 9 9
-3 -5 -11 -12 -15 -19 -19 -19 -20 -20 -19 -20 -17 -13 -10 -7 2 2 -4 -8 -24 -13 8 7 10 12 11 12 12 14 17 15 16 12 13 9 8 8 8 10 11 12 10 10 9
-3 -3 -8 -11 -12 -19 -22 -22 -21 -20 -20 -19 -16 -13 -10 4 -1 -0 -4 -11 -24 -12 6 4 6 10 11 11 11 15 14 15 15 13 11 8 8 11 10 11 11 12 11 9 9
-4 -3 -4 -9 -11 -11 -12 -8 -6 -9 -12 -16 -14 -12 -9 2 -4 2 -1 -14 -16 -3 3 2 3 7 10 12 14 14 14 13 13 13 14 10 10 8 11 10 11 11 10 9 8
-8 -7 -4 -8 -10 -4 -3 -2 -1 -1 -10 -8 -9 -11 3 -0 -3 0 2 -11 -10 -2 2 2 1 4 8 13 12 14 15 14 15 15 16 12 12 9 9 10 10 10 9 8 8
-6 -8 -9 -7 -9 -5 -5 -4 -3 -2 -7 -10 -8 -9 3 -5 -3 2 -1 -6 -10 -3 -0 -1 -2 -2 4 11 11 14 15 16 14 15 16 14 16 9 9 10 9 8 7 8 8
-5 -6 -8 -11 -8 -6 -4 -4 -3 -2 -5 -6 2 0 0 -7 -6 -0 -1 -4 -2 -2 -2 -4 -5 -1 4 12 13 16 18 17 17 16 16 15 15 10 9 9 9 7 7 7 8
-5 -5 -7 -9 -10 -6 -4 -3 -2 -2 -0 -2 -1 3 0 -5 -5 -2 -2 -2 -3 -2 -2 -3 -2 0 6 12 14 17 16 16 18 17 16 15 14 10 8 8 7 7 7 8 9
-5 -5 -6 -9 -12 -7 -4 2 6 6 6 3 -1 -2 -4 -5 -2 -6 -7 -2 -2 -4 -4 -5 -3 2 8 9 12 12 14 17 17 15 16 16 16 14 12 8 8 8 8 9 9
-5 -6 -7 -11 -14 -8 -4 3 -3 -3 -1 1 -7 -6 -4 -4 -3 -5 -6 -6 -5 -5 -6 -7 -6 -5 3 8 12 13 16 17 16 15 16 16 16 16 15 14 11 11 10 10 11
-5 -7 -10 -15 -16 -9 -4 -0 -2 -3 -1 -7 -8 -7 -6 -5 -4 -5 -5 -8 -8 -8 -7 -5 -8 -10 -6 4 14 15 15 16 16 15 15 16 16 16 14 14 14 14 14 12 11
-7 -8 -4 -17 -3 -1 -2 -2 -3 -2 1 -5 -8 -5 -5 -6 -6 -4 -6 -7 -8 -8 -11 -9 -8 -9 -7 2 7 16 13 13 15 16 17 14 17 15 15 14 13 14 14 13 12
-5 -2 -8 -18 0 -2 -1 -5 -3 -2 7 -5 -8 -4 -5 -5 -6 -5 -6 -8 -7 -10 -11 -9 -8 -6 -7 4 4 12 11 11 14 15 13 15 15 16 15 15 14 13 13 13 13
-3 -14 -19 -19 -12 -2 -4 -4 -3 0 8 -3 -6 -5 -5 -5 -5 -6 -5 -6 -7 -6 -11 -10 -11 -9 -7 -2 2 7 11 11 13 16 18 15 15 14 15 14 12 11 10 13 13
-14 -16 -14 -1 -0 -4 -3 -2 1 3 -0 -4 -6 -8 -5 -7 -5 -5 -7 -5 -3 -2 -5 -9 -6 -7 -5 -1 1 4 12 14 17 19 16 10 15 14 13 13 11 10 9 11 11
-9 -6 -5 -3 1 -2 -1 2 6 3 -5 -6 -8 -7 -4 -7 -5 -5 -4 -4 -5 -4 -6 -5 -5 -5 -6 -2 1 2 4 8 12 12 16 15 13 12 11 11 11 11 11 11 11
-6 -4 -1 -0 -2 -1 0 4 2 -2 -6 -7 -7 -6 -2 -7 -4 -6 -4 -5 -6 -4 -2 1 -6 -8 -5 -4 -1 2 4 2 10 11 10 14 12 11 10 10 12 12 12 11 12
-2 3 -4 -3 -1 1 2 -0 -4 -6 -8 -6 -0 -2 1 -2 -8 -6 -4 -6 -3 -4 -5 0 3 -6 -6 -6 -4 -1 -1 3 2 12 13 13 12 17 13 13 13 13 13 12 10
-4 2 -8 -3 -1 1 3 -4 -5 -6 -5 -4 -2 -2 -1 -2 -3 -2 -1 -1 -2 -2 -4 -2 1 1 -5 -4 -4 -5 -1 -0 -1 1 6 15 15 15 12 12 11 13 12 12 10
0 2 -6 -2 -0 -2 -3 -5 -5 -6 -8 -6 -7 -5 -2 -2 -4 -3 -1 -0 -2 -4 -3 -4 -1 3 0 -5 -6 -6 -6 -3 0 4 2 4 12 11 13 14 12 9 12 12 11
2 -1 -7 -4 -1 -3 -5 -5 -4 -4 -6 -5 -5 -5 -4 -3 -1 0 -1 0 -3 -5 1 -0 0 0 1 -0 -4 -6 -6 -7 -7 -5 2 1 10 11 11 13 10 10 11 13 13
2 -1 -4 -5 -6 -5 -3 -3 -3 -7 -5 -5 -4 -6 -5 -3 -4 1 3 -5 -4 -6 -2 -2 0 -0 3 6 3 1 -6 -6 -3 -4 -4 -4 11 11 12 10 10 10 13 14 14
-0 -0 -3 -2 -6 -6 -5 -5 -6 -5 -7 -7 -4 -5 -5 -1 2 2 -1 -4 -3 -1 -4 -5 0 -1 2 1 1 2 1 -0 -3 -3 -2 -2 1 10 10 10 10 12 13 15 15
3 1 -5 -7 -6 -6 -6 -5 -8 -8 -8 -7 -7 -9 -11 -3 -0 2 -0 -1 2 -1 -2 -4 -0 -1 2 1 0 0 -1 1 -2 -5 -3 -2 -0 7 13 12 12 14 16 15 14
1 0 -2 -5 -7 -6 -5 -6 -7 -8 -7 -10 -9 -8 -10 -3 -2 -3 -3 -4 -2 2 5 4 -1 1 2 0 -1 2 -1 1 -0 -1 -3 -2 7 3 11 14 15 15 15 16 16

GFSSW_850_dewp_111.txt.gz
Dewpoint
-8 -10 -12 -13 -13 -13 -13 -16 -18 -18 -18 -19 -19 -14 -7 -4 -5 -6 -15 -19 -9 -8 -8 3 14 14 14 12 14 15 17 18 16 15 11 12 14 12 10 10 10 11 10 12 13
-5 -9 -12 -14 -17 -17 -17 -18 -18 -19 -19 -19 -19 -16 -12 -7 -5 -6 -18 -10 -7 -9 -7 7 11 13 14 12 14 15 17 18 16 16 13 13 13 10 12 12 11 11 11 12 13
-3 -5 -11 -13 -15 -19 -20 -19 -19 -19 -20 -20 -19 -16 -13 -8 -7 -0 -6 -13 -7 -10 -7 11 12 12 12 11 12 16 17 15 15 16 11 12 12 11 12 13 12 11 11 10 10
-3 -3 -8 -12 -13 -19 -22 -23 -22 -21 -20 -20 -19 -15 -13 -8 5 2 -3 -7 -4 -12 -10 9 9 11 12 12 11 16 16 16 15 14 15 12 12 10 11 12 11 10 10 9 9
-5 -5 -5 -9 -10 -10 -11 -9 -9 -13 -18 -19 -18 -14 -12 1 -3 -0 -3 -7 -10 -17 -7 8 8 9 13 11 12 15 15 15 14 14 16 13 11 11 11 11 10 9 10 9 8
-8 -9 -6 -9 -11 -4 -3 -2 -1 -3 -9 -10 -14 -13 -11 2 1 -1 1 -12 -20 -17 1 6 5 6 11 11 13 15 16 15 16 17 15 12 11 11 12 12 11 10 9 9 8
-6 -8 -10 -8 -9 -6 -4 -4 -3 -2 -9 -9 -8 -10 -7 -5 -3 -1 2 -7 -23 -16 -0 4 3 2 5 13 13 14 16 15 16 15 15 14 12 12 12 12 11 11 9 9 10
-6 -6 -7 -10 -10 -9 -4 -4 -4 -3 -5 -9 -8 -8 -8 -1 -3 -0 2 -4 -14 -7 1 2 2 1 -2 12 16 17 15 17 16 16 15 16 15 11 11 11 11 10 9 8 8
-5 -6 -6 -8 -12 -10 -5 -4 -4 -3 -1 -3 2 6 5 -3 -5 -2 -0 -4 -10 -9 -1 -0 -2 -3 -4 6 14 15 17 15 15 15 14 16 14 10 10 10 10 9 9 8 9
-5 -5 -6 -7 -10 -12 -6 -4 -0 0 0 -2 -3 5 1 -1 -5 -2 -1 -4 -5 -4 -1 -1 -3 -3 0 6 16 17 16 15 16 16 16 16 14 12 10 9 9 8 8 8 9
-5 -6 -6 -9 -11 -13 -6 -3 4 4 1 3 3 -0 -4 -2 -2 -3 -3 -2 -3 -3 -1 -3 -1 1 1 4 13 13 15 17 16 16 16 17 16 15 14 10 8 7 8 9 9
-6 -6 -9 -13 -15 -15 -7 -1 0 -3 -2 -1 -1 -6 -5 -4 -3 -5 -6 -3 -1 -2 -3 -3 -2 -4 -3 11 13 15 16 16 16 15 16 16 16 15 15 15 14 14 8 9 10
-7 -10 -10 -13 -17 -15 -9 -2 -2 -3 -1 -1 -0 -8 -6 -7 -4 -4 -6 -7 -4 -3 -5 -3 -5 -8 -8 11 15 14 16 16 16 15 14 16 16 16 15 14 13 13 14 10 10
-8 -3 -6 -16 -4 -2 -1 -3 -3 -3 2 -4 -9 -6 -6 -6 -6 -5 -5 -7 -7 -7 -8 -7 -7 -7 -9 2 13 15 14 14 15 15 16 15 17 15 15 14 14 13 14 12 12
-2 -10 -16 -13 -1 -2 -3 -5 -4 -2 9 0 -6 -4 -4 -6 -6 -4 -5 -6 -5 -6 -8 -8 -9 -8 -5 5 11 14 13 15 14 15 16 16 17 15 14 14 14 12 12 13 12
-8 -17 -20 -21 -13 -3 -4 -4 -4 1 7 2 -7 -6 -5 -6 -5 -5 -5 -7 -7 -5 -5 -10 -11 -10 -7 8 8 13 15 14 14 15 17 15 16 14 16 14 13 12 12 13 13
-10 -13 -16 -9 1 -1 -3 -1 4 5 1 -1 -5 -6 -5 -4 -5 -5 -4 -4 -3 -1 -1 -7 -10 -8 -7 8 9 13 14 16 17 17 17 14 16 15 12 12 11 10 11 11 13
-8 -7 -6 -3 -4 -2 -1 2 8 4 1 -6 -7 -7 -2 -2 -5 -5 -5 -5 -5 -4 -2 -3 -5 -5 -6 2 10 11 11 13 15 16 16 15 17 15 11 11 11 10 9 11 13
-7 -4 -2 -1 -3 -1 -0 6 3 -2 -6 -5 -4 -0 0 -2 -3 -4 -3 -4 -5 -5 -1 2 2 -7 -6 -6 -2 3 9 5 13 12 11 15 15 15 13 11 11 11 10 11 13
-5 -2 -0 0 -2 -0 3 4 -4 -7 -6 -2 1 -0 2 1 -2 -2 1 -1 -2 -2 -3 0 4 1 -7 -5 -5 2 1 4 7 14 15 14 12 16 13 14 12 11 9 10 12
-5 -0 -1 -2 -1 0 5 0 -4 -8 -6 -4 -2 -0 1 1 -2 -0 1 0 -0 -2 -4 -2 2 3 -2 -3 -2 -2 -0 1 2 5 12 16 14 13 11 13 14 14 12 11 11
-1 4 -5 -2 1 1 1 -5 -6 -7 -8 -6 -6 -4 1 -1 -1 2 2 0 -3 -5 0 1 1 4 3 -1 -5 -5 -4 -1 4 3 4 8 12 9 10 12 13 12 12 13 12
-1 0 1 -4 1 1 -4 -6 -5 -5 -5 -4 -3 -4 -4 -3 1 2 2 -0 -2 -5 2 -0 4 4 3 2 2 -3 -4 -4 -4 -5 -1 4 11 11 11 8 12 9 12 14 13
1 5 -2 -5 -6 -3 -1 -1 -3 -7 -6 -7 -4 -5 -3 -1 2 4 -0 -2 -4 -4 -3 -3 -0 4 7 7 6 5 3 0 -4 -1 -1 -0 14 11 10 11 11 4 7 14 14
2 2 2 2 -2 -3 -4 -3 -6 -5 -8 -8 -4 -5 -5 -1 4 5 3 -0 -1 -2 -4 -3 1 1 2 2 2 2 2 2 2 2 1 5 12 14 13 13 12 11 12 13 13
2 4 3 -2 -7 -4 -6 -4 -6 -7 -6 -5 -5 -7 -6 -6 2 5 3 1 2 1 3 1 2 2 2 1 1 2 2 1 1 2 -0 11 14 11 12 13 15 15 16 16 15
6 5 5 1 -2 -4 -2 -5 -7 -5 -6 -9 -7 -6 -5 -1 -2 -2 -7 -6 -3 1 4 4 7 7 5 2 2 3 5 4 4 7 11 16 15 14 12 12 12 11 13 15 16

GFSSW_850_dewp_114.txt.gz
Dewpoint
-5 -10 -13 -14 -18 -18 -18 -18 -18 -19 -18 -18 -19 -19 -14 -8 -5 -6 -14 -19 -12 -7 -6 -3 10 13 13 14 15 14 17 17 16 16 14 11 10 10 11 12 11 12 13 14 14
-4 -6 -11 -13 -15 -19 -20 -20 -19 -20 -20 -19 -19 -19 -15 -12 -7 -7 -13 -20 -10 -8 -8 8 13 14 13 14 14 15 17 17 15 15 15 10 11 10 10 10 11 12 13 13 13
-4 -4 -9 -12 -13 -19 -22 -22 -22 -22 -20 -20 -20 -18 -15 -12 -7 0 -3 -18 -13 -9 -9 7 10 9 12 12 14 15 17 15 13 14 15 13 9 11 11 12 10 13 14 13 13
-6 -5 -7 -9 -10 -9 -10 -10 -12 -16 -20 -20 -20 -17 -14 -11 4 1 -2 -6 -12 -12 -10 3 10 9 11 12 13 16 14 14 14 14 15 14 12 12 12 12 10 12 13 13 13
-8 -9 -8 -9 -10 -4 -3 -3 -2 -4 -9 -15 -18 -15 -13 -5 -6 -1 -3 -6 -7 -14 -13 2 10 8 13 12 14 15 15 14 15 14 15 14 14 12 12 11 11 12 12 13 13
-7 -8 -9 -10 -9 -7 -4 -4 -3 -3 -8 -9 -10 -13 -12 -0 0 -0 1 -7 -14 -16 -14 -3 7 6 10 12 13 15 15 15 15 15 17 15 13 12 12 11 11 10 11 12 12
-6 -6 -6 -8 -11 -10 -5 -4 -4 -4 -5 -9 -8 -9 -10 -13 -1 4 2 2 -14 -20 -7 7 6 5 3 14 15 15 16 15 16 16 16 15 13 13 11 10 10 10 9 9 10
-6 -6 -6 -7 -9 -12 -6 -5 -4 -3 -3 -5 -7 0 -11 -4 -3 -1 0 -1 -22 -19 0 4 3 2 1 12 14 15 16 18 16 16 15 15 16 12 11 10 10 9 9 9 12
-5 -5 -6 -7 -9 -13 -8 -6 -3 -2 -1 -2 -2 4 -0 -2 -4 -4 1 -0 -15 -7 -12 1 -1 -0 -2 11 16 16 17 16 16 15 15 15 15 13 11 11 11 9 9 11 12
-6 -6 -7 -8 -10 -14 -10 -3 1 3 -1 2 1 3 -1 -3 -4 -6 -0 -1 -8 -9 -9 -8 -3 -3 -1 6 15 17 16 15 16 16 15 16 16 15 11 11 10 9 9 10 12
-7 -7 -8 -11 -14 -16 -8 -2 1 2 0 -1 -1 1 -1 -5 -3 -2 -1 -1 -3 -7 -2 -2 -1 0 -1 2 12 14 15 17 16 16 16 16 16 15 15 12 10 9 9 10 11
-8 -11 -11 -13 -18 -17 -5 -3 -3 -1 -1 -2 -1 0 -3 -3 -3 -5 -3 -3 -2 -2 -2 -2 -0 -2 2 11 13 14 16 16 15 16 16 16 16 15 14 14 14 12 9 9 11
-9 -4 -7 -15 -18 -13 -5 -3 -2 -2 -2 -2 -1 -1 -6 -7 -5 -5 -7 -6 -1 -0 -3 -2 -3 -3 8 13 12 14 15 15 16 15 15 16 16 16 14 14 14 13 13 9 9
-3 -10 -19 -9 -5 -2 -3 -4 -4 -3 1 1 -6 -7 -7 -6 -6 -5 -6 -7 -7 -1 -3 -5 -6 -5 -4 14 13 16 13 14 15 14 15 15 17 15 14 13 14 13 13 10 9
-4 -16 -23 -7 -3 -4 -4 -4 -4 -4 7 0 -6 -4 -4 -6 -6 -5 -5 -5 -4 -4 -8 -7 -10 -7 -6 13 11 13 13 13 13 15 15 15 15 14 14 14 14 12 12 13 10
-5 -14 -21 -19 -6 -4 -4 -3 -2 1 6 2 -6 -6 -5 -5 -5 -5 -5 -6 -7 -6 -5 -5 -8 -10 -6 10 9 11 14 14 14 15 16 14 16 15 14 13 11 12 12 13 12
-7 -10 -12 -5 -2 -2 -2 -1 5 5 1 1 -2 -6 -5 -4 -4 -4 -3 -4 -4 -2 -1 -3 -6 0 10 13 13 13 14 17 16 16 16 14 16 14 13 12 11 10 12 12 13
-7 -5 -5 -2 -5 -1 -1 2 8 5 2 -1 -7 -4 -3 -3 -4 -4 -4 -4 -6 -4 -2 -1 -3 2 4 12 14 13 12 15 16 16 16 15 17 15 11 10 11 11 11 12 13
-6 -3 -1 -4 -4 -2 -1 5 3 -4 -5 -2 -2 -1 -2 -3 -1 -4 -3 -5 -4 -5 -3 1 1 -1 2 5 11 12 12 10 12 12 13 15 13 13 12 11 11 11 11 11 11
-5 -2 -2 -2 -2 -1 2 5 -2 -7 -5 -3 0 0 2 1 -1 -1 0 -0 1 -2 -3 -1 2 1 0 -1 8 7 6 7 8 14 14 15 13 15 14 14 11 10 10 10 11
-5 -0 -3 -2 -1 1 4 4 -4 -9 -6 -5 -3 0 0 1 -1 1 1 -0 -1 -3 -1 -1 2 2 -1 -3 -3 -3 -1 -0 3 9 11 15 14 13 12 13 13 11 10 10 12
-5 1 -1 -1 -1 1 2 -4 -5 -6 -6 -4 -5 -1 -1 -2 1 2 2 1 -1 -3 1 -0 1 3 1 -1 -0 -5 -4 -1 2 2 3 10 7 10 11 11 12 13 12 10 10
-3 -2 0 0 -2 -1 -1 -6 -5 -7 -6 -5 -4 -5 -4 2 1 2 1 -1 -2 -1 -1 -2 3 5 4 2 2 4 2 1 -2 -3 -3 -0 0 11 10 10 12 12 13 12 10
-2 3 2 1 -3 -4 -2 -2 -5 -7 -7 -8 -7 -6 -5 1 2 3 2 1 -2 -2 -2 -2 1 5 5 3 4 5 3 1 -2 -0 -1 -1 3 11 14 15 15 16 12 12 13
1 2 4 4 -2 -5 -7 -6 -5 -5 -8 -8 -6 -7 -8 -8 2 3 3 1 -1 -1 -3 -4 -2 2 3 1 2 3 3 3 2 5 3 5 14 14 16 14 13 14 13 15 15
1 7 6 6 2 -3 -5 -5 -6 -7 -8 -8 -7 -8 -8 -1 2 2 -2 -2 -0 -1 2 2 2 4 3 1 1 2 6 11 11 11 13 14 16 14 14 13 12 14 13 12 13
6 6 7 5 5 4 -3 -6 -5 -5 -4 -6 -8 -9 -6 -4 -7 -6 -6 -1 1 2 4 4 5 6 4 3 2 7 8 11 12 14 14 15 14 12 13 14 15 13 12 12 9

GFSSW_850_dewp_117.txt.gz
Dewpoint
-4 -9 -11 -12 -16 -19 -19 -18 -19 -19 -19 -18 -18 -20 -18 -13 -7 -7 -12 -19 -7 -4 -4 1 7 11 13 14 15 14 16 17 15 15 14 11 12 11 12 13 12 13 13 13 13
-5 -6 -10 -11 -13 -19 -21 -22 -22 -20 -20 -19 -19 -19 -19 -16 -10 -8 -11 -20 -12 -9 -3 5 8 12 13 14 14 15 16 16 15 15 15 10 11 11 12 12 13 13 14 13 14
-7 -6 -8 -10 -8 -8 -9 -10 -14 -19 -21 -20 -20 -19 -17 -15 -8 -0 -3 -15 -10 -10 -3 3 10 11 11 14 15 15 16 14 14 14 15 15 12 11 12 13 13 14 13 14 14
-8 -9 -9 -9 -10 -4 -3 -3 -2 -4 -10 -19 -20 -18 -16 -13 -0 -1 -4 -14 -15 -11 -5 4 10 10 11 13 15 15 15 15 14 14 15 14 14 10 10 12 12 13 13 14 13
-6 -7 -8 -9 -10 -7 -4 -4 -4 -3 -7 -9 -15 -16 -15 -12 -5 -1 -1 -8 -11 -11 -2 6 9 10 10 13 14 15 14 14 14 15 14 14 14 12 11 11 12 13 13 13 13
-6 -6 -6 -7 -10 -10 -6 -5 -4 -4 -4 -9 -8 -11 -12 -7 1 1 1 -5 -8 -14 -11 -2 10 9 7 10 14 14 15 14 14 15 15 15 14 14 12 11 12 13 14 13 13
-6 -6 -6 -7 -8 -11 -8 -6 -5 -5 -4 -5 -8 -8 -10 -9 0 4 3 0 -8 -14 -12 -0 7 5 3 11 15 15 16 15 15 15 15 15 15 14 12 12 13 13 14 14 13
-5 -6 -6 -7 -8 -11 -11 -7 -4 -3 -2 -3 -5 2 -7 -8 -2 -1 0 -0 -15 -15 -12 -3 2 2 1 12 14 14 16 17 16 15 14 15 16 14 11 11 13 13 14 14 13
-7 -6 -7 -8 -10 -13 -12 -7 -2 -0 -1 -2 -2 -1 -3 -1 -4 -2 -1 0 -18 -13 -13 -4 -2 -1 4 12 15 15 17 16 16 14 16 15 16 13 11 11 11 10 11 13 13
-8 -8 -9 -10 -13 -17 -9 -2 -0 2 2 2 3 1 -2 -1 -4 -5 -2 1 -10 -9 -8 -7 -5 -3 -1 5 13 16 17 16 16 15 16 15 16 14 11 11 10 10 11 12 13
-10 -11 -13 -15 -18 -13 -4 -4 -1 -1 -0 -1 -2 -0 -2 -3 -3 -5 -4 -1 -3 -8 -4 -2 -1 0 -2 1 11 14 15 16 16 15 16 16 16 15 14 13 11 10 11 13 13
-8 -5 -8 -15 -20 -4 -4 -3 -2 -1 -2 -2 -2 -1 -4 -3 -2 -3 -1 -2 -3 -3 -2 -1 -0 -2 -2 7 13 15 15 16 15 15 16 16 16 16 15 14 13 13 9 12 12
-5 -10 -18 -20 -16 -5 -3 -1 -3 -3 -2 -2 -1 -1 -6 -6 -5 -5 -5 -3 -2 -1 -2 -0 -2 -3 11 13 14 14 15 15 15 15 14 16 16 16 15 14 13 13 12 11 12
-5 -13 -20 -10 -4 -2 -4 -3 -2 -4 1 -0 -7 -4 -4 -7 -6 -5 -6 -7 -6 -1 -1 -3 -4 -3 13 13 12 15 13 13 15 15 15 15 16 16 15 14 13 13 13 11 12
-6 -13 -18 -3 -3 -4 -2 -3 -2 -3 2 -2 -3 -5 -6 -6 -6 -5 -4 -6 -5 -4 -7 -4 -7 -4 -2 13 10 11 13 13 14 15 14 15 16 14 15 16 14 12 13 12 12
-7 -12 -20 -6 -5 -3 -3 -1 -2 2 4 1 -4 -6 -5 -5 -5 -5 -5 -5 -6 -5 -6 -5 -6 -9 -5 4 10 12 13 13 14 14 15 14 16 15 15 15 13 11 12 13 10
-7 -8 -10 -4 -4 -3 -1 0 2 4 0 0 -1 -6 -5 -4 -4 -4 -4 -5 -4 -2 -2 -3 -4 10 11 13 13 13 13 15 16 16 15 15 15 14 12 11 11 10 12 12 11
-5 -3 -3 -3 -4 -2 -1 2 4 3 3 -2 -3 -4 -2 -3 -3 -4 -3 -3 -6 -4 -3 -1 7 11 9 11 13 12 12 14 16 16 15 15 16 14 11 10 10 10 11 12 13
-5 -3 -5 -7 -4 -2 -1 4 -1 -4 -6 -2 -1 0 0 -1 -1 -3 -4 -5 -3 -5 -3 0 0 -3 9 10 10 12 12 9 12 12 14 15 14 11 12 11 11 10 10 11 13
-4 -3 -3 -2 -2 -1 2 4 3 -7 -5 -4 1 -0 1 0 -1 -0 0 0 -0 -3 -4 -1 1 -0 1 10 10 10 8 11 10 13 14 14 14 14 14 13 12 12 10 12 12
-5 -3 0 -1 -1 1 2 3 1 -7 -6 -5 -1 -0 0 0 -0 1 2 0 -1 -4 -2 -1 1 1 -1 1 11 1 2 2 6 9 11 13 12 11 12 13 12 11 11 11 12
-6 -4 1 0 -0 1 2 1 -5 -7 -6 -4 -5 -3 -3 0 1 1 2 0 -1 -1 -1 -1 1 2 1 -1 -0 -0 -1 -1 2 2 5 7 3 11 13 13 13 13 11 11 11
-4 -4 0 -0 2 -2 -2 -2 -5 -7 -6 -6 -4 -5 -1 1 1 2 2 -0 -1 -1 -3 -3 3 8 5 1 1 4 3 1 -2 -2 -1 -1 1 14 14 15 15 12 13 11 10
-2 -0 2 2 -0 -4 -3 -3 -5 -7 -7 -8 -8 -9 -6 -4 1 2 2 1 -1 -1 -2 -2 2 6 8 3 2 5 3 2 -0 4 3 -1 13 15 13 15 13 15 14 13 12
0 1 4 5 4 -0 -5 -6 -5 -6 -8 -8 -8 -8 -9 0 1 2 -0 -2 -2 -2 -0 -4 -0 1 4 5 1 3 10 11 10 10 4 13 15 15 15 13 14 13 14 14 14
4 8 7 7 5 3 -4 -6 -7 -7 -8 -8 -7 -7 -2 -1 1 0 -2 -5 -1 -1 2 2 1 3 2 3 4 11 11 11 12 14 14 15 15 12 14 14 14 14 12 9 12
5 7 8 6 5 4 2 -4 -7 -4 -4 -8 -8 -9 -4 -5 -6 -5 -2 3 4 3 3 4 4 4 3 3 4 7 10 12 12 14 13 13 12 12 13 13 12 13 13 12 14

GFSSW_850_dewp_120.txt.gz
Dewpoint
-5 -8 -10 -11 -14 -20 -22 -22 -21 -20 -20 -19 -18 -19 -20 -16 -10 -8 -11 -18 -7 -3 -4 0 7 10 12 14 15 14 15 16 15 14 13 12 13 12 13 13 12 13 13 13 13
-7 -8 -9 -10 -7 -7 -8 -11 -17 -21 -21 -20 -19 -19 -20 -18 -13 -10 -10 -19 -7 -4 -2 4 7 12 13 14 14 14 15 15 15 15 15 11 12 12 13 13 14 14 12 13 14
-8 -9 -9 -9 -8 -4 -3 -2 -3 -6 -14 -20 -20 -19 -18 -17 -9 -1 -2 -18 -10 -8 -3 6 10 13 12 14 15 15 15 15 14 14 15 15 12 12 13 14 14 13 13 14 14
-7 -7 -7 -9 -10 -7 -4 -4 -4 -3 -7 -11 -19 -18 -17 -12 -4 -1 -4 -10 -10 -8 -5 9 11 10 12 13 14 15 15 14 15 15 14 14 13 11 12 13 12 12 13 13 13
-6 -6 -6 -7 -9 -11 -6 -5 -4 -5 -5 -9 -10 -15 -15 -14 -3 -1 -1 -13 -11 -9 -5 9 11 10 10 13 14 15 15 14 15 14 14 14 14 12 11 12 11 13 13 13 13
-6 -6 -6 -6 -8 -11 -9 -6 -5 -5 -5 -6 -9 -10 -13 -11 1 1 -2 -9 -12 -8 -5 5 10 11 7 7 14 15 15 15 15 15 14 15 14 12 12 12 12 12 13 13 12
-6 -6 -6 -7 -8 -11 -12 -7 -5 -4 -3 -4 -5 -1 -9 -3 1 2 2 -2 -6 -7 -8 -1 9 5 2 13 15 15 15 15 16 15 15 14 15 15 13 12 13 13 13 14 13
-8 -7 -7 -8 -9 -13 -13 -8 -3 -1 -3 -2 -2 -2 -6 -3 0 -1 0 2 -9 -8 -8 -9 5 2 2 13 14 15 15 17 16 15 15 15 16 15 13 13 14 14 14 14 13
-9 -9 -9 -10 -13 -16 -10 -4 -2 2 1 -0 1 -1 -2 -2 -3 -3 -1 -1 -16 -14 -9 -3 -1 -1 10 13 14 14 16 16 16 15 15 15 16 13 13 13 14 14 14 14 14
-11 -12 -13 -15 -17 -14 -6 -4 -1 1 -0 0 1 -1 -2 -1 -2 -3 -2 -3 -11 -8 -9 -7 -4 -2 -1 5 10 15 16 15 16 15 15 15 16 13 12 13 13 14 14 14 14
-7 -7 -10 -17 -19 -6 -4 -3 -2 -1 -2 -2 -2 -2 -2 -2 -3 -6 -2 0 -4 -7 -3 -3 -0 0 -2 0 9 14 15 15 15 15 16 16 16 14 13 12 12 11 12 13 13
-6 -11 -19 -22 -9 -5 -3 -2 -1 -1 -2 -2 -2 -2 -4 -3 -3 -4 -4 -2 -3 -2 -2 -2 0 -2 -2 3 13 14 15 16 16 15 16 16 16 15 15 14 11 10 11 11 13
-6 -15 -20 -18 -7 -4 -3 -1 -1 -2 -2 -2 -1 -1 -4 -5 -5 -4 -2 -2 -2 -2 -2 -0 -1 -3 11 13 14 14 14 15 16 15 15 16 16 16 15 15 14 12 10 11 11
-7 -19 -15 -9 -4 -3 -3 -2 -2 -3 -1 -2 -6 -4 -3 -7 -6 -5 -5 -5 -6 -1 -2 -2 -4 5 13 14 13 14 13 14 15 14 17 15 17 16 16 15 13 13 13 12 13
-7 -18 -9 -3 -3 -4 -2 -2 -1 -3 1 -2 -2 -5 -6 -6 -6 -5 -5 -6 -5 -5 -5 -3 -6 -2 13 12 11 13 13 14 14 15 14 16 16 14 15 16 15 13 13 11 12
-6 -12 -8 -3 -4 -4 -2 -0 -1 0 4 1 -2 -6 -5 -5 -5 -5 -5 -5 -6 -5 -5 -5 -6 -6 -1 7 10 11 13 13 13 13 14 14 15 14 16 15 14 13 12 12 11
-3 -6 -8 -6 -6 -3 -1 -0 -1 3 -0 -1 -2 -6 -5 -4 -4 -4 -5 -4 -4 -2 -2 -4 -2 10 11 13 12 12 12 14 14 15 15 14 15 13 12 13 13 13 12 12 11
-6 -3 -4 -7 -4 -4 -2 -3 -0 -1 1 -2 -2 -3 -2 -2 -3 -4 -3 -2 -6 -4 -3 -1 3 12 10 13 14 12 11 13 15 16 15 15 16 13 11 11 12 12 11 11 12
-3 -3 -7 -7 -5 -3 -0 1 -3 -3 -6 -2 -2 0 -0 -1 -2 -2 -4 -5 -4 -5 -4 -0 0 1 9 11 11 12 12 9 12 12 13 14 14 10 11 10 10 11 11 12 12
-3 -3 -3 -3 -1 -1 1 3 3 -2 -6 -3 0 -0 1 0 -1 0 1 -0 -1 -4 -5 -2 1 0 8 10 10 10 10 10 11 14 14 12 14 13 13 12 11 10 10 12 13
-4 -2 0 -1 -0 -0 2 2 1 -4 -6 -5 -1 -1 -1 -1 0 1 2 -1 -0 -2 -2 -1 1 2 1 8 10 7 9 4 7 9 10 12 8 13 15 13 12 11 11 11 13
-5 -2 0 -1 -0 1 1 1 -3 -6 -6 -5 -5 -4 -1 1 2 1 2 1 -0 -1 -2 -1 1 2 2 -0 -0 3 0 0 6 3 6 6 4 14 15 15 13 13 11 11 12
-5 -3 -0 -0 1 -0 -3 -4 -4 -7 -7 -5 -6 -3 -1 1 1 2 1 -1 -1 -2 -2 -2 2 6 5 4 0 3 3 0 -2 -2 1 0 4 12 13 13 14 13 12 11 12
-3 -1 2 0 -1 -3 -3 -3 -5 -7 -8 -8 -9 -9 -7 -1 1 -0 -1 -1 -2 2 -2 -0 3 5 7 5 2 4 4 1 0 0 -0 -1 15 14 14 14 14 14 14 11 11
1 2 5 5 4 2 -1 -5 -4 -7 -8 -8 -8 -7 -7 1 1 0 -1 -5 -3 -0 1 -4 2 1 3 5 2 4 10 12 12 11 4 12 14 14 14 14 14 12 14 14 13
6 8 7 6 5 3 -3 -6 -7 -7 -8 -8 -8 -6 -2 -0 0 0 -2 -5 -3 0 2 2 1 3 1 3 7 11 11 11 13 14 13 13 14 12 13 13 13 14 12 14 15
2 6 8 6 5 3 3 3 -6 -5 -6 -9 -8 -4 -4 -4 -4 -4 -1 2 3 3 3 3 3 3 1 3 6 6 9 12 12 13 12 13 13 13 13 12 12 12 12 13 13

GFSSW_850_dewp_123.txt.gz
Dewpoint
-8 -9 -10 -9 -7 -8 -10 -14 -20 -22 -21 -20 -18 -18 -20 -18 -12 -10 -12 -16 -6 -3 -3 -2 7 10 13 15 14 13 15 15 13 12 12 12 13 13 13 12 12 14 13 13 11
-8 -9 -9 -10 -6 -4 -3 -3 -4 -9 -19 -21 -20 -19 -20 -19 -15 -11 -10 -16 -7 -3 -3 -0 8 11 13 14 15 14 16 15 15 14 12 11 12 13 12 12 14 15 14 11 11
-7 -7 -7 -9 -11 -6 -5 -4 -4 -4 -9 -16 -20 -20 -19 -17 -7 -1 -3 -18 -6 -3 -1 3 10 12 13 14 15 14 15 15 15 14 13 12 12 12 12 12 13 13 15 13 14
-6 -6 -6 -7 -10 -10 -6 -5 -5 -5 -6 -10 -15 -18 -18 -9 -1 -1 -3 -13 -8 -7 2 8 11 12 13 14 15 15 15 14 15 14 14 13 13 12 12 11 13 14 14 14 14
-6 -6 -6 -7 -8 -11 -9 -7 -6 -6 -5 -8 -10 -13 -16 -10 -5 -1 -1 -8 -9 -8 3 10 12 10 11 12 14 14 15 15 15 14 14 14 14 11 12 13 13 14 14 14 15
-6 -6 -6 -7 -8 -11 -11 -7 -5 -4 -4 -7 -7 -9 -14 -6 1 0 -7 -12 -8 -8 -0 11 11 11 6 10 14 15 15 15 15 15 14 14 14 12 13 13 14 14 14 14 14
-8 -7 -7 -8 -9 -12 -12 -7 -4 -2 -3 -3 -4 -4 -9 -2 3 2 -1 -6 -8 -7 -3 10 9 4 3 14 15 14 15 14 15 15 14 15 14 13 13 13 14 14 14 14 14
-9 -9 -10 -11 -12 -15 -10 -5 -2 1 0 -0 -1 -4 -8 -2 1 2 2 -0 -7 -7 -7 5 10 3 7 14 13 14 14 16 14 15 15 15 15 14 13 13 13 14 14 14 14
-11 -12 -13 -15 -16 -13 -7 -4 -2 1 -0 0 -0 -2 -2 -2 -3 -3 -0 -11 -8 -10 -8 -7 -1 1 13 12 13 14 15 16 15 14 15 15 15 14 14 12 13 13 14 14 14
-7 -7 -12 -19 -16 -7 -4 -3 -2 -1 -2 -1 -1 -1 -2 -0 -2 -3 -2 -10 -12 -9 -7 -4 -3 -1 7 8 11 13 16 14 15 14 15 15 16 14 14 13 13 13 13 14 13
-6 -9 -19 -21 -8 -3 -3 -3 -3 -3 -3 -2 -2 -2 -3 -2 -4 -5 -2 -2 -9 -8 -3 -2 2 3 1 4 3 9 14 14 14 14 15 16 16 14 14 13 13 13 13 14 13
-6 -13 -22 -14 -5 -3 -3 -1 -1 -2 -1 -2 -2 -3 -5 -3 -4 -4 -0 -2 -2 -3 -1 2 4 -1 -2 -0 9 12 14 15 15 14 15 16 15 15 14 13 13 13 13 13 13
-7 -17 -19 -8 -4 -3 -3 -2 -1 -2 -1 -3 -2 -2 -4 -4 -4 -3 -3 -2 -1 -1 -1 5 -1 -3 1 5 11 12 13 15 15 15 14 16 16 15 15 15 14 12 12 12 13
-8 -19 -12 -6 -3 -4 -3 -2 -1 -3 -1 -1 -4 -3 -2 -6 -6 -4 -3 -5 -4 -1 -2 -1 -4 2 5 5 10 11 11 13 15 15 16 15 17 16 16 15 14 12 12 12 12
-7 -19 -6 -4 -4 -4 -3 -1 -0 -3 1 -1 -2 -5 -6 -6 -5 -5 -6 -6 -3 -3 -3 -1 -6 3 5 4 11 12 12 13 13 14 15 16 16 15 15 16 15 13 13 11 11
-4 -12 -8 -3 -4 -4 -3 -2 -1 -0 2 -0 -1 -6 -5 -5 -5 -5 -5 -6 -6 -5 -5 -4 -6 -6 -2 9 9 12 12 12 13 14 15 13 15 13 15 15 14 13 13 12 11
-5 -4 -8 -4 -7 -5 -3 -0 -1 1 -1 -1 -2 -5 -4 -2 -4 -4 -4 -3 -4 -2 -1 -3 -3 8 7 10 11 11 12 14 15 15 14 13 15 12 11 12 12 13 13 13 12
-6 -3 -3 -8 -5 -3 -3 -2 1 -2 -1 -3 -2 -2 -1 -1 -2 -4 -3 -2 -4 -4 -3 -2 4 10 10 8 9 11 7 10 14 15 13 14 15 12 11 10 10 12 13 12 12
-4 -4 -6 -6 -4 -2 -0 -1 -2 -3 -6 -3 -2 -0 -0 -1 -1 -2 -3 -3 -3 -4 -1 -1 1 8 9 10 9 11 10 8 10 10 11 11 12 11 11 11 12 11 13 12 12
-3 -3 -2 -2 -1 -0 1 2 2 -0 -7 -3 0 0 1 -0 -0 0 1 -0 -1 -4 -5 -1 2 3 10 10 9 10 9 12 10 12 12 9 12 13 15 15 13 12 12 12 12
-3 -2 -0 -1 -0 -0 2 2 1 -1 -5 -3 -1 -1 -1 1 1 2 2 -0 -0 -2 -2 -1 2 3 9 11 11 11 11 9 8 9 9 9 9 14 15 15 13 11 11 11 12
-5 0 -1 -1 1 1 1 1 -2 -5 -5 -5 -4 -3 0 1 2 2 2 1 -0 -0 -3 -0 1 3 3 1 -0 6 7 8 8 8 8 8 7 13 14 14 14 13 12 11 12
-6 -3 -0 0 1 2 -1 -3 -3 -5 -6 -5 -4 -2 -0 1 3 2 1 -1 -1 -2 -2 -1 3 5 5 2 1 4 3 1 -1 0 4 3 4 13 13 14 14 14 14 12 11
-2 0 3 1 -1 -0 0 -2 -4 -7 -7 -8 -8 -5 -4 1 1 1 -1 -2 -3 3 -1 0 3 5 4 5 3 4 7 4 -0 2 1 -0 9 14 14 14 14 14 14 14 14
-0 2 4 5 4 4 2 -3 -4 -6 -8 -8 -6 -7 -3 1 1 1 -1 -4 -3 1 2 -1 3 3 2 3 3 9 10 11 10 11 5 5 12 14 14 13 13 13 15 15 15
6 8 7 7 6 4 -2 -4 -5 -6 -7 -7 -6 -4 -2 -1 1 0 -1 -2 -2 0 3 2 4 5 1 2 3 9 7 8 12 12 12 12 13 12 13 14 14 13 13 13 14
-0 5 7 6 5 3 3 3 -4 -5 -5 -7 -7 -3 -3 -3 -2 -3 -1 3 3 3 4 4 4 4 2 3 4 6 6 6 10 12 12 14 12 13 13 12 12 12 12 12 13

GFSSW_850_dewp_129.txt.gz
Dewpoint
-7 -8 -9 -10 -7 -5 -5 -5 -5 -9 -19 -21 -19 -18 -19 -17 -13 -12 -4 -6 -6 -7 -1 4 7 9 10 12 12 12 16 15 9 10 11 9 10 10 9 9 8 9 9 11 11
-7 -7 -7 -9 -11 -8 -6 -6 -6 -6 -10 -18 -20 -19 -20 -19 -14 -4 -5 -13 -13 -8 1 4 7 8 10 12 12 11 16 17 14 10 9 10 9 9 8 8 9 9 10 11 12
-7 -7 -7 -7 -9 -11 -8 -7 -6 -6 -7 -12 -19 -20 -20 -17 3 1 -4 -16 -7 -5 3 1 7 8 11 12 13 12 15 14 14 12 9 10 10 9 6 9 9 9 11 11 12
-7 -7 -7 -7 -9 -11 -9 -7 -6 -6 -6 -10 -15 -19 -19 -9 -0 3 -5 -18 -6 -1 -1 2 7 9 12 15 11 14 13 13 15 12 10 10 9 11 10 8 9 10 11 11 11
-7 -7 -8 -8 -9 -12 -9 -7 -5 -4 -5 -10 -14 -18 -6 2 1 2 -6 -11 -5 -1 2 6 8 10 12 10 11 12 13 13 13 12 12 11 10 10 10 9 9 10 10 11 11
-9 -9 -9 -10 -11 -12 -8 -5 -3 -2 -3 -6 -13 -14 1 -1 2 2 -3 -9 -4 -5 4 7 8 9 8 11 11 12 13 14 14 14 12 11 10 10 9 9 10 10 9 9 10
-12 -12 -12 -13 -14 -10 -5 -4 -2 -0 -1 -5 -12 -4 2 2 2 -3 -7 -8 -7 -7 3 8 9 9 7 11 12 13 15 14 14 14 13 13 13 11 10 9 9 9 9 10 11
-9 -10 -12 -16 -14 -6 -4 -3 -1 -1 -2 -8 -5 0 -2 1 1 -1 -4 -8 -9 -8 1 8 8 5 5 11 10 12 13 15 13 14 13 14 13 12 11 9 9 8 9 11 10
-8 -11 -17 -18 -6 -3 -3 -3 -2 -2 -2 -5 1 4 -4 -4 -1 -0 -1 -9 -8 -8 -2 5 7 5 8 9 11 10 14 15 15 14 13 14 12 12 11 10 9 8 9 10 11
-8 -14 -21 -9 -3 -3 -4 -4 -3 -3 -3 -3 -2 2 -1 -3 -3 -1 -8 -9 -9 -9 -1 6 7 4 5 7 10 13 10 11 14 14 14 14 12 16 11 11 10 9 9 10 10
-8 -20 -17 -4 -3 -2 -3 -1 3 3 2 -4 -6 -5 -3 -4 -4 -2 -8 -13 -14 -8 1 4 6 5 2 4 6 4 9 13 12 13 14 15 14 13 12 11 11 10 9 9 10
-10 -21 -8 -4 -4 -1 -1 -1 -1 -2 -4 -4 -4 -5 -4 -4 -6 -4 -6 -10 -12 -9 -3 3 5 1 1 1 2 3 6 11 12 13 13 15 15 15 12 12 12 10 9 9 9
-11 -17 -6 -4 -4 -2 -1 -1 -1 -1 -2 -5 -4 -4 -4 -3 -5 -5 -4 -5 -10 -10 -7 -2 -1 0 1 1 3 3 9 14 10 13 13 14 15 15 14 13 12 12 11 9 9
-9 -14 -6 -5 -2 -2 -2 -1 -1 -1 -1 -3 -5 -5 -5 -6 -7 -6 -4 -5 -7 -7 -7 -6 -1 1 1 1 1 3 5 7 8 14 16 13 17 16 15 14 14 11 12 11 9
-5 -16 -6 -4 -3 -3 -2 -1 -1 -1 3 -4 -7 -6 -6 -6 -6 -6 -6 -8 -5 -7 -5 -1 0 -1 -2 -1 -0 4 6 6 8 9 16 15 16 16 14 16 14 12 12 11 8
-5 -14 -8 -5 -8 -3 -2 -1 -1 0 2 -3 -6 -6 -6 -6 -6 -6 -6 -6 -6 -6 -7 -5 -4 -5 -3 -5 -3 0 5 6 7 7 12 14 14 17 14 13 14 12 12 11 9
-6 -4 -11 -6 -3 -3 -1 -1 2 -0 -5 -4 -5 -7 -5 -5 -5 -6 -5 -5 -4 -4 -4 -8 -7 -9 -8 -4 -2 3 5 7 9 9 11 16 14 15 12 11 11 13 12 12 9
-8 -4 -5 -8 -1 -1 -0 -1 2 -5 -5 -7 -8 -7 -3 -4 -5 -6 -5 -4 -7 -7 -5 -4 -4 -8 -6 -6 0 3 3 7 12 10 13 13 14 17 9 9 11 11 11 11 10
-5 -5 -2 -0 -1 -0 0 1 -2 -5 -6 -6 -6 -3 -3 -4 -4 -4 -4 -5 -5 -6 -2 -2 -3 -4 -2 -5 -2 2 3 9 4 6 9 15 12 12 11 11 10 11 11 11 11
-3 0 0 1 0 1 -0 -0 -4 -7 -8 -8 -4 -4 -2 -3 -3 -3 -3 -4 -4 -6 -6 -2 0 -3 -2 0 1 4 11 6 0 9 13 11 14 10 12 13 12 11 10 9 12
-3 -0 1 -0 0 -1 1 -3 -5 -6 -6 -7 -5 -4 -5 -3 -3 -3 -0 -3 -4 -4 -5 -5 -3 5 3 3 2 2 5 5 5 8 13 14 13 6 13 13 13 12 11 13 12
0 -2 1 -0 -1 -3 -2 -5 -5 -7 -7 -7 -6 -6 -3 -2 -2 -2 -2 -2 -3 -5 -3 -3 -4 1 4 3 6 8 8 10 9 11 13 13 12 9 12 13 12 12 11 14 14
0 -3 0 -0 -0 -1 -4 -4 -6 -6 -7 -7 -6 -7 -6 -3 -0 -2 -2 -3 -4 -4 -1 -2 -2 -2 2 2 3 5 7 9 10 11 11 11 10 8 11 12 13 12 10 8 13
1 -4 -4 -1 -2 -2 -1 -2 -4 -6 -6 -7 -6 -6 -6 -5 -5 -2 -2 -4 -4 -4 -3 -3 -4 -1 5 6 4 6 4 4 7 13 10 9 11 11 11 13 13 14 12 10 13
2 -5 -3 1 -2 -3 -3 -2 -2 -3 -6 -7 -5 -5 -6 -5 -6 -6 -7 -7 -5 -3 -3 -3 -1 -2 1 1 2 4 7 6 1 0 4 8 8 13 13 13 14 14 15 16 16
2 4 2 2 -1 3 -1 -0 -1 -4 -5 -5 -4 -5 -7 -4 -4 -4 -6 -5 -5 -3 -2 -3 1 -1 -0 -2 -4 -2 -1 -2 -0 1 9 10 10 14 13 13 13 14 14 15 15
1 -0 2 -1 -1 1 0 -0 -1 -3 -5 -6 -5 -5 -5 -5 -6 -6 -7 -9 -6 -2 -1 -0 0 1 1 -1 1 1 -2 -2 2 1 5 6 13 11 13 13 13 13 13 14 13

GFSSW_850_dewp_132.txt.gz
Dewpoint
-7 -7 -8 -11 -9 -7 -6 -6 -6 -8 -15 -21 -20 -19 -18 -16 -13 -14 -4 -4 -4 -8 -4 5 4 7 9 10 12 12 16 15 15 13 9 7 8 9 7 7 10 11 9 9 9
-7 -7 -7 -8 -11 -10 -8 -7 -7 -7 -10 -16 -20 -20 -20 -17 -14 -1 -3 -6 -10 -11 -4 4 6 7 8 11 12 15 16 16 14 12 10 9 8 7 7 8 10 10 10 9 10
-7 -7 -7 -7 -9 -11 -9 -8 -7 -6 -7 -13 -18 -20 -20 -17 1 2 -2 -9 -14 -9 0 3 5 7 8 13 12 16 16 13 13 14 12 8 7 6 7 9 11 11 10 10 9
-7 -8 -8 -8 -9 -11 -9 -7 -5 -5 -7 -11 -16 -20 -20 -12 3 5 -6 -19 -9 -8 3 -0 2 7 10 14 14 16 13 13 12 14 11 10 9 11 9 8 10 10 9 10 10
-9 -9 -9 -9 -11 -11 -8 -5 -4 -4 -5 -11 -16 -19 -14 2 2 1 -12 -15 -8 -6 1 2 5 8 10 14 13 15 13 12 11 13 13 11 8 10 8 9 9 10 10 10 11
-12 -12 -12 -12 -13 -9 -6 -4 -3 -1 -3 -9 -15 -15 -5 3 1 -4 -12 -9 -1 -3 -1 5 7 9 10 10 13 13 13 12 13 13 12 15 12 10 8 8 9 9 10 10 11
-9 -10 -13 -15 -13 -6 -4 -4 -1 -1 -4 -12 -15 -7 6 2 -0 -1 -5 -8 -6 -7 -2 6 7 9 6 13 13 13 14 12 11 13 13 11 14 11 8 8 9 9 10 10 10
-10 -13 -17 -18 -7 -4 -3 -3 -2 -4 -12 -11 -3 3 1 0 -0 -4 -8 -10 -9 -8 -4 5 8 7 4 8 10 12 13 14 11 13 11 12 16 12 8 7 7 8 9 10 12
-10 -16 -21 -9 -4 -4 -4 -4 -3 -5 -6 -4 2 3 -4 -6 -2 -2 -3 -8 -10 -9 -4 3 6 6 8 12 14 13 15 14 14 11 13 13 14 15 12 7 7 8 10 10 11
-11 -22 -16 -4 -3 -4 -5 -4 -4 -3 -3 -3 -0 4 -2 -3 -2 -2 -6 -10 -10 -10 -9 1 5 5 2 6 12 15 14 15 16 14 13 14 13 15 13 13 7 7 10 10 11
-13 -23 -7 -4 -2 -2 -2 -1 2 3 6 -2 -3 -4 -4 -5 -5 -3 -9 -12 -12 -11 -6 -1 5 5 2 6 6 7 11 15 15 13 13 14 14 14 13 14 10 9 10 9 11
-13 -20 -5 -4 -3 -1 -1 2 -2 -3 -3 -6 -5 -5 -5 -7 -6 -5 -9 -13 -13 -10 -6 1 3 1 2 3 3 4 6 14 14 12 12 15 15 15 13 13 13 10 8 9 10
-10 -16 -5 -6 -4 -1 -0 -2 -2 -2 -1 -5 -5 -5 -4 -5 -6 -6 -7 -6 -10 -10 -10 -1 -0 -3 2 2 -0 1 3 10 12 13 12 14 15 15 13 14 15 11 9 9 9
-7 -16 -6 -6 -2 -1 -2 -2 -2 -2 0 -4 -5 -6 -5 -6 -7 -7 -5 -6 -8 -8 -8 -8 -6 0 2 -0 -1 0 7 7 8 14 15 12 15 14 13 14 16 15 11 9 10
-5 -17 -9 -7 -1 -2 -2 -3 -2 -2 5 -5 -7 -7 -7 -6 -6 -7 -7 -7 -5 -8 -8 -6 -3 0 0 -3 -3 -1 3 4 5 6 14 14 14 14 15 15 15 13 14 10 10
-7 -7 -15 -10 -10 -3 -4 -3 -2 1 4 -4 -6 -6 -6 -7 -7 -7 -8 -7 -6 -6 -7 -5 -5 -3 -4 -5 -5 -4 2 5 4 4 9 11 13 15 16 15 14 14 11 11 10
-10 -6 -13 -5 -1 -3 -3 -2 1 3 -4 -5 -5 -8 -5 -5 -6 -6 -5 -5 -4 -4 -4 -7 -7 -7 -7 -4 -5 -4 -0 5 5 6 11 13 13 16 13 13 14 13 12 12 12
-11 -6 -4 -19 -5 -2 -1 -1 5 -2 -6 -6 -8 -8 -4 -5 -5 -6 -6 -4 -6 -7 -4 -4 -4 -8 -10 -9 -6 -1 -0 4 11 13 14 14 16 16 11 10 10 13 12 12 11
-10 -3 -8 -6 -4 -1 -1 2 2 -2 -6 -8 -7 -5 -4 -5 -4 -5 -5 -5 -6 -7 -3 -1 -2 -7 -6 -7 -8 -4 3 4 11 12 13 12 14 15 13 10 10 10 13 12 11
-9 1 0 -0 -0 -1 -0 2 -0 -6 -8 -9 -4 -4 -2 -4 -4 -4 -3 -6 -5 -6 -7 -4 0 -3 -2 -3 -4 -1 3 6 6 10 10 15 14 15 13 13 14 10 11 12 11
-7 1 -0 -1 -1 -1 0 0 -3 -7 -7 -7 -6 -4 -5 -4 -4 -2 -2 -3 -5 -5 -5 -6 -4 -1 -2 3 6 9 8 6 4 7 15 16 16 14 15 15 13 11 11 12 12
-1 0 0 -0 -2 -3 -3 -3 -5 -7 -7 -8 -7 -6 -4 -2 -3 -4 -3 -2 -2 -5 -4 -5 -2 -0 -0 1 3 9 10 6 10 13 15 13 15 10 11 11 11 10 13 14 14
1 -4 -1 -0 1 -2 -3 -4 -6 -7 -7 -7 -7 -8 -7 -4 -1 -2 -3 -3 -3 -5 0 -1 0 0 -2 3 6 6 5 3 6 5 15 13 13 12 12 11 11 10 10 14 14
1 -4 -4 -0 -1 -2 -2 -1 -3 -6 -7 -7 -7 -7 -6 -5 -6 -2 -3 -5 -4 -5 -3 -3 -2 -2 -0 3 7 9 7 6 7 8 8 9 9 7 10 13 13 9 13 15 12
3 -3 -4 -2 -2 -2 -4 -2 -0 -3 -6 -7 -6 -6 -5 -5 -5 -4 -6 -8 -6 -4 -4 -4 -1 -2 -3 0 1 2 2 7 9 8 9 5 7 14 12 14 14 15 14 16 15
4 1 1 1 2 3 1 -2 -2 -3 -3 -4 -5 -5 -6 -5 -4 -3 -5 -5 -5 -4 -2 -4 0 -1 -1 -4 -4 -2 1 -1 4 5 12 10 7 10 11 13 13 14 15 15 14
5 5 3 -0 -1 -2 -0 0 -1 -2 -2 -5 -5 -5 -5 -5 -7 -6 -7 -7 -8 -4 -3 -1 -0 2 2 -1 -0 0 0 -2 -0 7 11 9 12 10 10 10 13 14 14 13 14

GFSSW_850_dewp_135.txt.gz
Dewpoint
-7 -7 -7 -9 -11 -10 -8 -7 -7 -8 -12 -18 -20 -19 -18 -16 -14 -14 -15 -5 -4 -5 -7 4 5 5 7 13 14 14 16 16 16 15 13 9 9 9 9 10 10 9 10 11 11
-8 -8 -8 -8 -10 -11 -10 -8 -7 -7 -9 -14 -19 -20 -19 -17 -15 -15 -11 -3 -5 -8 -9 4 4 5 7 14 14 14 15 16 15 15 15 11 8 8 10 10 10 9 10 11 11
-8 -8 -8 -8 -10 -11 -10 -7 -6 -6 -8 -11 -17 -20 -20 -18 -9 3 -1 -4 -7 -14 -7 2 2 3 13 10 14 14 16 13 14 15 15 14 8 7 9 11 10 9 9 11 12
-9 -9 -9 -9 -11 -10 -8 -6 -5 -5 -6 -11 -16 -19 -19 -15 7 4 2 -8 -17 -10 1 1 0 1 12 12 15 16 14 13 13 13 14 13 11 11 10 10 10 9 9 10 11
-12 -12 -11 -11 -12 -9 -6 -5 -4 -2 -4 -10 -15 -18 -17 1 3 2 -14 -19 -11 -9 -4 1 1 5 13 13 13 14 13 13 11 15 13 14 11 11 10 11 10 9 9 10 9
-10 -11 -13 -14 -12 -6 -4 -4 -3 -1 -3 -9 -15 -17 -7 5 1 1 -18 -13 -5 -6 -3 -2 3 9 12 14 14 13 14 12 14 14 13 12 14 12 10 10 10 10 10 9 11
-10 -13 -17 -17 -7 -4 -4 -3 -1 -3 -8 -14 -15 -9 2 4 -0 -2 -14 -10 -6 -4 -6 -6 3 7 10 12 10 9 15 12 13 14 14 11 14 14 9 10 9 10 11 10 11
-10 -16 -21 -12 -4 -4 -4 -3 -2 -8 -15 -7 -3 1 5 -0 -1 -5 -6 -8 -9 -8 -8 -3 6 7 7 9 12 16 14 15 13 12 12 12 15 14 12 9 9 10 11 10 11
-11 -21 -17 -5 -4 -4 -4 -3 -4 -7 -6 -5 1 7 5 -5 -3 -2 -6 -8 -10 -10 -9 -4 3 6 7 9 15 15 15 15 14 12 13 14 14 12 11 12 9 10 11 10 10
-14 -22 -7 -4 -3 -5 -5 -4 -4 -3 -4 -4 -2 5 3 -3 -3 -2 -2 -5 -10 -11 -9 -8 2 6 6 8 16 15 15 15 15 14 14 13 15 14 12 13 13 9 11 11 10
-14 -20 -5 -3 -2 -2 -1 -0 3 -1 -3 2 2 -0 -4 -5 -5 -3 -8 -11 -9 -12 -8 -7 4 7 6 4 7 11 14 14 13 12 14 15 15 15 14 13 13 12 10 11 11
-10 -19 -6 -4 -2 -2 -0 0 -2 -2 -2 -1 -4 -6 -6 -6 -5 -4 -10 -11 -14 -11 -10 -5 2 2 2 3 4 6 14 15 13 12 14 15 15 15 13 13 13 13 12 11 12
-7 -19 -8 -6 -4 -2 0 -0 -2 -2 -1 -2 -5 -4 -4 -5 -6 -6 -8 -11 -10 -9 -9 -2 -0 -1 -0 2 3 0 12 16 15 15 13 15 15 16 13 11 11 11 13 12 11
-7 -13 -14 -9 -3 -0 -1 -3 -2 -2 1 -1 -5 -6 -5 -4 -6 -7 -6 -6 -5 -9 -10 -8 -9 -6 1 2 -0 1 8 9 11 14 16 14 16 16 15 13 13 13 13 13 11
-9 -6 -19 -11 -2 -2 -3 -4 -3 -2 6 -4 -6 -7 -6 -6 -6 -7 -7 -6 -4 -5 -7 -6 -7 -3 0 -0 -1 -1 5 5 10 13 15 15 14 15 15 16 16 15 13 13 12
-11 -7 -11 -17 -6 -4 -2 -3 -3 2 6 -4 -7 -6 -6 -7 -7 -7 -8 -8 -7 -5 -6 -6 -7 -4 -2 -4 -4 -5 -3 2 6 9 13 13 13 15 16 14 15 12 11 10 11
-10 -11 -8 -15 -10 -2 -3 -1 3 4 -2 -4 -5 -7 -5 -5 -6 -6 -6 -6 -4 -3 -2 -4 -5 -6 -7 -4 -4 -4 -2 3 6 7 15 14 15 15 13 13 14 12 12 11 11
-12 -12 -7 -14 -21 -5 -1 2 6 4 -2 -7 -7 -9 -5 -6 -5 -6 -4 -3 -4 -6 -4 -1 -1 -6 -8 -7 -6 -5 -1 5 12 13 14 13 15 15 13 11 13 13 13 11 9
-11 -9 -2 -20 -22 -7 -2 5 4 3 -7 -7 -8 -6 -4 -5 -4 -5 -4 -4 -5 -5 -2 0 2 -6 -8 -9 -7 -5 -1 7 13 12 11 13 14 13 11 12 12 13 13 14 14
-8 -11 -2 -0 -2 -1 2 3 2 -1 -7 -9 -5 -3 -1 -3 -4 -3 -2 -5 -4 -5 -5 -3 -0 -3 -2 -2 4 6 5 7 9 13 13 15 14 16 13 14 13 13 13 14 15
-6 -0 0 1 -1 -0 4 2 -1 -2 -7 -7 -5 -3 -4 -3 -3 -3 -1 -3 -5 -4 -5 -4 -3 -1 -2 6 6 8 8 7 9 12 14 16 15 13 15 14 14 13 13 14 13
-2 2 -0 -1 1 0 1 -1 -3 -4 -7 -7 -7 -5 -3 -2 -0 -3 -1 0 -3 -5 -0 -0 -1 3 7 5 5 7 8 7 9 13 13 14 14 12 14 14 13 13 15 12 11
2 2 -6 -2 3 3 -0 -2 -4 -4 -6 -7 -7 -6 -7 -4 0 -1 -1 -3 -4 -3 0 -2 2 3 4 3 6 5 5 5 4 6 13 13 13 12 13 14 13 12 12 15 15
4 3 -4 -3 -1 1 2 1 -0 -2 -7 -7 -5 -6 -5 -4 -4 -1 -1 -4 -5 -3 -3 -4 -2 1 3 5 7 7 5 6 7 8 11 11 9 12 12 14 12 13 15 14 15
5 4 3 4 3 2 2 4 -0 -1 -1 -7 -4 -5 -4 -1 -2 -1 -4 -4 -4 -3 -4 -3 -0 -0 -1 -2 5 4 3 4 9 7 9 7 13 12 11 13 12 13 15 15 15
6 6 6 5 2 1 1 3 3 -1 -1 -2 -2 -4 -4 -2 -2 -1 -2 -1 -2 -1 -2 -1 2 3 4 0 -0 1 2 4 5 7 9 9 11 11 11 14 14 14 14 14 14
7 6 7 6 3 2 0 0 -1 -2 1 0 -2 -1 -2 -2 -5 -6 -7 -8 -7 -4 -1 1 4 5 5 3 1 3 2 1 4 7 10 11 10 11 10 13 14 13 13 13 14